<?xml version="1.0" encoding="UTF-8" standalone="no" ?>
<gpx xmlns="http://www.topografix.com/GPX/1/1" xmlns:xsi="http://www.w3.org/2001/XMLSchema-instance" xsi:schemaLocation="http://www.topografix.com/GPX/1/1 http://www.topografix.com/GPX/1/1/gpx.xsd" version="1.1" creator="VisuGPX - https://www.visugpx.com">
  <metadata>
    <name>Champagnat Cyclisme sur route</name>
  </metadata>
  <trk>
    <name><![CDATA[Champagnat Cyclisme sur route_1]]></name>
    <trkseg>
      <trkpt lat="46.48276" lon="5.36837">
        <ele>265.8</ele>
        <time>2022-01-24T13:15:20Z</time>
      </trkpt>
      <trkpt lat="46.48259" lon="5.36814">
        <ele>264.4</ele>
        <time>2022-01-24T13:15:22Z</time>
      </trkpt>
      <trkpt lat="46.48249" lon="5.36805">
        <ele>263.8</ele>
        <time>2022-01-24T13:15:23Z</time>
      </trkpt>
      <trkpt lat="46.48239" lon="5.36796">
        <ele>262.8</ele>
        <time>2022-01-24T13:15:24Z</time>
      </trkpt>
      <trkpt lat="46.48228" lon="5.36788">
        <ele>261.8</ele>
        <time>2022-01-24T13:15:25Z</time>
      </trkpt>
      <trkpt lat="46.48208" lon="5.36772">
        <ele>260.4</ele>
        <time>2022-01-24T13:15:27Z</time>
      </trkpt>
      <trkpt lat="46.48187" lon="5.36756">
        <ele>258.8</ele>
        <time>2022-01-24T13:15:29Z</time>
      </trkpt>
      <trkpt lat="46.48177" lon="5.36748">
        <ele>258.4</ele>
        <time>2022-01-24T13:15:30Z</time>
      </trkpt>
      <trkpt lat="46.48167" lon="5.36739">
        <ele>257.2</ele>
        <time>2022-01-24T13:15:31Z</time>
      </trkpt>
      <trkpt lat="46.48148" lon="5.36724">
        <ele>256</ele>
        <time>2022-01-24T13:15:33Z</time>
      </trkpt>
      <trkpt lat="46.48139" lon="5.36716">
        <ele>254.8</ele>
        <time>2022-01-24T13:15:34Z</time>
      </trkpt>
      <trkpt lat="46.48123" lon="5.36705">
        <ele>253.4</ele>
        <time>2022-01-24T13:15:36Z</time>
      </trkpt>
      <trkpt lat="46.48117" lon="5.36698">
        <ele>253</ele>
        <time>2022-01-24T13:15:37Z</time>
      </trkpt>
      <trkpt lat="46.48113" lon="5.3669">
        <ele>252.2</ele>
        <time>2022-01-24T13:15:38Z</time>
      </trkpt>
      <trkpt lat="46.48113" lon="5.36681">
        <ele>251.8</ele>
        <time>2022-01-24T13:15:39Z</time>
      </trkpt>
      <trkpt lat="46.48115" lon="5.36674">
        <ele>251</ele>
        <time>2022-01-24T13:15:40Z</time>
      </trkpt>
      <trkpt lat="46.48119" lon="5.36667">
        <ele>250</ele>
        <time>2022-01-24T13:15:41Z</time>
      </trkpt>
      <trkpt lat="46.48125" lon="5.3666">
        <ele>249.4</ele>
        <time>2022-01-24T13:15:42Z</time>
      </trkpt>
      <trkpt lat="46.48131" lon="5.36654">
        <ele>248.8</ele>
        <time>2022-01-24T13:15:43Z</time>
      </trkpt>
      <trkpt lat="46.48138" lon="5.36648">
        <ele>248.6</ele>
        <time>2022-01-24T13:15:44Z</time>
      </trkpt>
      <trkpt lat="46.48167" lon="5.36622">
        <ele>246.8</ele>
        <time>2022-01-24T13:15:48Z</time>
      </trkpt>
      <trkpt lat="46.48182" lon="5.36609">
        <ele>246.4</ele>
        <time>2022-01-24T13:15:50Z</time>
      </trkpt>
      <trkpt lat="46.4819" lon="5.36604">
        <ele>246.4</ele>
        <time>2022-01-24T13:15:51Z</time>
      </trkpt>
      <trkpt lat="46.48198" lon="5.36601">
        <ele>246.2</ele>
        <time>2022-01-24T13:15:52Z</time>
      </trkpt>
      <trkpt lat="46.48213" lon="5.36595">
        <ele>246</ele>
        <time>2022-01-24T13:15:54Z</time>
      </trkpt>
      <trkpt lat="46.4822" lon="5.36589">
        <ele>245.8</ele>
        <time>2022-01-24T13:15:55Z</time>
      </trkpt>
      <trkpt lat="46.48226" lon="5.3658">
        <ele>245.6</ele>
        <time>2022-01-24T13:15:56Z</time>
      </trkpt>
      <trkpt lat="46.48233" lon="5.36561">
        <ele>245.4</ele>
        <time>2022-01-24T13:15:58Z</time>
      </trkpt>
      <trkpt lat="46.48243" lon="5.36546">
        <ele>245</ele>
        <time>2022-01-24T13:16:00Z</time>
      </trkpt>
      <trkpt lat="46.48249" lon="5.3654">
        <ele>244.8</ele>
        <time>2022-01-24T13:16:01Z</time>
      </trkpt>
      <trkpt lat="46.48273" lon="5.36513">
        <ele>244.4</ele>
        <time>2022-01-24T13:16:05Z</time>
      </trkpt>
      <trkpt lat="46.48299" lon="5.36485">
        <ele>243.6</ele>
        <time>2022-01-24T13:16:09Z</time>
      </trkpt>
      <trkpt lat="46.48312" lon="5.36471">
        <ele>243.2</ele>
        <time>2022-01-24T13:16:11Z</time>
      </trkpt>
      <trkpt lat="46.48338" lon="5.36441">
        <ele>242.2</ele>
        <time>2022-01-24T13:16:15Z</time>
      </trkpt>
      <trkpt lat="46.48351" lon="5.36427">
        <ele>241.6</ele>
        <time>2022-01-24T13:16:17Z</time>
      </trkpt>
      <trkpt lat="46.48358" lon="5.36419">
        <ele>241.2</ele>
        <time>2022-01-24T13:16:18Z</time>
      </trkpt>
      <trkpt lat="46.48365" lon="5.36412">
        <ele>240.8</ele>
        <time>2022-01-24T13:16:19Z</time>
      </trkpt>
      <trkpt lat="46.48391" lon="5.36383">
        <ele>239.4</ele>
        <time>2022-01-24T13:16:23Z</time>
      </trkpt>
      <trkpt lat="46.48411" lon="5.36364">
        <ele>238.6</ele>
        <time>2022-01-24T13:16:26Z</time>
      </trkpt>
      <trkpt lat="46.48425" lon="5.36356">
        <ele>238.4</ele>
        <time>2022-01-24T13:16:28Z</time>
      </trkpt>
      <trkpt lat="46.48432" lon="5.36353">
        <ele>238.4</ele>
        <time>2022-01-24T13:16:29Z</time>
      </trkpt>
      <trkpt lat="46.48439" lon="5.36351">
        <ele>238.2</ele>
        <time>2022-01-24T13:16:30Z</time>
      </trkpt>
      <trkpt lat="46.48489" lon="5.36344">
        <ele>237.8</ele>
        <time>2022-01-24T13:16:37Z</time>
      </trkpt>
      <trkpt lat="46.48515" lon="5.36339">
        <ele>237.4</ele>
        <time>2022-01-24T13:16:41Z</time>
      </trkpt>
      <trkpt lat="46.48522" lon="5.36338">
        <ele>237.4</ele>
        <time>2022-01-24T13:16:42Z</time>
      </trkpt>
      <trkpt lat="46.4855" lon="5.36334">
        <ele>237</ele>
        <time>2022-01-24T13:16:46Z</time>
      </trkpt>
      <trkpt lat="46.4859" lon="5.36328">
        <ele>236.2</ele>
        <time>2022-01-24T13:16:52Z</time>
      </trkpt>
      <trkpt lat="46.48614" lon="5.36319">
        <ele>235</ele>
        <time>2022-01-24T13:16:55Z</time>
      </trkpt>
      <trkpt lat="46.48626" lon="5.36301">
        <ele>234.8</ele>
        <time>2022-01-24T13:16:57Z</time>
      </trkpt>
      <trkpt lat="46.48632" lon="5.36277">
        <ele>234.2</ele>
        <time>2022-01-24T13:16:59Z</time>
      </trkpt>
      <trkpt lat="46.48634" lon="5.36264">
        <ele>234</ele>
        <time>2022-01-24T13:17:00Z</time>
      </trkpt>
      <trkpt lat="46.48637" lon="5.36238">
        <ele>232.4</ele>
        <time>2022-01-24T13:17:03Z</time>
      </trkpt>
      <trkpt lat="46.48643" lon="5.36174">
        <ele>231</ele>
        <time>2022-01-24T13:17:07Z</time>
      </trkpt>
      <trkpt lat="46.4865" lon="5.36123">
        <ele>230</ele>
        <time>2022-01-24T13:17:11Z</time>
      </trkpt>
      <trkpt lat="46.48653" lon="5.36111">
        <ele>229.8</ele>
        <time>2022-01-24T13:17:12Z</time>
      </trkpt>
      <trkpt lat="46.48655" lon="5.36099">
        <ele>229.6</ele>
        <time>2022-01-24T13:17:13Z</time>
      </trkpt>
      <trkpt lat="46.48669" lon="5.36037">
        <ele>229.2</ele>
        <time>2022-01-24T13:17:19Z</time>
      </trkpt>
      <trkpt lat="46.48677" lon="5.35983">
        <ele>229.6</ele>
        <time>2022-01-24T13:17:25Z</time>
      </trkpt>
      <trkpt lat="46.48681" lon="5.35955">
        <ele>230.2</ele>
        <time>2022-01-24T13:17:28Z</time>
      </trkpt>
      <trkpt lat="46.48687" lon="5.35916">
        <ele>230.4</ele>
        <time>2022-01-24T13:17:32Z</time>
      </trkpt>
      <trkpt lat="46.4869" lon="5.35906">
        <ele>230.4</ele>
        <time>2022-01-24T13:17:33Z</time>
      </trkpt>
      <trkpt lat="46.48709" lon="5.35857">
        <ele>230.4</ele>
        <time>2022-01-24T13:17:38Z</time>
      </trkpt>
      <trkpt lat="46.48738" lon="5.3579">
        <ele>229.4</ele>
        <time>2022-01-24T13:17:45Z</time>
      </trkpt>
      <trkpt lat="46.48742" lon="5.35781">
        <ele>229.2</ele>
        <time>2022-01-24T13:17:46Z</time>
      </trkpt>
      <trkpt lat="46.4875" lon="5.35762">
        <ele>228.8</ele>
        <time>2022-01-24T13:17:48Z</time>
      </trkpt>
      <trkpt lat="46.48774" lon="5.35708">
        <ele>228</ele>
        <time>2022-01-24T13:17:54Z</time>
      </trkpt>
      <trkpt lat="46.48778" lon="5.35699">
        <ele>227.8</ele>
        <time>2022-01-24T13:17:55Z</time>
      </trkpt>
      <trkpt lat="46.488" lon="5.35651">
        <ele>227.4</ele>
        <time>2022-01-24T13:18:01Z</time>
      </trkpt>
      <trkpt lat="46.48819" lon="5.35609">
        <ele>227.4</ele>
        <time>2022-01-24T13:18:06Z</time>
      </trkpt>
      <trkpt lat="46.48829" lon="5.35586">
        <ele>227.2</ele>
        <time>2022-01-24T13:18:09Z</time>
      </trkpt>
      <trkpt lat="46.4886" lon="5.35516">
        <ele>227.8</ele>
        <time>2022-01-24T13:18:18Z</time>
      </trkpt>
      <trkpt lat="46.4887" lon="5.35492">
        <ele>227.8</ele>
        <time>2022-01-24T13:18:21Z</time>
      </trkpt>
      <trkpt lat="46.48893" lon="5.35441">
        <ele>227.6</ele>
        <time>2022-01-24T13:18:27Z</time>
      </trkpt>
      <trkpt lat="46.48904" lon="5.35416">
        <ele>227.4</ele>
        <time>2022-01-24T13:18:30Z</time>
      </trkpt>
      <trkpt lat="46.48936" lon="5.35343">
        <ele>226.6</ele>
        <time>2022-01-24T13:18:38Z</time>
      </trkpt>
      <trkpt lat="46.48944" lon="5.35326">
        <ele>226.4</ele>
        <time>2022-01-24T13:18:40Z</time>
      </trkpt>
      <trkpt lat="46.48971" lon="5.35261">
        <ele>226.2</ele>
        <time>2022-01-24T13:18:48Z</time>
      </trkpt>
      <trkpt lat="46.48984" lon="5.35232">
        <ele>226.4</ele>
        <time>2022-01-24T13:18:52Z</time>
      </trkpt>
      <trkpt lat="46.48991" lon="5.35213">
        <ele>226.6</ele>
        <time>2022-01-24T13:18:55Z</time>
      </trkpt>
      <trkpt lat="46.49012" lon="5.35162">
        <ele>227.4</ele>
        <time>2022-01-24T13:19:03Z</time>
      </trkpt>
      <trkpt lat="46.49028" lon="5.35124">
        <ele>228.2</ele>
        <time>2022-01-24T13:19:08Z</time>
      </trkpt>
      <trkpt lat="46.49032" lon="5.35107">
        <ele>228.2</ele>
        <time>2022-01-24T13:19:10Z</time>
      </trkpt>
      <trkpt lat="46.49047" lon="5.3505">
        <ele>228.2</ele>
        <time>2022-01-24T13:19:16Z</time>
      </trkpt>
      <trkpt lat="46.4905" lon="5.3504">
        <ele>228.2</ele>
        <time>2022-01-24T13:19:17Z</time>
      </trkpt>
      <trkpt lat="46.49065" lon="5.34968">
        <ele>227.4</ele>
        <time>2022-01-24T13:19:24Z</time>
      </trkpt>
      <trkpt lat="46.4908" lon="5.349">
        <ele>226.2</ele>
        <time>2022-01-24T13:19:30Z</time>
      </trkpt>
      <trkpt lat="46.49087" lon="5.34866">
        <ele>225.6</ele>
        <time>2022-01-24T13:19:33Z</time>
      </trkpt>
      <trkpt lat="46.49093" lon="5.34844">
        <ele>225.2</ele>
        <time>2022-01-24T13:19:35Z</time>
      </trkpt>
      <trkpt lat="46.49107" lon="5.34777">
        <ele>223.8</ele>
        <time>2022-01-24T13:19:41Z</time>
      </trkpt>
      <trkpt lat="46.49108" lon="5.34766">
        <ele>223.6</ele>
        <time>2022-01-24T13:19:42Z</time>
      </trkpt>
      <trkpt lat="46.49114" lon="5.34733">
        <ele>223.2</ele>
        <time>2022-01-24T13:19:45Z</time>
      </trkpt>
      <trkpt lat="46.49121" lon="5.34699">
        <ele>222.8</ele>
        <time>2022-01-24T13:19:48Z</time>
      </trkpt>
      <trkpt lat="46.49125" lon="5.34677">
        <ele>222.6</ele>
        <time>2022-01-24T13:19:50Z</time>
      </trkpt>
      <trkpt lat="46.49135" lon="5.34629">
        <ele>221.8</ele>
        <time>2022-01-24T13:19:55Z</time>
      </trkpt>
      <trkpt lat="46.49136" lon="5.3462">
        <ele>221.6</ele>
        <time>2022-01-24T13:19:56Z</time>
      </trkpt>
      <trkpt lat="46.49143" lon="5.3458">
        <ele>221.8</ele>
        <time>2022-01-24T13:20:01Z</time>
      </trkpt>
      <trkpt lat="46.49155" lon="5.34514">
        <ele>222.2</ele>
        <time>2022-01-24T13:20:08Z</time>
      </trkpt>
      <trkpt lat="46.49171" lon="5.34433">
        <ele>221.4</ele>
        <time>2022-01-24T13:20:16Z</time>
      </trkpt>
      <trkpt lat="46.49172" lon="5.34423">
        <ele>221.4</ele>
        <time>2022-01-24T13:20:17Z</time>
      </trkpt>
      <trkpt lat="46.49176" lon="5.34405">
        <ele>221.2</ele>
        <time>2022-01-24T13:20:19Z</time>
      </trkpt>
      <trkpt lat="46.49181" lon="5.34372">
        <ele>221.2</ele>
        <time>2022-01-24T13:20:23Z</time>
      </trkpt>
      <trkpt lat="46.49188" lon="5.34334">
        <ele>221.8</ele>
        <time>2022-01-24T13:20:28Z</time>
      </trkpt>
      <trkpt lat="46.49191" lon="5.34325">
        <ele>222</ele>
        <time>2022-01-24T13:20:29Z</time>
      </trkpt>
      <trkpt lat="46.49198" lon="5.34288">
        <ele>222.2</ele>
        <time>2022-01-24T13:20:33Z</time>
      </trkpt>
      <trkpt lat="46.49206" lon="5.34248">
        <ele>222.2</ele>
        <time>2022-01-24T13:20:37Z</time>
      </trkpt>
      <trkpt lat="46.49208" lon="5.34238">
        <ele>222.2</ele>
        <time>2022-01-24T13:20:38Z</time>
      </trkpt>
      <trkpt lat="46.49221" lon="5.34178">
        <ele>222</ele>
        <time>2022-01-24T13:20:44Z</time>
      </trkpt>
      <trkpt lat="46.49229" lon="5.34128">
        <ele>221.8</ele>
        <time>2022-01-24T13:20:50Z</time>
      </trkpt>
      <trkpt lat="46.49236" lon="5.34084">
        <ele>222.2</ele>
        <time>2022-01-24T13:20:56Z</time>
      </trkpt>
      <trkpt lat="46.49239" lon="5.3407">
        <ele>222.4</ele>
        <time>2022-01-24T13:20:58Z</time>
      </trkpt>
      <trkpt lat="46.4924" lon="5.34063">
        <ele>222.8</ele>
        <time>2022-01-24T13:20:59Z</time>
      </trkpt>
      <trkpt lat="46.49245" lon="5.3404">
        <ele>223.2</ele>
        <time>2022-01-24T13:21:02Z</time>
      </trkpt>
      <trkpt lat="46.4925" lon="5.34015">
        <ele>224</ele>
        <time>2022-01-24T13:21:05Z</time>
      </trkpt>
      <trkpt lat="46.49258" lon="5.33967">
        <ele>224.2</ele>
        <time>2022-01-24T13:21:11Z</time>
      </trkpt>
      <trkpt lat="46.49274" lon="5.33887">
        <ele>224.4</ele>
        <time>2022-01-24T13:21:20Z</time>
      </trkpt>
      <trkpt lat="46.49275" lon="5.33879">
        <ele>224.4</ele>
        <time>2022-01-24T13:21:21Z</time>
      </trkpt>
      <trkpt lat="46.49291" lon="5.338">
        <ele>224.4</ele>
        <time>2022-01-24T13:21:30Z</time>
      </trkpt>
      <trkpt lat="46.49295" lon="5.33782">
        <ele>224.2</ele>
        <time>2022-01-24T13:21:32Z</time>
      </trkpt>
      <trkpt lat="46.49304" lon="5.33709">
        <ele>223.8</ele>
        <time>2022-01-24T13:21:40Z</time>
      </trkpt>
      <trkpt lat="46.49304" lon="5.337">
        <ele>223.8</ele>
        <time>2022-01-24T13:21:41Z</time>
      </trkpt>
      <trkpt lat="46.49307" lon="5.33629">
        <ele>223.2</ele>
        <time>2022-01-24T13:21:48Z</time>
      </trkpt>
      <trkpt lat="46.49317" lon="5.33573">
        <ele>222.8</ele>
        <time>2022-01-24T13:21:54Z</time>
      </trkpt>
      <trkpt lat="46.49318" lon="5.33564">
        <ele>222.6</ele>
        <time>2022-01-24T13:21:55Z</time>
      </trkpt>
      <trkpt lat="46.49319" lon="5.33546">
        <ele>222.6</ele>
        <time>2022-01-24T13:21:57Z</time>
      </trkpt>
      <trkpt lat="46.49319" lon="5.33537">
        <ele>222.6</ele>
        <time>2022-01-24T13:21:58Z</time>
      </trkpt>
      <trkpt lat="46.49313" lon="5.33483">
        <ele>222.4</ele>
        <time>2022-01-24T13:22:04Z</time>
      </trkpt>
      <trkpt lat="46.49297" lon="5.33401">
        <ele>222.2</ele>
        <time>2022-01-24T13:22:13Z</time>
      </trkpt>
      <trkpt lat="46.49295" lon="5.33391">
        <ele>222.2</ele>
        <time>2022-01-24T13:22:14Z</time>
      </trkpt>
      <trkpt lat="46.49282" lon="5.3333">
        <ele>221.6</ele>
        <time>2022-01-24T13:22:20Z</time>
      </trkpt>
      <trkpt lat="46.49277" lon="5.33309">
        <ele>221.4</ele>
        <time>2022-01-24T13:22:22Z</time>
      </trkpt>
      <trkpt lat="46.49264" lon="5.33235">
        <ele>220.4</ele>
        <time>2022-01-24T13:22:29Z</time>
      </trkpt>
      <trkpt lat="46.49257" lon="5.33216">
        <ele>220.2</ele>
        <time>2022-01-24T13:22:31Z</time>
      </trkpt>
      <trkpt lat="46.49247" lon="5.33199">
        <ele>220</ele>
        <time>2022-01-24T13:22:33Z</time>
      </trkpt>
      <trkpt lat="46.49242" lon="5.33191">
        <ele>220</ele>
        <time>2022-01-24T13:22:34Z</time>
      </trkpt>
      <trkpt lat="46.49229" lon="5.33179">
        <ele>219.6</ele>
        <time>2022-01-24T13:22:36Z</time>
      </trkpt>
      <trkpt lat="46.49222" lon="5.33174">
        <ele>219.2</ele>
        <time>2022-01-24T13:22:37Z</time>
      </trkpt>
      <trkpt lat="46.49208" lon="5.33164">
        <ele>218.8</ele>
        <time>2022-01-24T13:22:39Z</time>
      </trkpt>
      <trkpt lat="46.49174" lon="5.33134">
        <ele>218</ele>
        <time>2022-01-24T13:22:44Z</time>
      </trkpt>
      <trkpt lat="46.49163" lon="5.33119">
        <ele>217.8</ele>
        <time>2022-01-24T13:22:46Z</time>
      </trkpt>
      <trkpt lat="46.49154" lon="5.33102">
        <ele>217.8</ele>
        <time>2022-01-24T13:22:48Z</time>
      </trkpt>
      <trkpt lat="46.49136" lon="5.33047">
        <ele>217.4</ele>
        <time>2022-01-24T13:22:54Z</time>
      </trkpt>
      <trkpt lat="46.49132" lon="5.33028">
        <ele>217.4</ele>
        <time>2022-01-24T13:22:56Z</time>
      </trkpt>
      <trkpt lat="46.49125" lon="5.32989">
        <ele>217.2</ele>
        <time>2022-01-24T13:23:00Z</time>
      </trkpt>
      <trkpt lat="46.49122" lon="5.32956">
        <ele>217</ele>
        <time>2022-01-24T13:23:03Z</time>
      </trkpt>
      <trkpt lat="46.4912" lon="5.32922">
        <ele>216.4</ele>
        <time>2022-01-24T13:23:06Z</time>
      </trkpt>
      <trkpt lat="46.49121" lon="5.32888">
        <ele>215.8</ele>
        <time>2022-01-24T13:23:09Z</time>
      </trkpt>
      <trkpt lat="46.49123" lon="5.32877">
        <ele>215.8</ele>
        <time>2022-01-24T13:23:10Z</time>
      </trkpt>
      <trkpt lat="46.49138" lon="5.32818">
        <ele>215.2</ele>
        <time>2022-01-24T13:23:16Z</time>
      </trkpt>
      <trkpt lat="46.49135" lon="5.32781">
        <ele>215.4</ele>
        <time>2022-01-24T13:23:20Z</time>
      </trkpt>
      <trkpt lat="46.49128" lon="5.32737">
        <ele>216.2</ele>
        <time>2022-01-24T13:23:25Z</time>
      </trkpt>
      <trkpt lat="46.49125" lon="5.32728">
        <ele>216.2</ele>
        <time>2022-01-24T13:23:26Z</time>
      </trkpt>
      <trkpt lat="46.49119" lon="5.3271">
        <ele>216.4</ele>
        <time>2022-01-24T13:23:28Z</time>
      </trkpt>
      <trkpt lat="46.49109" lon="5.32698">
        <ele>216.4</ele>
        <time>2022-01-24T13:23:30Z</time>
      </trkpt>
      <trkpt lat="46.49096" lon="5.32692">
        <ele>216.2</ele>
        <time>2022-01-24T13:23:32Z</time>
      </trkpt>
      <trkpt lat="46.49087" lon="5.32692">
        <ele>216.2</ele>
        <time>2022-01-24T13:23:33Z</time>
      </trkpt>
      <trkpt lat="46.49049" lon="5.32701">
        <ele>215</ele>
        <time>2022-01-24T13:23:38Z</time>
      </trkpt>
      <trkpt lat="46.49032" lon="5.32704">
        <ele>214.6</ele>
        <time>2022-01-24T13:23:40Z</time>
      </trkpt>
      <trkpt lat="46.49004" lon="5.32709">
        <ele>212.8</ele>
        <time>2022-01-24T13:23:43Z</time>
      </trkpt>
      <trkpt lat="46.48994" lon="5.3271">
        <ele>212.6</ele>
        <time>2022-01-24T13:23:44Z</time>
      </trkpt>
      <trkpt lat="46.48975" lon="5.3271">
        <ele>211.6</ele>
        <time>2022-01-24T13:23:46Z</time>
      </trkpt>
      <trkpt lat="46.4896" lon="5.32705">
        <ele>211</ele>
        <time>2022-01-24T13:23:48Z</time>
      </trkpt>
      <trkpt lat="46.48953" lon="5.327">
        <ele>210.6</ele>
        <time>2022-01-24T13:23:49Z</time>
      </trkpt>
      <trkpt lat="46.48947" lon="5.32693">
        <ele>209.4</ele>
        <time>2022-01-24T13:23:50Z</time>
      </trkpt>
      <trkpt lat="46.48934" lon="5.32677">
        <ele>208.2</ele>
        <time>2022-01-24T13:23:52Z</time>
      </trkpt>
      <trkpt lat="46.48922" lon="5.32657">
        <ele>207.2</ele>
        <time>2022-01-24T13:23:54Z</time>
      </trkpt>
      <trkpt lat="46.48917" lon="5.32646">
        <ele>207</ele>
        <time>2022-01-24T13:23:55Z</time>
      </trkpt>
      <trkpt lat="46.48913" lon="5.32633">
        <ele>206.2</ele>
        <time>2022-01-24T13:23:56Z</time>
      </trkpt>
      <trkpt lat="46.48912" lon="5.32619">
        <ele>205.6</ele>
        <time>2022-01-24T13:23:57Z</time>
      </trkpt>
      <trkpt lat="46.48914" lon="5.32607">
        <ele>204.6</ele>
        <time>2022-01-24T13:23:58Z</time>
      </trkpt>
      <trkpt lat="46.4892" lon="5.32596">
        <ele>203.8</ele>
        <time>2022-01-24T13:23:59Z</time>
      </trkpt>
      <trkpt lat="46.48927" lon="5.32586">
        <ele>203.6</ele>
        <time>2022-01-24T13:24:00Z</time>
      </trkpt>
      <trkpt lat="46.48939" lon="5.32567">
        <ele>202.8</ele>
        <time>2022-01-24T13:24:02Z</time>
      </trkpt>
      <trkpt lat="46.48948" lon="5.32542">
        <ele>201.6</ele>
        <time>2022-01-24T13:24:04Z</time>
      </trkpt>
      <trkpt lat="46.48946" lon="5.32515">
        <ele>200.6</ele>
        <time>2022-01-24T13:24:06Z</time>
      </trkpt>
      <trkpt lat="46.48941" lon="5.32491">
        <ele>199.4</ele>
        <time>2022-01-24T13:24:08Z</time>
      </trkpt>
      <trkpt lat="46.48935" lon="5.32468">
        <ele>199</ele>
        <time>2022-01-24T13:24:10Z</time>
      </trkpt>
      <trkpt lat="46.48932" lon="5.32457">
        <ele>198.8</ele>
        <time>2022-01-24T13:24:11Z</time>
      </trkpt>
      <trkpt lat="46.48916" lon="5.32394">
        <ele>198.4</ele>
        <time>2022-01-24T13:24:17Z</time>
      </trkpt>
      <trkpt lat="46.48912" lon="5.32373">
        <ele>198.4</ele>
        <time>2022-01-24T13:24:19Z</time>
      </trkpt>
      <trkpt lat="46.48909" lon="5.32364">
        <ele>198.4</ele>
        <time>2022-01-24T13:24:20Z</time>
      </trkpt>
      <trkpt lat="46.48903" lon="5.32345">
        <ele>198.4</ele>
        <time>2022-01-24T13:24:22Z</time>
      </trkpt>
      <trkpt lat="46.48895" lon="5.3233">
        <ele>198.4</ele>
        <time>2022-01-24T13:24:24Z</time>
      </trkpt>
      <trkpt lat="46.48887" lon="5.32317">
        <ele>198.6</ele>
        <time>2022-01-24T13:24:26Z</time>
      </trkpt>
      <trkpt lat="46.48866" lon="5.32287">
        <ele>200</ele>
        <time>2022-01-24T13:24:32Z</time>
      </trkpt>
      <trkpt lat="46.48857" lon="5.32274">
        <ele>201.2</ele>
        <time>2022-01-24T13:24:35Z</time>
      </trkpt>
      <trkpt lat="46.48848" lon="5.32262">
        <ele>202.2</ele>
        <time>2022-01-24T13:24:38Z</time>
      </trkpt>
      <trkpt lat="46.48841" lon="5.32246">
        <ele>203.6</ele>
        <time>2022-01-24T13:24:41Z</time>
      </trkpt>
      <trkpt lat="46.48835" lon="5.32228">
        <ele>204.6</ele>
        <time>2022-01-24T13:24:44Z</time>
      </trkpt>
      <trkpt lat="46.48831" lon="5.32214">
        <ele>205</ele>
        <time>2022-01-24T13:24:46Z</time>
      </trkpt>
      <trkpt lat="46.48828" lon="5.3219">
        <ele>205.4</ele>
        <time>2022-01-24T13:24:49Z</time>
      </trkpt>
      <trkpt lat="46.48826" lon="5.32131">
        <ele>205.2</ele>
        <time>2022-01-24T13:24:55Z</time>
      </trkpt>
      <trkpt lat="46.48837" lon="5.3207">
        <ele>204</ele>
        <time>2022-01-24T13:25:01Z</time>
      </trkpt>
      <trkpt lat="46.48843" lon="5.32039">
        <ele>203.6</ele>
        <time>2022-01-24T13:25:04Z</time>
      </trkpt>
      <trkpt lat="46.48849" lon="5.31985">
        <ele>202.8</ele>
        <time>2022-01-24T13:25:09Z</time>
      </trkpt>
      <trkpt lat="46.48848" lon="5.31952">
        <ele>202.4</ele>
        <time>2022-01-24T13:25:12Z</time>
      </trkpt>
      <trkpt lat="46.48846" lon="5.31919">
        <ele>201.6</ele>
        <time>2022-01-24T13:25:15Z</time>
      </trkpt>
      <trkpt lat="46.48843" lon="5.31897">
        <ele>201.2</ele>
        <time>2022-01-24T13:25:17Z</time>
      </trkpt>
      <trkpt lat="46.48841" lon="5.31886">
        <ele>201.2</ele>
        <time>2022-01-24T13:25:18Z</time>
      </trkpt>
      <trkpt lat="46.48833" lon="5.31866">
        <ele>201</ele>
        <time>2022-01-24T13:25:20Z</time>
      </trkpt>
      <trkpt lat="46.4882" lon="5.31854">
        <ele>200.4</ele>
        <time>2022-01-24T13:25:22Z</time>
      </trkpt>
      <trkpt lat="46.48812" lon="5.3185">
        <ele>200.4</ele>
        <time>2022-01-24T13:25:23Z</time>
      </trkpt>
      <trkpt lat="46.48805" lon="5.31848">
        <ele>200.2</ele>
        <time>2022-01-24T13:25:24Z</time>
      </trkpt>
      <trkpt lat="46.48797" lon="5.31844">
        <ele>200.2</ele>
        <time>2022-01-24T13:25:25Z</time>
      </trkpt>
      <trkpt lat="46.48785" lon="5.31831">
        <ele>199.8</ele>
        <time>2022-01-24T13:25:27Z</time>
      </trkpt>
      <trkpt lat="46.4878" lon="5.3181">
        <ele>199.8</ele>
        <time>2022-01-24T13:25:29Z</time>
      </trkpt>
      <trkpt lat="46.4878" lon="5.318">
        <ele>199.8</ele>
        <time>2022-01-24T13:25:30Z</time>
      </trkpt>
      <trkpt lat="46.48775" lon="5.3173">
        <ele>199.8</ele>
        <time>2022-01-24T13:25:37Z</time>
      </trkpt>
      <trkpt lat="46.48768" lon="5.31711">
        <ele>200</ele>
        <time>2022-01-24T13:25:39Z</time>
      </trkpt>
      <trkpt lat="46.48765" lon="5.31706">
        <ele>200</ele>
        <time>2022-01-24T13:25:40Z</time>
      </trkpt>
      <trkpt lat="46.48742" lon="5.31674">
        <ele>200.4</ele>
        <time>2022-01-24T13:25:46Z</time>
      </trkpt>
      <trkpt lat="46.48734" lon="5.31665">
        <ele>200.6</ele>
        <time>2022-01-24T13:25:48Z</time>
      </trkpt>
      <trkpt lat="46.48727" lon="5.31657">
        <ele>201</ele>
        <time>2022-01-24T13:25:50Z</time>
      </trkpt>
      <trkpt lat="46.48724" lon="5.31654">
        <ele>201</ele>
        <time>2022-01-24T13:25:51Z</time>
      </trkpt>
      <trkpt lat="46.48717" lon="5.31645">
        <ele>201</ele>
        <time>2022-01-24T13:25:53Z</time>
      </trkpt>
      <trkpt lat="46.48706" lon="5.31629">
        <ele>201</ele>
        <time>2022-01-24T13:25:56Z</time>
      </trkpt>
      <trkpt lat="46.48693" lon="5.31609">
        <ele>201</ele>
        <time>2022-01-24T13:25:59Z</time>
      </trkpt>
      <trkpt lat="46.48689" lon="5.31602">
        <ele>200.8</ele>
        <time>2022-01-24T13:26:00Z</time>
      </trkpt>
      <trkpt lat="46.48685" lon="5.31594">
        <ele>200.8</ele>
        <time>2022-01-24T13:26:01Z</time>
      </trkpt>
      <trkpt lat="46.48676" lon="5.31581">
        <ele>200.6</ele>
        <time>2022-01-24T13:26:03Z</time>
      </trkpt>
      <trkpt lat="46.48661" lon="5.31561">
        <ele>200.6</ele>
        <time>2022-01-24T13:26:06Z</time>
      </trkpt>
      <trkpt lat="46.48648" lon="5.31551">
        <ele>200.6</ele>
        <time>2022-01-24T13:26:08Z</time>
      </trkpt>
      <trkpt lat="46.48638" lon="5.31539">
        <ele>200.8</ele>
        <time>2022-01-24T13:26:10Z</time>
      </trkpt>
      <trkpt lat="46.48628" lon="5.31525">
        <ele>201</ele>
        <time>2022-01-24T13:26:12Z</time>
      </trkpt>
      <trkpt lat="46.48623" lon="5.31518">
        <ele>201</ele>
        <time>2022-01-24T13:26:13Z</time>
      </trkpt>
      <trkpt lat="46.48611" lon="5.3149">
        <ele>201</ele>
        <time>2022-01-24T13:26:16Z</time>
      </trkpt>
      <trkpt lat="46.48609" lon="5.31481">
        <ele>201</ele>
        <time>2022-01-24T13:26:17Z</time>
      </trkpt>
      <trkpt lat="46.48607" lon="5.31471">
        <ele>200.8</ele>
        <time>2022-01-24T13:26:18Z</time>
      </trkpt>
      <trkpt lat="46.48608" lon="5.31439">
        <ele>200.6</ele>
        <time>2022-01-24T13:26:21Z</time>
      </trkpt>
      <trkpt lat="46.48607" lon="5.31429">
        <ele>200.6</ele>
        <time>2022-01-24T13:26:22Z</time>
      </trkpt>
      <trkpt lat="46.48605" lon="5.31419">
        <ele>200.6</ele>
        <time>2022-01-24T13:26:23Z</time>
      </trkpt>
      <trkpt lat="46.48602" lon="5.31414">
        <ele>200.6</ele>
        <time>2022-01-24T13:26:24Z</time>
      </trkpt>
      <trkpt lat="46.48594" lon="5.31403">
        <ele>200.8</ele>
        <time>2022-01-24T13:26:26Z</time>
      </trkpt>
      <trkpt lat="46.48586" lon="5.31394">
        <ele>201.2</ele>
        <time>2022-01-24T13:26:28Z</time>
      </trkpt>
      <trkpt lat="46.48575" lon="5.31382">
        <ele>202</ele>
        <time>2022-01-24T13:26:31Z</time>
      </trkpt>
      <trkpt lat="46.48572" lon="5.31377">
        <ele>202.2</ele>
        <time>2022-01-24T13:26:32Z</time>
      </trkpt>
      <trkpt lat="46.48568" lon="5.31368">
        <ele>202.6</ele>
        <time>2022-01-24T13:26:34Z</time>
      </trkpt>
      <trkpt lat="46.48565" lon="5.31363">
        <ele>202.6</ele>
        <time>2022-01-24T13:26:35Z</time>
      </trkpt>
      <trkpt lat="46.48563" lon="5.31358">
        <ele>203</ele>
        <time>2022-01-24T13:26:36Z</time>
      </trkpt>
      <trkpt lat="46.48562" lon="5.31352">
        <ele>203.2</ele>
        <time>2022-01-24T13:26:37Z</time>
      </trkpt>
      <trkpt lat="46.48559" lon="5.31342">
        <ele>203.8</ele>
        <time>2022-01-24T13:26:39Z</time>
      </trkpt>
      <trkpt lat="46.48559" lon="5.31337">
        <ele>204.4</ele>
        <time>2022-01-24T13:26:40Z</time>
      </trkpt>
      <trkpt lat="46.48557" lon="5.31321">
        <ele>205.4</ele>
        <time>2022-01-24T13:26:43Z</time>
      </trkpt>
      <trkpt lat="46.48556" lon="5.31302">
        <ele>206.2</ele>
        <time>2022-01-24T13:26:46Z</time>
      </trkpt>
      <trkpt lat="46.48554" lon="5.31281">
        <ele>206.6</ele>
        <time>2022-01-24T13:26:49Z</time>
      </trkpt>
      <trkpt lat="46.48553" lon="5.31252">
        <ele>207.4</ele>
        <time>2022-01-24T13:26:53Z</time>
      </trkpt>
      <trkpt lat="46.48558" lon="5.31232">
        <ele>207.6</ele>
        <time>2022-01-24T13:26:56Z</time>
      </trkpt>
      <trkpt lat="46.48561" lon="5.31226">
        <ele>207.8</ele>
        <time>2022-01-24T13:26:57Z</time>
      </trkpt>
      <trkpt lat="46.48576" lon="5.31193">
        <ele>208.8</ele>
        <time>2022-01-24T13:27:03Z</time>
      </trkpt>
      <trkpt lat="46.48584" lon="5.31177">
        <ele>209.2</ele>
        <time>2022-01-24T13:27:06Z</time>
      </trkpt>
      <trkpt lat="46.48596" lon="5.31151">
        <ele>209.8</ele>
        <time>2022-01-24T13:27:11Z</time>
      </trkpt>
      <trkpt lat="46.48608" lon="5.31125">
        <ele>210.6</ele>
        <time>2022-01-24T13:27:16Z</time>
      </trkpt>
      <trkpt lat="46.48613" lon="5.31114">
        <ele>211</ele>
        <time>2022-01-24T13:27:18Z</time>
      </trkpt>
      <trkpt lat="46.48631" lon="5.31079">
        <ele>212</ele>
        <time>2022-01-24T13:27:25Z</time>
      </trkpt>
      <trkpt lat="46.48636" lon="5.31069">
        <ele>212.2</ele>
        <time>2022-01-24T13:27:27Z</time>
      </trkpt>
      <trkpt lat="46.48649" lon="5.31044">
        <ele>213</ele>
        <time>2022-01-24T13:27:32Z</time>
      </trkpt>
      <trkpt lat="46.48664" lon="5.31012">
        <ele>213.8</ele>
        <time>2022-01-24T13:27:38Z</time>
      </trkpt>
      <trkpt lat="46.48674" lon="5.30991">
        <ele>214.2</ele>
        <time>2022-01-24T13:27:42Z</time>
      </trkpt>
      <trkpt lat="46.48686" lon="5.30967">
        <ele>214.6</ele>
        <time>2022-01-24T13:27:46Z</time>
      </trkpt>
      <trkpt lat="46.48712" lon="5.30919">
        <ele>214.6</ele>
        <time>2022-01-24T13:27:53Z</time>
      </trkpt>
      <trkpt lat="46.48721" lon="5.30904">
        <ele>214.2</ele>
        <time>2022-01-24T13:27:55Z</time>
      </trkpt>
      <trkpt lat="46.48723" lon="5.30894">
        <ele>214</ele>
        <time>2022-01-24T13:27:56Z</time>
      </trkpt>
      <trkpt lat="46.48722" lon="5.30883">
        <ele>213.6</ele>
        <time>2022-01-24T13:27:57Z</time>
      </trkpt>
      <trkpt lat="46.48716" lon="5.30864">
        <ele>212.8</ele>
        <time>2022-01-24T13:27:59Z</time>
      </trkpt>
      <trkpt lat="46.48707" lon="5.30849">
        <ele>212.4</ele>
        <time>2022-01-24T13:28:01Z</time>
      </trkpt>
      <trkpt lat="46.48701" lon="5.30843">
        <ele>212.2</ele>
        <time>2022-01-24T13:28:02Z</time>
      </trkpt>
      <trkpt lat="46.48682" lon="5.30828">
        <ele>211.8</ele>
        <time>2022-01-24T13:28:05Z</time>
      </trkpt>
      <trkpt lat="46.48661" lon="5.30815">
        <ele>210.6</ele>
        <time>2022-01-24T13:28:08Z</time>
      </trkpt>
      <trkpt lat="46.48611" lon="5.3078">
        <ele>209.6</ele>
        <time>2022-01-24T13:28:15Z</time>
      </trkpt>
      <trkpt lat="46.48578" lon="5.30751">
        <ele>208.8</ele>
        <time>2022-01-24T13:28:21Z</time>
      </trkpt>
      <trkpt lat="46.48574" lon="5.30746">
        <ele>209</ele>
        <time>2022-01-24T13:28:22Z</time>
      </trkpt>
      <trkpt lat="46.48565" lon="5.30735">
        <ele>209.4</ele>
        <time>2022-01-24T13:28:24Z</time>
      </trkpt>
      <trkpt lat="46.48561" lon="5.30728">
        <ele>209.6</ele>
        <time>2022-01-24T13:28:25Z</time>
      </trkpt>
      <trkpt lat="46.48551" lon="5.30708">
        <ele>210.2</ele>
        <time>2022-01-24T13:28:28Z</time>
      </trkpt>
      <trkpt lat="46.48548" lon="5.30693">
        <ele>210.6</ele>
        <time>2022-01-24T13:28:30Z</time>
      </trkpt>
      <trkpt lat="46.48545" lon="5.3068">
        <ele>211</ele>
        <time>2022-01-24T13:28:32Z</time>
      </trkpt>
      <trkpt lat="46.48545" lon="5.30666">
        <ele>211.2</ele>
        <time>2022-01-24T13:28:34Z</time>
      </trkpt>
      <trkpt lat="46.48545" lon="5.30659">
        <ele>211.6</ele>
        <time>2022-01-24T13:28:35Z</time>
      </trkpt>
      <trkpt lat="46.48546" lon="5.30652">
        <ele>211.6</ele>
        <time>2022-01-24T13:28:36Z</time>
      </trkpt>
      <trkpt lat="46.48547" lon="5.30633">
        <ele>212.2</ele>
        <time>2022-01-24T13:28:39Z</time>
      </trkpt>
      <trkpt lat="46.48549" lon="5.3062">
        <ele>212.6</ele>
        <time>2022-01-24T13:28:41Z</time>
      </trkpt>
      <trkpt lat="46.4855" lon="5.30613">
        <ele>213</ele>
        <time>2022-01-24T13:28:42Z</time>
      </trkpt>
      <trkpt lat="46.48551" lon="5.306">
        <ele>213.8</ele>
        <time>2022-01-24T13:28:44Z</time>
      </trkpt>
      <trkpt lat="46.48551" lon="5.30594">
        <ele>213.8</ele>
        <time>2022-01-24T13:28:45Z</time>
      </trkpt>
      <trkpt lat="46.48555" lon="5.30568">
        <ele>214.8</ele>
        <time>2022-01-24T13:28:49Z</time>
      </trkpt>
      <trkpt lat="46.48556" lon="5.30556">
        <ele>215</ele>
        <time>2022-01-24T13:28:51Z</time>
      </trkpt>
      <trkpt lat="46.48557" lon="5.30542">
        <ele>215.4</ele>
        <time>2022-01-24T13:28:53Z</time>
      </trkpt>
      <trkpt lat="46.48559" lon="5.30529">
        <ele>215.8</ele>
        <time>2022-01-24T13:28:55Z</time>
      </trkpt>
      <trkpt lat="46.48562" lon="5.3051">
        <ele>216.2</ele>
        <time>2022-01-24T13:28:58Z</time>
      </trkpt>
      <trkpt lat="46.48561" lon="5.30499">
        <ele>216.6</ele>
        <time>2022-01-24T13:29:00Z</time>
      </trkpt>
      <trkpt lat="46.48556" lon="5.30492">
        <ele>216.8</ele>
        <time>2022-01-24T13:29:02Z</time>
      </trkpt>
      <trkpt lat="46.48547" lon="5.30493">
        <ele>216.8</ele>
        <time>2022-01-24T13:29:04Z</time>
      </trkpt>
      <trkpt lat="46.48537" lon="5.30499">
        <ele>217</ele>
        <time>2022-01-24T13:29:06Z</time>
      </trkpt>
      <trkpt lat="46.48503" lon="5.30525">
        <ele>217.6</ele>
        <time>2022-01-24T13:29:13Z</time>
      </trkpt>
      <trkpt lat="46.48465" lon="5.30561">
        <ele>217.8</ele>
        <time>2022-01-24T13:29:20Z</time>
      </trkpt>
      <trkpt lat="46.4842" lon="5.30603">
        <ele>217.2</ele>
        <time>2022-01-24T13:29:28Z</time>
      </trkpt>
      <trkpt lat="46.48373" lon="5.30647">
        <ele>216.6</ele>
        <time>2022-01-24T13:29:36Z</time>
      </trkpt>
      <trkpt lat="46.48332" lon="5.30684">
        <ele>216.2</ele>
        <time>2022-01-24T13:29:43Z</time>
      </trkpt>
      <trkpt lat="46.48326" lon="5.30687">
        <ele>216.2</ele>
        <time>2022-01-24T13:29:44Z</time>
      </trkpt>
      <trkpt lat="46.48292" lon="5.30696">
        <ele>215.8</ele>
        <time>2022-01-24T13:29:49Z</time>
      </trkpt>
      <trkpt lat="46.48255" lon="5.30687">
        <ele>215.8</ele>
        <time>2022-01-24T13:29:55Z</time>
      </trkpt>
      <trkpt lat="46.48227" lon="5.30682">
        <ele>216</ele>
        <time>2022-01-24T13:30:00Z</time>
      </trkpt>
      <trkpt lat="46.4821" lon="5.30684">
        <ele>216.4</ele>
        <time>2022-01-24T13:30:03Z</time>
      </trkpt>
      <trkpt lat="46.482" lon="5.30687">
        <ele>216.4</ele>
        <time>2022-01-24T13:30:05Z</time>
      </trkpt>
      <trkpt lat="46.48164" lon="5.30706">
        <ele>217.8</ele>
        <time>2022-01-24T13:30:12Z</time>
      </trkpt>
      <trkpt lat="46.48122" lon="5.30728">
        <ele>218.6</ele>
        <time>2022-01-24T13:30:20Z</time>
      </trkpt>
      <trkpt lat="46.48111" lon="5.30735">
        <ele>219</ele>
        <time>2022-01-24T13:30:22Z</time>
      </trkpt>
      <trkpt lat="46.48073" lon="5.30755">
        <ele>220</ele>
        <time>2022-01-24T13:30:29Z</time>
      </trkpt>
      <trkpt lat="46.48025" lon="5.30781">
        <ele>220.4</ele>
        <time>2022-01-24T13:30:37Z</time>
      </trkpt>
      <trkpt lat="46.47977" lon="5.30807">
        <ele>219.2</ele>
        <time>2022-01-24T13:30:44Z</time>
      </trkpt>
      <trkpt lat="46.47962" lon="5.30813">
        <ele>219</ele>
        <time>2022-01-24T13:30:46Z</time>
      </trkpt>
      <trkpt lat="46.47939" lon="5.30816">
        <ele>218.8</ele>
        <time>2022-01-24T13:30:49Z</time>
      </trkpt>
      <trkpt lat="46.47914" lon="5.30813">
        <ele>218.4</ele>
        <time>2022-01-24T13:30:53Z</time>
      </trkpt>
      <trkpt lat="46.47887" lon="5.30803">
        <ele>219.4</ele>
        <time>2022-01-24T13:30:59Z</time>
      </trkpt>
      <trkpt lat="46.47878" lon="5.30801">
        <ele>220.2</ele>
        <time>2022-01-24T13:31:01Z</time>
      </trkpt>
      <trkpt lat="46.47856" lon="5.30795">
        <ele>221.6</ele>
        <time>2022-01-24T13:31:06Z</time>
      </trkpt>
      <trkpt lat="46.47852" lon="5.30793">
        <ele>221.8</ele>
        <time>2022-01-24T13:31:07Z</time>
      </trkpt>
      <trkpt lat="46.4784" lon="5.3078">
        <ele>222.8</ele>
        <time>2022-01-24T13:31:10Z</time>
      </trkpt>
      <trkpt lat="46.47835" lon="5.30775">
        <ele>223.2</ele>
        <time>2022-01-24T13:31:11Z</time>
      </trkpt>
      <trkpt lat="46.47824" lon="5.30769">
        <ele>223.4</ele>
        <time>2022-01-24T13:31:13Z</time>
      </trkpt>
      <trkpt lat="46.47792" lon="5.30768">
        <ele>223.4</ele>
        <time>2022-01-24T13:31:17Z</time>
      </trkpt>
      <trkpt lat="46.47746" lon="5.30775">
        <ele>221.6</ele>
        <time>2022-01-24T13:31:23Z</time>
      </trkpt>
      <trkpt lat="46.47726" lon="5.30778">
        <ele>221.4</ele>
        <time>2022-01-24T13:31:26Z</time>
      </trkpt>
      <trkpt lat="46.47682" lon="5.30785">
        <ele>221.4</ele>
        <time>2022-01-24T13:31:33Z</time>
      </trkpt>
      <trkpt lat="46.47626" lon="5.30794">
        <ele>222.2</ele>
        <time>2022-01-24T13:31:42Z</time>
      </trkpt>
      <trkpt lat="46.4762" lon="5.30795">
        <ele>222.2</ele>
        <time>2022-01-24T13:31:43Z</time>
      </trkpt>
      <trkpt lat="46.47563" lon="5.30803">
        <ele>222.2</ele>
        <time>2022-01-24T13:31:52Z</time>
      </trkpt>
      <trkpt lat="46.47557" lon="5.30804">
        <ele>222.2</ele>
        <time>2022-01-24T13:31:53Z</time>
      </trkpt>
      <trkpt lat="46.47513" lon="5.30818">
        <ele>222.2</ele>
        <time>2022-01-24T13:32:00Z</time>
      </trkpt>
      <trkpt lat="46.47465" lon="5.30842">
        <ele>221.8</ele>
        <time>2022-01-24T13:32:07Z</time>
      </trkpt>
      <trkpt lat="46.4741" lon="5.30872">
        <ele>221.4</ele>
        <time>2022-01-24T13:32:15Z</time>
      </trkpt>
      <trkpt lat="46.47353" lon="5.30893">
        <ele>221.2</ele>
        <time>2022-01-24T13:32:23Z</time>
      </trkpt>
      <trkpt lat="46.47346" lon="5.30894">
        <ele>221.2</ele>
        <time>2022-01-24T13:32:24Z</time>
      </trkpt>
      <trkpt lat="46.47335" lon="5.3089">
        <ele>221.2</ele>
        <time>2022-01-24T13:32:26Z</time>
      </trkpt>
      <trkpt lat="46.47329" lon="5.30872">
        <ele>221.2</ele>
        <time>2022-01-24T13:32:28Z</time>
      </trkpt>
      <trkpt lat="46.47327" lon="5.30861">
        <ele>221.2</ele>
        <time>2022-01-24T13:32:29Z</time>
      </trkpt>
      <trkpt lat="46.47322" lon="5.30807">
        <ele>221</ele>
        <time>2022-01-24T13:32:34Z</time>
      </trkpt>
      <trkpt lat="46.47319" lon="5.30729">
        <ele>220.8</ele>
        <time>2022-01-24T13:32:41Z</time>
      </trkpt>
      <trkpt lat="46.47318" lon="5.307">
        <ele>220.8</ele>
        <time>2022-01-24T13:32:44Z</time>
      </trkpt>
      <trkpt lat="46.47315" lon="5.30655">
        <ele>221.2</ele>
        <time>2022-01-24T13:32:49Z</time>
      </trkpt>
      <trkpt lat="46.47313" lon="5.30647">
        <ele>221.4</ele>
        <time>2022-01-24T13:32:50Z</time>
      </trkpt>
      <trkpt lat="46.4731" lon="5.30639">
        <ele>221.6</ele>
        <time>2022-01-24T13:32:51Z</time>
      </trkpt>
      <trkpt lat="46.47301" lon="5.30626">
        <ele>221.8</ele>
        <time>2022-01-24T13:32:53Z</time>
      </trkpt>
      <trkpt lat="46.47268" lon="5.30585">
        <ele>222.2</ele>
        <time>2022-01-24T13:33:00Z</time>
      </trkpt>
      <trkpt lat="46.47256" lon="5.30573">
        <ele>222</ele>
        <time>2022-01-24T13:33:02Z</time>
      </trkpt>
      <trkpt lat="46.47238" lon="5.3056">
        <ele>222</ele>
        <time>2022-01-24T13:33:05Z</time>
      </trkpt>
      <trkpt lat="46.47225" lon="5.30554">
        <ele>221.8</ele>
        <time>2022-01-24T13:33:07Z</time>
      </trkpt>
      <trkpt lat="46.47212" lon="5.30553">
        <ele>221.8</ele>
        <time>2022-01-24T13:33:09Z</time>
      </trkpt>
      <trkpt lat="46.47166" lon="5.30555">
        <ele>221.6</ele>
        <time>2022-01-24T13:33:16Z</time>
      </trkpt>
      <trkpt lat="46.47149" lon="5.30551">
        <ele>221.8</ele>
        <time>2022-01-24T13:33:19Z</time>
      </trkpt>
      <trkpt lat="46.47131" lon="5.30543">
        <ele>222</ele>
        <time>2022-01-24T13:33:22Z</time>
      </trkpt>
      <trkpt lat="46.47091" lon="5.30519">
        <ele>222.6</ele>
        <time>2022-01-24T13:33:29Z</time>
      </trkpt>
      <trkpt lat="46.47085" lon="5.30514">
        <ele>222.8</ele>
        <time>2022-01-24T13:33:30Z</time>
      </trkpt>
      <trkpt lat="46.47051" lon="5.30484">
        <ele>222.8</ele>
        <time>2022-01-24T13:33:36Z</time>
      </trkpt>
      <trkpt lat="46.47007" lon="5.30447">
        <ele>222.2</ele>
        <time>2022-01-24T13:33:43Z</time>
      </trkpt>
      <trkpt lat="46.46956" lon="5.30407">
        <ele>221.8</ele>
        <time>2022-01-24T13:33:51Z</time>
      </trkpt>
      <trkpt lat="46.46949" lon="5.30403">
        <ele>221.8</ele>
        <time>2022-01-24T13:33:52Z</time>
      </trkpt>
      <trkpt lat="46.46901" lon="5.30384">
        <ele>221.4</ele>
        <time>2022-01-24T13:33:59Z</time>
      </trkpt>
      <trkpt lat="46.46865" lon="5.30361">
        <ele>221.4</ele>
        <time>2022-01-24T13:34:05Z</time>
      </trkpt>
      <trkpt lat="46.4683" lon="5.30318">
        <ele>221.8</ele>
        <time>2022-01-24T13:34:12Z</time>
      </trkpt>
      <trkpt lat="46.46786" lon="5.30265">
        <ele>222</ele>
        <time>2022-01-24T13:34:21Z</time>
      </trkpt>
      <trkpt lat="46.46777" lon="5.30253">
        <ele>222.2</ele>
        <time>2022-01-24T13:34:23Z</time>
      </trkpt>
      <trkpt lat="46.46744" lon="5.30212">
        <ele>222.4</ele>
        <time>2022-01-24T13:34:30Z</time>
      </trkpt>
      <trkpt lat="46.4674" lon="5.30204">
        <ele>222.4</ele>
        <time>2022-01-24T13:34:31Z</time>
      </trkpt>
      <trkpt lat="46.46726" lon="5.30159">
        <ele>222.4</ele>
        <time>2022-01-24T13:34:36Z</time>
      </trkpt>
      <trkpt lat="46.46708" lon="5.3009">
        <ele>221.8</ele>
        <time>2022-01-24T13:34:43Z</time>
      </trkpt>
      <trkpt lat="46.46697" lon="5.30077">
        <ele>221.6</ele>
        <time>2022-01-24T13:34:45Z</time>
      </trkpt>
      <trkpt lat="46.46691" lon="5.30074">
        <ele>221.6</ele>
        <time>2022-01-24T13:34:46Z</time>
      </trkpt>
      <trkpt lat="46.4665" lon="5.30058">
        <ele>221.4</ele>
        <time>2022-01-24T13:34:52Z</time>
      </trkpt>
      <trkpt lat="46.46643" lon="5.30056">
        <ele>221.4</ele>
        <time>2022-01-24T13:34:53Z</time>
      </trkpt>
      <trkpt lat="46.46637" lon="5.30056">
        <ele>221.4</ele>
        <time>2022-01-24T13:34:54Z</time>
      </trkpt>
      <trkpt lat="46.46609" lon="5.30059">
        <ele>221.6</ele>
        <time>2022-01-24T13:34:58Z</time>
      </trkpt>
      <trkpt lat="46.46594" lon="5.3006">
        <ele>221.8</ele>
        <time>2022-01-24T13:35:00Z</time>
      </trkpt>
      <trkpt lat="46.46562" lon="5.30058">
        <ele>221.8</ele>
        <time>2022-01-24T13:35:04Z</time>
      </trkpt>
      <trkpt lat="46.46504" lon="5.30058">
        <ele>220.6</ele>
        <time>2022-01-24T13:35:11Z</time>
      </trkpt>
      <trkpt lat="46.46496" lon="5.30057">
        <ele>220.4</ele>
        <time>2022-01-24T13:35:12Z</time>
      </trkpt>
      <trkpt lat="46.46461" lon="5.30051">
        <ele>219.2</ele>
        <time>2022-01-24T13:35:16Z</time>
      </trkpt>
      <trkpt lat="46.46444" lon="5.30049">
        <ele>218.8</ele>
        <time>2022-01-24T13:35:18Z</time>
      </trkpt>
      <trkpt lat="46.46419" lon="5.3005">
        <ele>218.2</ele>
        <time>2022-01-24T13:35:21Z</time>
      </trkpt>
      <trkpt lat="46.46401" lon="5.30055">
        <ele>217.6</ele>
        <time>2022-01-24T13:35:23Z</time>
      </trkpt>
      <trkpt lat="46.46383" lon="5.30059">
        <ele>217</ele>
        <time>2022-01-24T13:35:25Z</time>
      </trkpt>
      <trkpt lat="46.46354" lon="5.30065">
        <ele>216</ele>
        <time>2022-01-24T13:35:28Z</time>
      </trkpt>
      <trkpt lat="46.46344" lon="5.30065">
        <ele>215.4</ele>
        <time>2022-01-24T13:35:29Z</time>
      </trkpt>
      <trkpt lat="46.46333" lon="5.30066">
        <ele>214.8</ele>
        <time>2022-01-24T13:35:30Z</time>
      </trkpt>
      <trkpt lat="46.46302" lon="5.30062">
        <ele>213.4</ele>
        <time>2022-01-24T13:35:33Z</time>
      </trkpt>
      <trkpt lat="46.46291" lon="5.30061">
        <ele>212.6</ele>
        <time>2022-01-24T13:35:34Z</time>
      </trkpt>
      <trkpt lat="46.4628" lon="5.3006">
        <ele>212.2</ele>
        <time>2022-01-24T13:35:35Z</time>
      </trkpt>
      <trkpt lat="46.46249" lon="5.30057">
        <ele>210.8</ele>
        <time>2022-01-24T13:35:38Z</time>
      </trkpt>
      <trkpt lat="46.46236" lon="5.30056">
        <ele>209.8</ele>
        <time>2022-01-24T13:35:39Z</time>
      </trkpt>
      <trkpt lat="46.46225" lon="5.30054">
        <ele>209.4</ele>
        <time>2022-01-24T13:35:40Z</time>
      </trkpt>
      <trkpt lat="46.46203" lon="5.30049">
        <ele>208.4</ele>
        <time>2022-01-24T13:35:42Z</time>
      </trkpt>
      <trkpt lat="46.46193" lon="5.30043">
        <ele>207.2</ele>
        <time>2022-01-24T13:35:43Z</time>
      </trkpt>
      <trkpt lat="46.46184" lon="5.30035">
        <ele>206.8</ele>
        <time>2022-01-24T13:35:44Z</time>
      </trkpt>
      <trkpt lat="46.46176" lon="5.30025">
        <ele>206</ele>
        <time>2022-01-24T13:35:45Z</time>
      </trkpt>
      <trkpt lat="46.46169" lon="5.30016">
        <ele>205.4</ele>
        <time>2022-01-24T13:35:46Z</time>
      </trkpt>
      <trkpt lat="46.46163" lon="5.30007">
        <ele>204.4</ele>
        <time>2022-01-24T13:35:47Z</time>
      </trkpt>
      <trkpt lat="46.46152" lon="5.2999">
        <ele>203.2</ele>
        <time>2022-01-24T13:35:49Z</time>
      </trkpt>
      <trkpt lat="46.46148" lon="5.29983">
        <ele>202.6</ele>
        <time>2022-01-24T13:35:50Z</time>
      </trkpt>
      <trkpt lat="46.46146" lon="5.29979">
        <ele>202.4</ele>
        <time>2022-01-24T13:35:51Z</time>
      </trkpt>
      <trkpt lat="46.46143" lon="5.29977">
        <ele>201.8</ele>
        <time>2022-01-24T13:35:52Z</time>
      </trkpt>
      <trkpt lat="46.4614" lon="5.29977">
        <ele>201.6</ele>
        <time>2022-01-24T13:35:53Z</time>
      </trkpt>
      <trkpt lat="46.46134" lon="5.29983">
        <ele>200.4</ele>
        <time>2022-01-24T13:35:55Z</time>
      </trkpt>
      <trkpt lat="46.46129" lon="5.29995">
        <ele>199.8</ele>
        <time>2022-01-24T13:35:57Z</time>
      </trkpt>
      <trkpt lat="46.46124" lon="5.30012">
        <ele>199.4</ele>
        <time>2022-01-24T13:35:59Z</time>
      </trkpt>
      <trkpt lat="46.46119" lon="5.3003">
        <ele>199.2</ele>
        <time>2022-01-24T13:36:01Z</time>
      </trkpt>
      <trkpt lat="46.46092" lon="5.30107">
        <ele>199.4</ele>
        <time>2022-01-24T13:36:10Z</time>
      </trkpt>
      <trkpt lat="46.46084" lon="5.30132">
        <ele>199.8</ele>
        <time>2022-01-24T13:36:13Z</time>
      </trkpt>
      <trkpt lat="46.46075" lon="5.3016">
        <ele>200.6</ele>
        <time>2022-01-24T13:36:17Z</time>
      </trkpt>
      <trkpt lat="46.46071" lon="5.30171">
        <ele>201.4</ele>
        <time>2022-01-24T13:36:19Z</time>
      </trkpt>
      <trkpt lat="46.4607" lon="5.30176">
        <ele>201.6</ele>
        <time>2022-01-24T13:36:20Z</time>
      </trkpt>
      <trkpt lat="46.46066" lon="5.30188">
        <ele>201.8</ele>
        <time>2022-01-24T13:36:22Z</time>
      </trkpt>
      <trkpt lat="46.46058" lon="5.30209">
        <ele>202.8</ele>
        <time>2022-01-24T13:36:26Z</time>
      </trkpt>
      <trkpt lat="46.46056" lon="5.30214">
        <ele>202.8</ele>
        <time>2022-01-24T13:36:27Z</time>
      </trkpt>
      <trkpt lat="46.46049" lon="5.30236">
        <ele>204</ele>
        <time>2022-01-24T13:36:31Z</time>
      </trkpt>
      <trkpt lat="46.46042" lon="5.30259">
        <ele>204.6</ele>
        <time>2022-01-24T13:36:35Z</time>
      </trkpt>
      <trkpt lat="46.46035" lon="5.30283">
        <ele>205.2</ele>
        <time>2022-01-24T13:36:39Z</time>
      </trkpt>
      <trkpt lat="46.46023" lon="5.30314">
        <ele>206.4</ele>
        <time>2022-01-24T13:36:45Z</time>
      </trkpt>
      <trkpt lat="46.46021" lon="5.30319">
        <ele>206.6</ele>
        <time>2022-01-24T13:36:46Z</time>
      </trkpt>
      <trkpt lat="46.46013" lon="5.30345">
        <ele>207.6</ele>
        <time>2022-01-24T13:36:51Z</time>
      </trkpt>
      <trkpt lat="46.46009" lon="5.30354">
        <ele>208</ele>
        <time>2022-01-24T13:36:53Z</time>
      </trkpt>
      <trkpt lat="46.46004" lon="5.30367">
        <ele>208.6</ele>
        <time>2022-01-24T13:36:56Z</time>
      </trkpt>
      <trkpt lat="46.45998" lon="5.30372">
        <ele>209.2</ele>
        <time>2022-01-24T13:36:58Z</time>
      </trkpt>
      <trkpt lat="46.45995" lon="5.30372">
        <ele>209.4</ele>
        <time>2022-01-24T13:36:59Z</time>
      </trkpt>
      <trkpt lat="46.45988" lon="5.30371">
        <ele>209.8</ele>
        <time>2022-01-24T13:37:01Z</time>
      </trkpt>
      <trkpt lat="46.45984" lon="5.30369">
        <ele>209.8</ele>
        <time>2022-01-24T13:37:02Z</time>
      </trkpt>
      <trkpt lat="46.4597" lon="5.30361">
        <ele>210.8</ele>
        <time>2022-01-24T13:37:06Z</time>
      </trkpt>
      <trkpt lat="46.45963" lon="5.30357">
        <ele>211.2</ele>
        <time>2022-01-24T13:37:08Z</time>
      </trkpt>
      <trkpt lat="46.45951" lon="5.3035">
        <ele>211.8</ele>
        <time>2022-01-24T13:37:11Z</time>
      </trkpt>
      <trkpt lat="46.45932" lon="5.3034">
        <ele>212.6</ele>
        <time>2022-01-24T13:37:16Z</time>
      </trkpt>
      <trkpt lat="46.45909" lon="5.30326">
        <ele>212.6</ele>
        <time>2022-01-24T13:37:21Z</time>
      </trkpt>
      <trkpt lat="46.45904" lon="5.30324">
        <ele>212.6</ele>
        <time>2022-01-24T13:37:22Z</time>
      </trkpt>
      <trkpt lat="46.45886" lon="5.30314">
        <ele>212.4</ele>
        <time>2022-01-24T13:37:25Z</time>
      </trkpt>
      <trkpt lat="46.45874" lon="5.30307">
        <ele>212</ele>
        <time>2022-01-24T13:37:27Z</time>
      </trkpt>
      <trkpt lat="46.45852" lon="5.30299">
        <ele>211.4</ele>
        <time>2022-01-24T13:37:30Z</time>
      </trkpt>
      <trkpt lat="46.45837" lon="5.30299">
        <ele>210.6</ele>
        <time>2022-01-24T13:37:32Z</time>
      </trkpt>
      <trkpt lat="46.45821" lon="5.30307">
        <ele>210</ele>
        <time>2022-01-24T13:37:34Z</time>
      </trkpt>
      <trkpt lat="46.45813" lon="5.30312">
        <ele>209.8</ele>
        <time>2022-01-24T13:37:35Z</time>
      </trkpt>
      <trkpt lat="46.45806" lon="5.30319">
        <ele>209.4</ele>
        <time>2022-01-24T13:37:36Z</time>
      </trkpt>
      <trkpt lat="46.45785" lon="5.30341">
        <ele>208.4</ele>
        <time>2022-01-24T13:37:39Z</time>
      </trkpt>
      <trkpt lat="46.45771" lon="5.30356">
        <ele>207.4</ele>
        <time>2022-01-24T13:37:41Z</time>
      </trkpt>
      <trkpt lat="46.45739" lon="5.30388">
        <ele>206</ele>
        <time>2022-01-24T13:37:45Z</time>
      </trkpt>
      <trkpt lat="46.45732" lon="5.30397">
        <ele>205.6</ele>
        <time>2022-01-24T13:37:46Z</time>
      </trkpt>
      <trkpt lat="46.45723" lon="5.30405">
        <ele>204.8</ele>
        <time>2022-01-24T13:37:47Z</time>
      </trkpt>
      <trkpt lat="46.45705" lon="5.30421">
        <ele>203.8</ele>
        <time>2022-01-24T13:37:49Z</time>
      </trkpt>
      <trkpt lat="46.45695" lon="5.30426">
        <ele>203</ele>
        <time>2022-01-24T13:37:50Z</time>
      </trkpt>
      <trkpt lat="46.45684" lon="5.3043">
        <ele>202.6</ele>
        <time>2022-01-24T13:37:51Z</time>
      </trkpt>
      <trkpt lat="46.45674" lon="5.30433">
        <ele>202</ele>
        <time>2022-01-24T13:37:52Z</time>
      </trkpt>
      <trkpt lat="46.45664" lon="5.30433">
        <ele>201.8</ele>
        <time>2022-01-24T13:37:53Z</time>
      </trkpt>
      <trkpt lat="46.45654" lon="5.30432">
        <ele>201</ele>
        <time>2022-01-24T13:37:54Z</time>
      </trkpt>
      <trkpt lat="46.45635" lon="5.30427">
        <ele>200.2</ele>
        <time>2022-01-24T13:37:56Z</time>
      </trkpt>
      <trkpt lat="46.45626" lon="5.30423">
        <ele>199.6</ele>
        <time>2022-01-24T13:37:57Z</time>
      </trkpt>
      <trkpt lat="46.4561" lon="5.30411">
        <ele>198.6</ele>
        <time>2022-01-24T13:37:59Z</time>
      </trkpt>
      <trkpt lat="46.45602" lon="5.30404">
        <ele>198.4</ele>
        <time>2022-01-24T13:38:00Z</time>
      </trkpt>
      <trkpt lat="46.45583" lon="5.30383">
        <ele>198</ele>
        <time>2022-01-24T13:38:03Z</time>
      </trkpt>
      <trkpt lat="46.45552" lon="5.30352">
        <ele>197.6</ele>
        <time>2022-01-24T13:38:08Z</time>
      </trkpt>
      <trkpt lat="46.45545" lon="5.30347">
        <ele>197.6</ele>
        <time>2022-01-24T13:38:09Z</time>
      </trkpt>
      <trkpt lat="46.45538" lon="5.30345">
        <ele>197.6</ele>
        <time>2022-01-24T13:38:10Z</time>
      </trkpt>
      <trkpt lat="46.45524" lon="5.30343">
        <ele>197.6</ele>
        <time>2022-01-24T13:38:12Z</time>
      </trkpt>
      <trkpt lat="46.45517" lon="5.30343">
        <ele>197.6</ele>
        <time>2022-01-24T13:38:13Z</time>
      </trkpt>
      <trkpt lat="46.45476" lon="5.30348">
        <ele>197.6</ele>
        <time>2022-01-24T13:38:19Z</time>
      </trkpt>
      <trkpt lat="46.45433" lon="5.30337">
        <ele>197.8</ele>
        <time>2022-01-24T13:38:26Z</time>
      </trkpt>
      <trkpt lat="46.45384" lon="5.30322">
        <ele>198.2</ele>
        <time>2022-01-24T13:38:34Z</time>
      </trkpt>
      <trkpt lat="46.45367" lon="5.30321">
        <ele>198.4</ele>
        <time>2022-01-24T13:38:37Z</time>
      </trkpt>
      <trkpt lat="46.45355" lon="5.30324">
        <ele>198.4</ele>
        <time>2022-01-24T13:38:39Z</time>
      </trkpt>
      <trkpt lat="46.45324" lon="5.30343">
        <ele>199.2</ele>
        <time>2022-01-24T13:38:45Z</time>
      </trkpt>
      <trkpt lat="46.45308" lon="5.3035">
        <ele>199.4</ele>
        <time>2022-01-24T13:38:48Z</time>
      </trkpt>
      <trkpt lat="46.45302" lon="5.3035">
        <ele>199.4</ele>
        <time>2022-01-24T13:38:49Z</time>
      </trkpt>
      <trkpt lat="46.45297" lon="5.3035">
        <ele>199.6</ele>
        <time>2022-01-24T13:38:50Z</time>
      </trkpt>
      <trkpt lat="46.45259" lon="5.30342">
        <ele>200</ele>
        <time>2022-01-24T13:38:57Z</time>
      </trkpt>
      <trkpt lat="46.45219" lon="5.30332">
        <ele>200.4</ele>
        <time>2022-01-24T13:39:04Z</time>
      </trkpt>
      <trkpt lat="46.45202" lon="5.30333">
        <ele>200.4</ele>
        <time>2022-01-24T13:39:07Z</time>
      </trkpt>
      <trkpt lat="46.45198" lon="5.30335">
        <ele>200.8</ele>
        <time>2022-01-24T13:39:08Z</time>
      </trkpt>
      <trkpt lat="46.45192" lon="5.30338">
        <ele>200.8</ele>
        <time>2022-01-24T13:39:09Z</time>
      </trkpt>
      <trkpt lat="46.45183" lon="5.30346">
        <ele>201</ele>
        <time>2022-01-24T13:39:11Z</time>
      </trkpt>
      <trkpt lat="46.4518" lon="5.3035">
        <ele>201</ele>
        <time>2022-01-24T13:39:12Z</time>
      </trkpt>
      <trkpt lat="46.45177" lon="5.30355">
        <ele>201.2</ele>
        <time>2022-01-24T13:39:13Z</time>
      </trkpt>
      <trkpt lat="46.45166" lon="5.30377">
        <ele>201.8</ele>
        <time>2022-01-24T13:39:17Z</time>
      </trkpt>
      <trkpt lat="46.45163" lon="5.30387">
        <ele>202.2</ele>
        <time>2022-01-24T13:39:19Z</time>
      </trkpt>
      <trkpt lat="46.45157" lon="5.30405">
        <ele>203</ele>
        <time>2022-01-24T13:39:22Z</time>
      </trkpt>
      <trkpt lat="46.45145" lon="5.30439">
        <ele>203.8</ele>
        <time>2022-01-24T13:39:28Z</time>
      </trkpt>
      <trkpt lat="46.4514" lon="5.30451">
        <ele>204</ele>
        <time>2022-01-24T13:39:30Z</time>
      </trkpt>
      <trkpt lat="46.45131" lon="5.30471">
        <ele>205.2</ele>
        <time>2022-01-24T13:39:34Z</time>
      </trkpt>
      <trkpt lat="46.45128" lon="5.30476">
        <ele>205.2</ele>
        <time>2022-01-24T13:39:35Z</time>
      </trkpt>
      <trkpt lat="46.45124" lon="5.30482">
        <ele>205.6</ele>
        <time>2022-01-24T13:39:36Z</time>
      </trkpt>
      <trkpt lat="46.4512" lon="5.30487">
        <ele>205.6</ele>
        <time>2022-01-24T13:39:37Z</time>
      </trkpt>
      <trkpt lat="46.45109" lon="5.30495">
        <ele>206.2</ele>
        <time>2022-01-24T13:39:40Z</time>
      </trkpt>
      <trkpt lat="46.45104" lon="5.30497">
        <ele>206.2</ele>
        <time>2022-01-24T13:39:41Z</time>
      </trkpt>
      <trkpt lat="46.451" lon="5.30498">
        <ele>206.4</ele>
        <time>2022-01-24T13:39:42Z</time>
      </trkpt>
      <trkpt lat="46.45089" lon="5.30497">
        <ele>206.8</ele>
        <time>2022-01-24T13:39:45Z</time>
      </trkpt>
      <trkpt lat="46.45085" lon="5.30496">
        <ele>207</ele>
        <time>2022-01-24T13:39:46Z</time>
      </trkpt>
      <trkpt lat="46.45077" lon="5.30495">
        <ele>207.4</ele>
        <time>2022-01-24T13:39:48Z</time>
      </trkpt>
      <trkpt lat="46.45061" lon="5.30491">
        <ele>208.6</ele>
        <time>2022-01-24T13:39:52Z</time>
      </trkpt>
      <trkpt lat="46.45057" lon="5.3049">
        <ele>208.8</ele>
        <time>2022-01-24T13:39:53Z</time>
      </trkpt>
      <trkpt lat="46.45038" lon="5.30488">
        <ele>210</ele>
        <time>2022-01-24T13:39:58Z</time>
      </trkpt>
      <trkpt lat="46.45027" lon="5.30486">
        <ele>210.8</ele>
        <time>2022-01-24T13:40:01Z</time>
      </trkpt>
      <trkpt lat="46.4502" lon="5.30485">
        <ele>211.2</ele>
        <time>2022-01-24T13:40:03Z</time>
      </trkpt>
      <trkpt lat="46.45" lon="5.30484">
        <ele>212</ele>
        <time>2022-01-24T13:40:08Z</time>
      </trkpt>
      <trkpt lat="46.44996" lon="5.30485">
        <ele>212.2</ele>
        <time>2022-01-24T13:40:09Z</time>
      </trkpt>
      <trkpt lat="46.44974" lon="5.30492">
        <ele>213.4</ele>
        <time>2022-01-24T13:40:14Z</time>
      </trkpt>
      <trkpt lat="46.44922" lon="5.3051">
        <ele>214.4</ele>
        <time>2022-01-24T13:40:25Z</time>
      </trkpt>
      <trkpt lat="46.44885" lon="5.30515">
        <ele>214.8</ele>
        <time>2022-01-24T13:40:33Z</time>
      </trkpt>
      <trkpt lat="46.44877" lon="5.30516">
        <ele>215.4</ele>
        <time>2022-01-24T13:40:35Z</time>
      </trkpt>
      <trkpt lat="46.44864" lon="5.30516">
        <ele>216</ele>
        <time>2022-01-24T13:40:38Z</time>
      </trkpt>
      <trkpt lat="46.44852" lon="5.30516">
        <ele>216.6</ele>
        <time>2022-01-24T13:40:41Z</time>
      </trkpt>
      <trkpt lat="46.44828" lon="5.30515">
        <ele>217.6</ele>
        <time>2022-01-24T13:40:47Z</time>
      </trkpt>
      <trkpt lat="46.44817" lon="5.30516">
        <ele>218.2</ele>
        <time>2022-01-24T13:40:50Z</time>
      </trkpt>
      <trkpt lat="46.44799" lon="5.30516">
        <ele>218.6</ele>
        <time>2022-01-24T13:40:54Z</time>
      </trkpt>
      <trkpt lat="46.44771" lon="5.30517">
        <ele>219.8</ele>
        <time>2022-01-24T13:41:00Z</time>
      </trkpt>
      <trkpt lat="46.4473" lon="5.30518">
        <ele>220.2</ele>
        <time>2022-01-24T13:41:08Z</time>
      </trkpt>
      <trkpt lat="46.44714" lon="5.30518">
        <ele>220.2</ele>
        <time>2022-01-24T13:41:11Z</time>
      </trkpt>
      <trkpt lat="46.44692" lon="5.30519">
        <ele>220.2</ele>
        <time>2022-01-24T13:41:15Z</time>
      </trkpt>
      <trkpt lat="46.44644" lon="5.30517">
        <ele>220.4</ele>
        <time>2022-01-24T13:41:24Z</time>
      </trkpt>
      <trkpt lat="46.44629" lon="5.30517">
        <ele>220.6</ele>
        <time>2022-01-24T13:41:27Z</time>
      </trkpt>
      <trkpt lat="46.44583" lon="5.30519">
        <ele>221.2</ele>
        <time>2022-01-24T13:41:36Z</time>
      </trkpt>
      <trkpt lat="46.44568" lon="5.30523">
        <ele>221.6</ele>
        <time>2022-01-24T13:41:39Z</time>
      </trkpt>
      <trkpt lat="46.4456" lon="5.30526">
        <ele>221.8</ele>
        <time>2022-01-24T13:41:41Z</time>
      </trkpt>
      <trkpt lat="46.44553" lon="5.30529">
        <ele>222.2</ele>
        <time>2022-01-24T13:41:43Z</time>
      </trkpt>
      <trkpt lat="46.44543" lon="5.30536">
        <ele>222.6</ele>
        <time>2022-01-24T13:41:46Z</time>
      </trkpt>
      <trkpt lat="46.44532" lon="5.30543">
        <ele>223.4</ele>
        <time>2022-01-24T13:41:49Z</time>
      </trkpt>
      <trkpt lat="46.44517" lon="5.30551">
        <ele>223.8</ele>
        <time>2022-01-24T13:41:52Z</time>
      </trkpt>
      <trkpt lat="46.44507" lon="5.30556">
        <ele>224.2</ele>
        <time>2022-01-24T13:41:54Z</time>
      </trkpt>
      <trkpt lat="46.44468" lon="5.30567">
        <ele>224.8</ele>
        <time>2022-01-24T13:42:01Z</time>
      </trkpt>
      <trkpt lat="46.4444" lon="5.30565">
        <ele>225</ele>
        <time>2022-01-24T13:42:06Z</time>
      </trkpt>
      <trkpt lat="46.44428" lon="5.30568">
        <ele>225</ele>
        <time>2022-01-24T13:42:08Z</time>
      </trkpt>
      <trkpt lat="46.44401" lon="5.30587">
        <ele>225.4</ele>
        <time>2022-01-24T13:42:13Z</time>
      </trkpt>
      <trkpt lat="46.44396" lon="5.30591">
        <ele>225.6</ele>
        <time>2022-01-24T13:42:14Z</time>
      </trkpt>
      <trkpt lat="46.44374" lon="5.30601">
        <ele>225.8</ele>
        <time>2022-01-24T13:42:18Z</time>
      </trkpt>
      <trkpt lat="46.44367" lon="5.30604">
        <ele>226</ele>
        <time>2022-01-24T13:42:19Z</time>
      </trkpt>
      <trkpt lat="46.44356" lon="5.30603">
        <ele>226</ele>
        <time>2022-01-24T13:42:21Z</time>
      </trkpt>
      <trkpt lat="46.44345" lon="5.30598">
        <ele>226</ele>
        <time>2022-01-24T13:42:23Z</time>
      </trkpt>
      <trkpt lat="46.44337" lon="5.30597">
        <ele>226</ele>
        <time>2022-01-24T13:42:24Z</time>
      </trkpt>
      <trkpt lat="46.44325" lon="5.30598">
        <ele>226.2</ele>
        <time>2022-01-24T13:42:26Z</time>
      </trkpt>
      <trkpt lat="46.4432" lon="5.306">
        <ele>226.2</ele>
        <time>2022-01-24T13:42:27Z</time>
      </trkpt>
      <trkpt lat="46.44315" lon="5.30603">
        <ele>226.2</ele>
        <time>2022-01-24T13:42:28Z</time>
      </trkpt>
      <trkpt lat="46.44296" lon="5.30622">
        <ele>226.4</ele>
        <time>2022-01-24T13:42:32Z</time>
      </trkpt>
      <trkpt lat="46.44257" lon="5.30656">
        <ele>226.6</ele>
        <time>2022-01-24T13:42:40Z</time>
      </trkpt>
      <trkpt lat="46.44215" lon="5.30668">
        <ele>226.8</ele>
        <time>2022-01-24T13:42:47Z</time>
      </trkpt>
      <trkpt lat="46.44162" lon="5.30671">
        <ele>226.8</ele>
        <time>2022-01-24T13:42:56Z</time>
      </trkpt>
      <trkpt lat="46.44123" lon="5.30654">
        <ele>226.8</ele>
        <time>2022-01-24T13:43:03Z</time>
      </trkpt>
      <trkpt lat="46.44079" lon="5.30622">
        <ele>227.2</ele>
        <time>2022-01-24T13:43:11Z</time>
      </trkpt>
      <trkpt lat="46.44073" lon="5.30619">
        <ele>227.2</ele>
        <time>2022-01-24T13:43:12Z</time>
      </trkpt>
      <trkpt lat="46.44067" lon="5.30618">
        <ele>227.2</ele>
        <time>2022-01-24T13:43:13Z</time>
      </trkpt>
      <trkpt lat="46.44054" lon="5.30622">
        <ele>227.2</ele>
        <time>2022-01-24T13:43:15Z</time>
      </trkpt>
      <trkpt lat="46.44021" lon="5.30647">
        <ele>227.2</ele>
        <time>2022-01-24T13:43:21Z</time>
      </trkpt>
      <trkpt lat="46.44012" lon="5.30657">
        <ele>227.2</ele>
        <time>2022-01-24T13:43:23Z</time>
      </trkpt>
      <trkpt lat="46.44001" lon="5.30666">
        <ele>227</ele>
        <time>2022-01-24T13:43:25Z</time>
      </trkpt>
      <trkpt lat="46.43997" lon="5.30669">
        <ele>227</ele>
        <time>2022-01-24T13:43:26Z</time>
      </trkpt>
      <trkpt lat="46.43991" lon="5.3067">
        <ele>226.8</ele>
        <time>2022-01-24T13:43:27Z</time>
      </trkpt>
      <trkpt lat="46.43987" lon="5.30667">
        <ele>226.6</ele>
        <time>2022-01-24T13:43:28Z</time>
      </trkpt>
      <trkpt lat="46.43985" lon="5.30654">
        <ele>226.6</ele>
        <time>2022-01-24T13:43:30Z</time>
      </trkpt>
      <trkpt lat="46.43986" lon="5.30647">
        <ele>226.6</ele>
        <time>2022-01-24T13:43:31Z</time>
      </trkpt>
      <trkpt lat="46.4399" lon="5.30633">
        <ele>226.6</ele>
        <time>2022-01-24T13:43:33Z</time>
      </trkpt>
      <trkpt lat="46.43992" lon="5.30625">
        <ele>226.6</ele>
        <time>2022-01-24T13:43:34Z</time>
      </trkpt>
      <trkpt lat="46.43995" lon="5.30562">
        <ele>227</ele>
        <time>2022-01-24T13:43:41Z</time>
      </trkpt>
      <trkpt lat="46.43989" lon="5.30487">
        <ele>227.4</ele>
        <time>2022-01-24T13:43:49Z</time>
      </trkpt>
      <trkpt lat="46.43982" lon="5.30409">
        <ele>227.4</ele>
        <time>2022-01-24T13:43:57Z</time>
      </trkpt>
      <trkpt lat="46.43981" lon="5.304">
        <ele>227.2</ele>
        <time>2022-01-24T13:43:58Z</time>
      </trkpt>
      <trkpt lat="46.43974" lon="5.30321">
        <ele>229.2</ele>
        <time>2022-01-24T13:44:06Z</time>
      </trkpt>
      <trkpt lat="46.43958" lon="5.30257">
        <ele>226.2</ele>
        <time>2022-01-24T13:44:13Z</time>
      </trkpt>
      <trkpt lat="46.43945" lon="5.30203">
        <ele>225.8</ele>
        <time>2022-01-24T13:44:19Z</time>
      </trkpt>
      <trkpt lat="46.43938" lon="5.30178">
        <ele>225.8</ele>
        <time>2022-01-24T13:44:22Z</time>
      </trkpt>
      <trkpt lat="46.43915" lon="5.30103">
        <ele>225.6</ele>
        <time>2022-01-24T13:44:31Z</time>
      </trkpt>
      <trkpt lat="46.43889" lon="5.3004">
        <ele>225.8</ele>
        <time>2022-01-24T13:44:39Z</time>
      </trkpt>
      <trkpt lat="46.43885" lon="5.30034">
        <ele>225.8</ele>
        <time>2022-01-24T13:44:40Z</time>
      </trkpt>
      <trkpt lat="46.43859" lon="5.30008">
        <ele>225.8</ele>
        <time>2022-01-24T13:44:45Z</time>
      </trkpt>
      <trkpt lat="46.43807" lon="5.29972">
        <ele>225.8</ele>
        <time>2022-01-24T13:44:54Z</time>
      </trkpt>
      <trkpt lat="46.43795" lon="5.29964">
        <ele>225.8</ele>
        <time>2022-01-24T13:44:56Z</time>
      </trkpt>
      <trkpt lat="46.43755" lon="5.29934">
        <ele>226</ele>
        <time>2022-01-24T13:45:03Z</time>
      </trkpt>
      <trkpt lat="46.43744" lon="5.29927">
        <ele>226</ele>
        <time>2022-01-24T13:45:05Z</time>
      </trkpt>
      <trkpt lat="46.43729" lon="5.29926">
        <ele>226</ele>
        <time>2022-01-24T13:45:07Z</time>
      </trkpt>
      <trkpt lat="46.43715" lon="5.29927">
        <ele>225.8</ele>
        <time>2022-01-24T13:45:09Z</time>
      </trkpt>
      <trkpt lat="46.43687" lon="5.29926">
        <ele>225.6</ele>
        <time>2022-01-24T13:45:13Z</time>
      </trkpt>
      <trkpt lat="46.43633" lon="5.29922">
        <ele>225.4</ele>
        <time>2022-01-24T13:45:21Z</time>
      </trkpt>
      <trkpt lat="46.43626" lon="5.29922">
        <ele>225.4</ele>
        <time>2022-01-24T13:45:22Z</time>
      </trkpt>
      <trkpt lat="46.43579" lon="5.29923">
        <ele>225.4</ele>
        <time>2022-01-24T13:45:29Z</time>
      </trkpt>
      <trkpt lat="46.43572" lon="5.29924">
        <ele>225.4</ele>
        <time>2022-01-24T13:45:30Z</time>
      </trkpt>
      <trkpt lat="46.43559" lon="5.2993">
        <ele>225.2</ele>
        <time>2022-01-24T13:45:32Z</time>
      </trkpt>
      <trkpt lat="46.43551" lon="5.29936">
        <ele>225.2</ele>
        <time>2022-01-24T13:45:33Z</time>
      </trkpt>
      <trkpt lat="46.43516" lon="5.29967">
        <ele>224.4</ele>
        <time>2022-01-24T13:45:37Z</time>
      </trkpt>
      <trkpt lat="46.43507" lon="5.29975">
        <ele>223.8</ele>
        <time>2022-01-24T13:45:38Z</time>
      </trkpt>
      <trkpt lat="46.43497" lon="5.29983">
        <ele>222.6</ele>
        <time>2022-01-24T13:45:39Z</time>
      </trkpt>
      <trkpt lat="46.43478" lon="5.3">
        <ele>221.2</ele>
        <time>2022-01-24T13:45:41Z</time>
      </trkpt>
      <trkpt lat="46.43469" lon="5.30006">
        <ele>220.6</ele>
        <time>2022-01-24T13:45:42Z</time>
      </trkpt>
      <trkpt lat="46.43456" lon="5.30011">
        <ele>219.6</ele>
        <time>2022-01-24T13:45:43Z</time>
      </trkpt>
      <trkpt lat="46.43445" lon="5.30012">
        <ele>219.2</ele>
        <time>2022-01-24T13:45:44Z</time>
      </trkpt>
      <trkpt lat="46.43433" lon="5.30011">
        <ele>218</ele>
        <time>2022-01-24T13:45:45Z</time>
      </trkpt>
      <trkpt lat="46.43421" lon="5.30011">
        <ele>216.8</ele>
        <time>2022-01-24T13:45:46Z</time>
      </trkpt>
      <trkpt lat="46.43409" lon="5.30011">
        <ele>216.4</ele>
        <time>2022-01-24T13:45:47Z</time>
      </trkpt>
      <trkpt lat="46.43398" lon="5.30012">
        <ele>215</ele>
        <time>2022-01-24T13:45:48Z</time>
      </trkpt>
      <trkpt lat="46.43377" lon="5.30017">
        <ele>214</ele>
        <time>2022-01-24T13:45:50Z</time>
      </trkpt>
      <trkpt lat="46.43357" lon="5.30026">
        <ele>212.8</ele>
        <time>2022-01-24T13:45:52Z</time>
      </trkpt>
      <trkpt lat="46.43337" lon="5.30034">
        <ele>211.6</ele>
        <time>2022-01-24T13:45:54Z</time>
      </trkpt>
      <trkpt lat="46.43326" lon="5.30036">
        <ele>211</ele>
        <time>2022-01-24T13:45:55Z</time>
      </trkpt>
      <trkpt lat="46.433" lon="5.30036">
        <ele>210.2</ele>
        <time>2022-01-24T13:45:57Z</time>
      </trkpt>
      <trkpt lat="46.43275" lon="5.3004">
        <ele>209</ele>
        <time>2022-01-24T13:45:59Z</time>
      </trkpt>
      <trkpt lat="46.43264" lon="5.30043">
        <ele>208.2</ele>
        <time>2022-01-24T13:46:00Z</time>
      </trkpt>
      <trkpt lat="46.43253" lon="5.30043">
        <ele>206.8</ele>
        <time>2022-01-24T13:46:01Z</time>
      </trkpt>
      <trkpt lat="46.43244" lon="5.30041">
        <ele>206.2</ele>
        <time>2022-01-24T13:46:02Z</time>
      </trkpt>
      <trkpt lat="46.43228" lon="5.30033">
        <ele>206</ele>
        <time>2022-01-24T13:46:04Z</time>
      </trkpt>
      <trkpt lat="46.43216" lon="5.30027">
        <ele>205.8</ele>
        <time>2022-01-24T13:46:06Z</time>
      </trkpt>
      <trkpt lat="46.43205" lon="5.30023">
        <ele>206.4</ele>
        <time>2022-01-24T13:46:08Z</time>
      </trkpt>
      <trkpt lat="46.43196" lon="5.30022">
        <ele>208</ele>
        <time>2022-01-24T13:46:10Z</time>
      </trkpt>
      <trkpt lat="46.4319" lon="5.30021">
        <ele>209</ele>
        <time>2022-01-24T13:46:11Z</time>
      </trkpt>
      <trkpt lat="46.43182" lon="5.3002">
        <ele>210.2</ele>
        <time>2022-01-24T13:46:13Z</time>
      </trkpt>
      <trkpt lat="46.43178" lon="5.3002">
        <ele>210.6</ele>
        <time>2022-01-24T13:46:14Z</time>
      </trkpt>
      <trkpt lat="46.43171" lon="5.30019">
        <ele>211.4</ele>
        <time>2022-01-24T13:46:16Z</time>
      </trkpt>
      <trkpt lat="46.43159" lon="5.30019">
        <ele>212.8</ele>
        <time>2022-01-24T13:46:19Z</time>
      </trkpt>
      <trkpt lat="46.43148" lon="5.30017">
        <ele>214.2</ele>
        <time>2022-01-24T13:46:22Z</time>
      </trkpt>
      <trkpt lat="46.43134" lon="5.30013">
        <ele>215.8</ele>
        <time>2022-01-24T13:46:26Z</time>
      </trkpt>
      <trkpt lat="46.43123" lon="5.30009">
        <ele>217</ele>
        <time>2022-01-24T13:46:29Z</time>
      </trkpt>
      <trkpt lat="46.4312" lon="5.30008">
        <ele>217.4</ele>
        <time>2022-01-24T13:46:30Z</time>
      </trkpt>
      <trkpt lat="46.43114" lon="5.30004">
        <ele>218</ele>
        <time>2022-01-24T13:46:32Z</time>
      </trkpt>
      <trkpt lat="46.431" lon="5.29999">
        <ele>219.2</ele>
        <time>2022-01-24T13:46:36Z</time>
      </trkpt>
      <trkpt lat="46.43089" lon="5.29995">
        <ele>220.2</ele>
        <time>2022-01-24T13:46:39Z</time>
      </trkpt>
      <trkpt lat="46.4307" lon="5.29992">
        <ele>221.2</ele>
        <time>2022-01-24T13:46:44Z</time>
      </trkpt>
      <trkpt lat="46.43066" lon="5.29992">
        <ele>221.4</ele>
        <time>2022-01-24T13:46:45Z</time>
      </trkpt>
      <trkpt lat="46.43053" lon="5.29993">
        <ele>221.6</ele>
        <time>2022-01-24T13:46:48Z</time>
      </trkpt>
      <trkpt lat="46.43039" lon="5.29998">
        <ele>221.8</ele>
        <time>2022-01-24T13:46:51Z</time>
      </trkpt>
      <trkpt lat="46.43017" lon="5.30005">
        <ele>222.2</ele>
        <time>2022-01-24T13:46:56Z</time>
      </trkpt>
      <trkpt lat="46.42998" lon="5.3001">
        <ele>222.4</ele>
        <time>2022-01-24T13:47:00Z</time>
      </trkpt>
      <trkpt lat="46.42964" lon="5.30013">
        <ele>223.2</ele>
        <time>2022-01-24T13:47:07Z</time>
      </trkpt>
      <trkpt lat="46.42944" lon="5.30012">
        <ele>223.6</ele>
        <time>2022-01-24T13:47:11Z</time>
      </trkpt>
      <trkpt lat="46.42892" lon="5.30008">
        <ele>224.2</ele>
        <time>2022-01-24T13:47:21Z</time>
      </trkpt>
      <trkpt lat="46.42881" lon="5.30006">
        <ele>224.4</ele>
        <time>2022-01-24T13:47:23Z</time>
      </trkpt>
      <trkpt lat="46.42842" lon="5.30001">
        <ele>225</ele>
        <time>2022-01-24T13:47:30Z</time>
      </trkpt>
      <trkpt lat="46.42825" lon="5.30003">
        <ele>225</ele>
        <time>2022-01-24T13:47:33Z</time>
      </trkpt>
      <trkpt lat="46.42814" lon="5.30007">
        <ele>225</ele>
        <time>2022-01-24T13:47:35Z</time>
      </trkpt>
      <trkpt lat="46.4281" lon="5.30009">
        <ele>225</ele>
        <time>2022-01-24T13:47:36Z</time>
      </trkpt>
      <trkpt lat="46.42805" lon="5.30013">
        <ele>225</ele>
        <time>2022-01-24T13:47:37Z</time>
      </trkpt>
      <trkpt lat="46.428" lon="5.30017">
        <ele>225.2</ele>
        <time>2022-01-24T13:47:38Z</time>
      </trkpt>
      <trkpt lat="46.42791" lon="5.30026">
        <ele>225.4</ele>
        <time>2022-01-24T13:47:40Z</time>
      </trkpt>
      <trkpt lat="46.42777" lon="5.30041">
        <ele>226</ele>
        <time>2022-01-24T13:47:43Z</time>
      </trkpt>
      <trkpt lat="46.42761" lon="5.30054">
        <ele>226.2</ele>
        <time>2022-01-24T13:47:46Z</time>
      </trkpt>
      <trkpt lat="46.42755" lon="5.30058">
        <ele>226.2</ele>
        <time>2022-01-24T13:47:47Z</time>
      </trkpt>
      <trkpt lat="46.42744" lon="5.30063">
        <ele>226.2</ele>
        <time>2022-01-24T13:47:49Z</time>
      </trkpt>
      <trkpt lat="46.42732" lon="5.30068">
        <ele>226.4</ele>
        <time>2022-01-24T13:47:51Z</time>
      </trkpt>
      <trkpt lat="46.42691" lon="5.30088">
        <ele>226.8</ele>
        <time>2022-01-24T13:47:58Z</time>
      </trkpt>
      <trkpt lat="46.4265" lon="5.30104">
        <ele>227.2</ele>
        <time>2022-01-24T13:48:05Z</time>
      </trkpt>
      <trkpt lat="46.42644" lon="5.30107">
        <ele>227.2</ele>
        <time>2022-01-24T13:48:06Z</time>
      </trkpt>
      <trkpt lat="46.42603" lon="5.30124">
        <ele>227.6</ele>
        <time>2022-01-24T13:48:13Z</time>
      </trkpt>
      <trkpt lat="46.42553" lon="5.30144">
        <ele>227.6</ele>
        <time>2022-01-24T13:48:22Z</time>
      </trkpt>
      <trkpt lat="46.4252" lon="5.3016">
        <ele>227.4</ele>
        <time>2022-01-24T13:48:28Z</time>
      </trkpt>
      <trkpt lat="46.42515" lon="5.30163">
        <ele>227.4</ele>
        <time>2022-01-24T13:48:29Z</time>
      </trkpt>
      <trkpt lat="46.42504" lon="5.30161">
        <ele>227.2</ele>
        <time>2022-01-24T13:48:31Z</time>
      </trkpt>
      <trkpt lat="46.42485" lon="5.30135">
        <ele>226.6</ele>
        <time>2022-01-24T13:48:35Z</time>
      </trkpt>
      <trkpt lat="46.4247" lon="5.30112">
        <ele>226</ele>
        <time>2022-01-24T13:48:38Z</time>
      </trkpt>
      <trkpt lat="46.42453" lon="5.30087">
        <ele>225.4</ele>
        <time>2022-01-24T13:48:41Z</time>
      </trkpt>
      <trkpt lat="46.42429" lon="5.30054">
        <ele>224.8</ele>
        <time>2022-01-24T13:48:45Z</time>
      </trkpt>
      <trkpt lat="46.42415" lon="5.30038">
        <ele>224</ele>
        <time>2022-01-24T13:48:47Z</time>
      </trkpt>
      <trkpt lat="46.42408" lon="5.30031">
        <ele>223.4</ele>
        <time>2022-01-24T13:48:48Z</time>
      </trkpt>
      <trkpt lat="46.42385" lon="5.30009">
        <ele>221.8</ele>
        <time>2022-01-24T13:48:51Z</time>
      </trkpt>
      <trkpt lat="46.42369" lon="5.29996">
        <ele>220.8</ele>
        <time>2022-01-24T13:48:53Z</time>
      </trkpt>
      <trkpt lat="46.4236" lon="5.29988">
        <ele>220.6</ele>
        <time>2022-01-24T13:48:54Z</time>
      </trkpt>
      <trkpt lat="46.42331" lon="5.29967">
        <ele>218.8</ele>
        <time>2022-01-24T13:48:57Z</time>
      </trkpt>
      <trkpt lat="46.42312" lon="5.29952">
        <ele>217.4</ele>
        <time>2022-01-24T13:48:59Z</time>
      </trkpt>
      <trkpt lat="46.42293" lon="5.29936">
        <ele>216</ele>
        <time>2022-01-24T13:49:01Z</time>
      </trkpt>
      <trkpt lat="46.42273" lon="5.29921">
        <ele>214.8</ele>
        <time>2022-01-24T13:49:03Z</time>
      </trkpt>
      <trkpt lat="46.42252" lon="5.29905">
        <ele>213.8</ele>
        <time>2022-01-24T13:49:05Z</time>
      </trkpt>
      <trkpt lat="46.42242" lon="5.29897">
        <ele>212.6</ele>
        <time>2022-01-24T13:49:06Z</time>
      </trkpt>
      <trkpt lat="46.42221" lon="5.29881">
        <ele>211.4</ele>
        <time>2022-01-24T13:49:08Z</time>
      </trkpt>
      <trkpt lat="46.42211" lon="5.29872">
        <ele>210.4</ele>
        <time>2022-01-24T13:49:09Z</time>
      </trkpt>
      <trkpt lat="46.4219" lon="5.29854">
        <ele>209.2</ele>
        <time>2022-01-24T13:49:11Z</time>
      </trkpt>
      <trkpt lat="46.4217" lon="5.29836">
        <ele>207</ele>
        <time>2022-01-24T13:49:13Z</time>
      </trkpt>
      <trkpt lat="46.42149" lon="5.29816">
        <ele>205.6</ele>
        <time>2022-01-24T13:49:15Z</time>
      </trkpt>
      <trkpt lat="46.42136" lon="5.29799">
        <ele>204</ele>
        <time>2022-01-24T13:49:17Z</time>
      </trkpt>
      <trkpt lat="46.42118" lon="5.29773">
        <ele>203.2</ele>
        <time>2022-01-24T13:49:20Z</time>
      </trkpt>
      <trkpt lat="46.42113" lon="5.29765">
        <ele>203.2</ele>
        <time>2022-01-24T13:49:21Z</time>
      </trkpt>
      <trkpt lat="46.42091" lon="5.29734">
        <ele>204.4</ele>
        <time>2022-01-24T13:49:26Z</time>
      </trkpt>
      <trkpt lat="46.42081" lon="5.29718">
        <ele>205.4</ele>
        <time>2022-01-24T13:49:29Z</time>
      </trkpt>
      <trkpt lat="46.42069" lon="5.29701">
        <ele>206.8</ele>
        <time>2022-01-24T13:49:33Z</time>
      </trkpt>
      <trkpt lat="46.4206" lon="5.29688">
        <ele>208.2</ele>
        <time>2022-01-24T13:49:36Z</time>
      </trkpt>
      <trkpt lat="46.42047" lon="5.29671">
        <ele>209.2</ele>
        <time>2022-01-24T13:49:40Z</time>
      </trkpt>
      <trkpt lat="46.42044" lon="5.29667">
        <ele>209.4</ele>
        <time>2022-01-24T13:49:41Z</time>
      </trkpt>
      <trkpt lat="46.42035" lon="5.29656">
        <ele>210.4</ele>
        <time>2022-01-24T13:49:44Z</time>
      </trkpt>
      <trkpt lat="46.42021" lon="5.29636">
        <ele>211.4</ele>
        <time>2022-01-24T13:49:49Z</time>
      </trkpt>
      <trkpt lat="46.42011" lon="5.29619">
        <ele>212.6</ele>
        <time>2022-01-24T13:49:53Z</time>
      </trkpt>
      <trkpt lat="46.42006" lon="5.29613">
        <ele>213.4</ele>
        <time>2022-01-24T13:49:55Z</time>
      </trkpt>
      <trkpt lat="46.42004" lon="5.29609">
        <ele>213.6</ele>
        <time>2022-01-24T13:49:56Z</time>
      </trkpt>
      <trkpt lat="46.41995" lon="5.29594">
        <ele>214.6</ele>
        <time>2022-01-24T13:50:00Z</time>
      </trkpt>
      <trkpt lat="46.41992" lon="5.2959">
        <ele>214.8</ele>
        <time>2022-01-24T13:50:01Z</time>
      </trkpt>
      <trkpt lat="46.41983" lon="5.29578">
        <ele>215.8</ele>
        <time>2022-01-24T13:50:05Z</time>
      </trkpt>
      <trkpt lat="46.4198" lon="5.29574">
        <ele>216</ele>
        <time>2022-01-24T13:50:06Z</time>
      </trkpt>
      <trkpt lat="46.41971" lon="5.2956">
        <ele>217</ele>
        <time>2022-01-24T13:50:10Z</time>
      </trkpt>
      <trkpt lat="46.41964" lon="5.29548">
        <ele>217.8</ele>
        <time>2022-01-24T13:50:13Z</time>
      </trkpt>
      <trkpt lat="46.41963" lon="5.29545">
        <ele>218.2</ele>
        <time>2022-01-24T13:50:14Z</time>
      </trkpt>
      <trkpt lat="46.41954" lon="5.29526">
        <ele>219.2</ele>
        <time>2022-01-24T13:50:19Z</time>
      </trkpt>
      <trkpt lat="46.4195" lon="5.29512">
        <ele>219.8</ele>
        <time>2022-01-24T13:50:22Z</time>
      </trkpt>
      <trkpt lat="46.41948" lon="5.29505">
        <ele>220.2</ele>
        <time>2022-01-24T13:50:24Z</time>
      </trkpt>
      <trkpt lat="46.41941" lon="5.29483">
        <ele>221.4</ele>
        <time>2022-01-24T13:50:29Z</time>
      </trkpt>
      <trkpt lat="46.41938" lon="5.29471">
        <ele>222.2</ele>
        <time>2022-01-24T13:50:32Z</time>
      </trkpt>
      <trkpt lat="46.41935" lon="5.29463">
        <ele>222.8</ele>
        <time>2022-01-24T13:50:34Z</time>
      </trkpt>
      <trkpt lat="46.41925" lon="5.29432">
        <ele>224</ele>
        <time>2022-01-24T13:50:40Z</time>
      </trkpt>
      <trkpt lat="46.41923" lon="5.29428">
        <ele>224.2</ele>
        <time>2022-01-24T13:50:41Z</time>
      </trkpt>
      <trkpt lat="46.41912" lon="5.29395">
        <ele>224.8</ele>
        <time>2022-01-24T13:50:47Z</time>
      </trkpt>
      <trkpt lat="46.41908" lon="5.29383">
        <ele>225</ele>
        <time>2022-01-24T13:50:49Z</time>
      </trkpt>
      <trkpt lat="46.41893" lon="5.29341">
        <ele>225</ele>
        <time>2022-01-24T13:50:56Z</time>
      </trkpt>
      <trkpt lat="46.41881" lon="5.29307">
        <ele>225.2</ele>
        <time>2022-01-24T13:51:01Z</time>
      </trkpt>
      <trkpt lat="46.41878" lon="5.29299">
        <ele>225.2</ele>
        <time>2022-01-24T13:51:02Z</time>
      </trkpt>
      <trkpt lat="46.41859" lon="5.29244">
        <ele>225.2</ele>
        <time>2022-01-24T13:51:09Z</time>
      </trkpt>
      <trkpt lat="46.41834" lon="5.29174">
        <ele>224.6</ele>
        <time>2022-01-24T13:51:17Z</time>
      </trkpt>
      <trkpt lat="46.4183" lon="5.29165">
        <ele>224.6</ele>
        <time>2022-01-24T13:51:18Z</time>
      </trkpt>
      <trkpt lat="46.4181" lon="5.29113">
        <ele>224</ele>
        <time>2022-01-24T13:51:24Z</time>
      </trkpt>
      <trkpt lat="46.41795" lon="5.29079">
        <ele>223.6</ele>
        <time>2022-01-24T13:51:28Z</time>
      </trkpt>
      <trkpt lat="46.4177" lon="5.2904">
        <ele>222.8</ele>
        <time>2022-01-24T13:51:33Z</time>
      </trkpt>
      <trkpt lat="46.41764" lon="5.29033">
        <ele>222.8</ele>
        <time>2022-01-24T13:51:34Z</time>
      </trkpt>
      <trkpt lat="46.41728" lon="5.28999">
        <ele>221.8</ele>
        <time>2022-01-24T13:51:39Z</time>
      </trkpt>
      <trkpt lat="46.41702" lon="5.28978">
        <ele>220.6</ele>
        <time>2022-01-24T13:51:42Z</time>
      </trkpt>
      <trkpt lat="46.41688" lon="5.28962">
        <ele>219.6</ele>
        <time>2022-01-24T13:51:44Z</time>
      </trkpt>
      <trkpt lat="46.41679" lon="5.2895">
        <ele>219.2</ele>
        <time>2022-01-24T13:51:45Z</time>
      </trkpt>
      <trkpt lat="46.41665" lon="5.28928">
        <ele>217.8</ele>
        <time>2022-01-24T13:51:47Z</time>
      </trkpt>
      <trkpt lat="46.4166" lon="5.28917">
        <ele>217.2</ele>
        <time>2022-01-24T13:51:48Z</time>
      </trkpt>
      <trkpt lat="46.41654" lon="5.28901">
        <ele>217</ele>
        <time>2022-01-24T13:51:49Z</time>
      </trkpt>
      <trkpt lat="46.41649" lon="5.28887">
        <ele>216.6</ele>
        <time>2022-01-24T13:51:50Z</time>
      </trkpt>
      <trkpt lat="46.41646" lon="5.28872">
        <ele>215.4</ele>
        <time>2022-01-24T13:51:51Z</time>
      </trkpt>
      <trkpt lat="46.41641" lon="5.28845">
        <ele>214.2</ele>
        <time>2022-01-24T13:51:53Z</time>
      </trkpt>
      <trkpt lat="46.41636" lon="5.28795">
        <ele>213.2</ele>
        <time>2022-01-24T13:51:56Z</time>
      </trkpt>
      <trkpt lat="46.41636" lon="5.28779">
        <ele>212.4</ele>
        <time>2022-01-24T13:51:57Z</time>
      </trkpt>
      <trkpt lat="46.41637" lon="5.28751">
        <ele>211.2</ele>
        <time>2022-01-24T13:51:59Z</time>
      </trkpt>
      <trkpt lat="46.4164" lon="5.28732">
        <ele>210</ele>
        <time>2022-01-24T13:52:00Z</time>
      </trkpt>
      <trkpt lat="46.41646" lon="5.28688">
        <ele>209.2</ele>
        <time>2022-01-24T13:52:03Z</time>
      </trkpt>
      <trkpt lat="46.41647" lon="5.28673">
        <ele>207.8</ele>
        <time>2022-01-24T13:52:04Z</time>
      </trkpt>
      <trkpt lat="46.41648" lon="5.28657">
        <ele>207.6</ele>
        <time>2022-01-24T13:52:05Z</time>
      </trkpt>
      <trkpt lat="46.41647" lon="5.28641">
        <ele>207</ele>
        <time>2022-01-24T13:52:06Z</time>
      </trkpt>
      <trkpt lat="46.41643" lon="5.28623">
        <ele>206.2</ele>
        <time>2022-01-24T13:52:07Z</time>
      </trkpt>
      <trkpt lat="46.4164" lon="5.28611">
        <ele>205.2</ele>
        <time>2022-01-24T13:52:08Z</time>
      </trkpt>
      <trkpt lat="46.41634" lon="5.28597">
        <ele>204.8</ele>
        <time>2022-01-24T13:52:09Z</time>
      </trkpt>
      <trkpt lat="46.41629" lon="5.28583">
        <ele>204</ele>
        <time>2022-01-24T13:52:10Z</time>
      </trkpt>
      <trkpt lat="46.41613" lon="5.28539">
        <ele>202.4</ele>
        <time>2022-01-24T13:52:13Z</time>
      </trkpt>
      <trkpt lat="46.41604" lon="5.28514">
        <ele>201.4</ele>
        <time>2022-01-24T13:52:15Z</time>
      </trkpt>
      <trkpt lat="46.4159" lon="5.28475">
        <ele>199.8</ele>
        <time>2022-01-24T13:52:18Z</time>
      </trkpt>
      <trkpt lat="46.4158" lon="5.2845">
        <ele>199.4</ele>
        <time>2022-01-24T13:52:20Z</time>
      </trkpt>
      <trkpt lat="46.41562" lon="5.28399">
        <ele>198.6</ele>
        <time>2022-01-24T13:52:24Z</time>
      </trkpt>
      <trkpt lat="46.41543" lon="5.28344">
        <ele>197.4</ele>
        <time>2022-01-24T13:52:28Z</time>
      </trkpt>
      <trkpt lat="46.41538" lon="5.28332">
        <ele>197.2</ele>
        <time>2022-01-24T13:52:29Z</time>
      </trkpt>
      <trkpt lat="46.41517" lon="5.28275">
        <ele>196.4</ele>
        <time>2022-01-24T13:52:34Z</time>
      </trkpt>
      <trkpt lat="46.41514" lon="5.28265">
        <ele>196.2</ele>
        <time>2022-01-24T13:52:35Z</time>
      </trkpt>
      <trkpt lat="46.41488" lon="5.28192">
        <ele>195.6</ele>
        <time>2022-01-24T13:52:42Z</time>
      </trkpt>
      <trkpt lat="46.41461" lon="5.28115">
        <ele>195.4</ele>
        <time>2022-01-24T13:52:50Z</time>
      </trkpt>
      <trkpt lat="46.41457" lon="5.28106">
        <ele>195.4</ele>
        <time>2022-01-24T13:52:51Z</time>
      </trkpt>
      <trkpt lat="46.41454" lon="5.28096">
        <ele>195.4</ele>
        <time>2022-01-24T13:52:52Z</time>
      </trkpt>
      <trkpt lat="46.41431" lon="5.28033">
        <ele>195.4</ele>
        <time>2022-01-24T13:52:59Z</time>
      </trkpt>
      <trkpt lat="46.41416" lon="5.27993">
        <ele>195.6</ele>
        <time>2022-01-24T13:53:04Z</time>
      </trkpt>
      <trkpt lat="46.41392" lon="5.27925">
        <ele>196.2</ele>
        <time>2022-01-24T13:53:13Z</time>
      </trkpt>
      <trkpt lat="46.41385" lon="5.27906">
        <ele>196.6</ele>
        <time>2022-01-24T13:53:16Z</time>
      </trkpt>
      <trkpt lat="46.41379" lon="5.2789">
        <ele>197.4</ele>
        <time>2022-01-24T13:53:19Z</time>
      </trkpt>
      <trkpt lat="46.41377" lon="5.27884">
        <ele>197.6</ele>
        <time>2022-01-24T13:53:20Z</time>
      </trkpt>
      <trkpt lat="46.41368" lon="5.27857">
        <ele>198.8</ele>
        <time>2022-01-24T13:53:25Z</time>
      </trkpt>
      <trkpt lat="46.41364" lon="5.27846">
        <ele>199.4</ele>
        <time>2022-01-24T13:53:27Z</time>
      </trkpt>
      <trkpt lat="46.4136" lon="5.27837">
        <ele>200.2</ele>
        <time>2022-01-24T13:53:29Z</time>
      </trkpt>
      <trkpt lat="46.41353" lon="5.27813">
        <ele>201.4</ele>
        <time>2022-01-24T13:53:34Z</time>
      </trkpt>
      <trkpt lat="46.41352" lon="5.27809">
        <ele>201.8</ele>
        <time>2022-01-24T13:53:35Z</time>
      </trkpt>
      <trkpt lat="46.41348" lon="5.27799">
        <ele>202.4</ele>
        <time>2022-01-24T13:53:37Z</time>
      </trkpt>
      <trkpt lat="46.41343" lon="5.27785">
        <ele>203.6</ele>
        <time>2022-01-24T13:53:40Z</time>
      </trkpt>
      <trkpt lat="46.41338" lon="5.27771">
        <ele>204.2</ele>
        <time>2022-01-24T13:53:43Z</time>
      </trkpt>
      <trkpt lat="46.41334" lon="5.27762">
        <ele>205</ele>
        <time>2022-01-24T13:53:45Z</time>
      </trkpt>
      <trkpt lat="46.41328" lon="5.27745">
        <ele>206</ele>
        <time>2022-01-24T13:53:49Z</time>
      </trkpt>
      <trkpt lat="46.41326" lon="5.27741">
        <ele>206.2</ele>
        <time>2022-01-24T13:53:50Z</time>
      </trkpt>
      <trkpt lat="46.41322" lon="5.27729">
        <ele>207.2</ele>
        <time>2022-01-24T13:53:53Z</time>
      </trkpt>
      <trkpt lat="46.41316" lon="5.27714">
        <ele>208</ele>
        <time>2022-01-24T13:53:57Z</time>
      </trkpt>
      <trkpt lat="46.41315" lon="5.27711">
        <ele>208.2</ele>
        <time>2022-01-24T13:53:58Z</time>
      </trkpt>
      <trkpt lat="46.41308" lon="5.27692">
        <ele>209.4</ele>
        <time>2022-01-24T13:54:03Z</time>
      </trkpt>
      <trkpt lat="46.41305" lon="5.27681">
        <ele>209.8</ele>
        <time>2022-01-24T13:54:06Z</time>
      </trkpt>
      <trkpt lat="46.413" lon="5.27667">
        <ele>210.6</ele>
        <time>2022-01-24T13:54:10Z</time>
      </trkpt>
      <trkpt lat="46.41293" lon="5.27646">
        <ele>211.6</ele>
        <time>2022-01-24T13:54:15Z</time>
      </trkpt>
      <trkpt lat="46.41292" lon="5.27643">
        <ele>212</ele>
        <time>2022-01-24T13:54:16Z</time>
      </trkpt>
      <trkpt lat="46.41287" lon="5.27621">
        <ele>213.2</ele>
        <time>2022-01-24T13:54:21Z</time>
      </trkpt>
      <trkpt lat="46.41286" lon="5.27617">
        <ele>213.2</ele>
        <time>2022-01-24T13:54:22Z</time>
      </trkpt>
      <trkpt lat="46.41281" lon="5.27584">
        <ele>214.2</ele>
        <time>2022-01-24T13:54:28Z</time>
      </trkpt>
      <trkpt lat="46.4128" lon="5.27578">
        <ele>214.4</ele>
        <time>2022-01-24T13:54:29Z</time>
      </trkpt>
      <trkpt lat="46.41276" lon="5.27539">
        <ele>214.6</ele>
        <time>2022-01-24T13:54:35Z</time>
      </trkpt>
      <trkpt lat="46.41269" lon="5.27481">
        <ele>214.4</ele>
        <time>2022-01-24T13:54:42Z</time>
      </trkpt>
      <trkpt lat="46.4126" lon="5.27397">
        <ele>213.8</ele>
        <time>2022-01-24T13:54:52Z</time>
      </trkpt>
      <trkpt lat="46.41255" lon="5.27351">
        <ele>214.6</ele>
        <time>2022-01-24T13:54:59Z</time>
      </trkpt>
      <trkpt lat="46.41252" lon="5.27331">
        <ele>215.2</ele>
        <time>2022-01-24T13:55:02Z</time>
      </trkpt>
      <trkpt lat="46.41249" lon="5.27308">
        <ele>216.2</ele>
        <time>2022-01-24T13:55:06Z</time>
      </trkpt>
      <trkpt lat="46.41249" lon="5.27303">
        <ele>216.4</ele>
        <time>2022-01-24T13:55:07Z</time>
      </trkpt>
      <trkpt lat="46.41245" lon="5.2727">
        <ele>217.6</ele>
        <time>2022-01-24T13:55:13Z</time>
      </trkpt>
      <trkpt lat="46.41242" lon="5.27247">
        <ele>218.6</ele>
        <time>2022-01-24T13:55:17Z</time>
      </trkpt>
      <trkpt lat="46.4124" lon="5.27225">
        <ele>219.2</ele>
        <time>2022-01-24T13:55:21Z</time>
      </trkpt>
      <trkpt lat="46.41239" lon="5.27208">
        <ele>219.8</ele>
        <time>2022-01-24T13:55:24Z</time>
      </trkpt>
      <trkpt lat="46.41235" lon="5.27166">
        <ele>221</ele>
        <time>2022-01-24T13:55:31Z</time>
      </trkpt>
      <trkpt lat="46.41229" lon="5.27123">
        <ele>222.2</ele>
        <time>2022-01-24T13:55:38Z</time>
      </trkpt>
      <trkpt lat="46.41224" lon="5.27098">
        <ele>222.6</ele>
        <time>2022-01-24T13:55:42Z</time>
      </trkpt>
      <trkpt lat="46.41214" lon="5.27056">
        <ele>223.2</ele>
        <time>2022-01-24T13:55:48Z</time>
      </trkpt>
      <trkpt lat="46.4121" lon="5.27042">
        <ele>223.4</ele>
        <time>2022-01-24T13:55:50Z</time>
      </trkpt>
      <trkpt lat="46.41199" lon="5.2698">
        <ele>223.4</ele>
        <time>2022-01-24T13:55:58Z</time>
      </trkpt>
      <trkpt lat="46.41202" lon="5.26914">
        <ele>223.4</ele>
        <time>2022-01-24T13:56:06Z</time>
      </trkpt>
      <trkpt lat="46.41211" lon="5.26894">
        <ele>223</ele>
        <time>2022-01-24T13:56:09Z</time>
      </trkpt>
      <trkpt lat="46.41213" lon="5.26886">
        <ele>222.8</ele>
        <time>2022-01-24T13:56:10Z</time>
      </trkpt>
      <trkpt lat="46.41215" lon="5.26876">
        <ele>222.8</ele>
        <time>2022-01-24T13:56:11Z</time>
      </trkpt>
      <trkpt lat="46.41212" lon="5.2686">
        <ele>222.6</ele>
        <time>2022-01-24T13:56:13Z</time>
      </trkpt>
      <trkpt lat="46.41204" lon="5.26851">
        <ele>222.4</ele>
        <time>2022-01-24T13:56:15Z</time>
      </trkpt>
      <trkpt lat="46.41197" lon="5.26847">
        <ele>222.4</ele>
        <time>2022-01-24T13:56:16Z</time>
      </trkpt>
      <trkpt lat="46.41185" lon="5.2684">
        <ele>222.2</ele>
        <time>2022-01-24T13:56:18Z</time>
      </trkpt>
      <trkpt lat="46.41163" lon="5.26821">
        <ele>221.8</ele>
        <time>2022-01-24T13:56:22Z</time>
      </trkpt>
      <trkpt lat="46.41159" lon="5.26817">
        <ele>221.8</ele>
        <time>2022-01-24T13:56:23Z</time>
      </trkpt>
      <trkpt lat="46.41149" lon="5.26799">
        <ele>221.6</ele>
        <time>2022-01-24T13:56:25Z</time>
      </trkpt>
      <trkpt lat="46.41145" lon="5.2679">
        <ele>221.6</ele>
        <time>2022-01-24T13:56:26Z</time>
      </trkpt>
      <trkpt lat="46.4114" lon="5.26773">
        <ele>221.2</ele>
        <time>2022-01-24T13:56:28Z</time>
      </trkpt>
      <trkpt lat="46.4113" lon="5.26736">
        <ele>220.4</ele>
        <time>2022-01-24T13:56:31Z</time>
      </trkpt>
      <trkpt lat="46.41127" lon="5.26725">
        <ele>220</ele>
        <time>2022-01-24T13:56:32Z</time>
      </trkpt>
      <trkpt lat="46.41117" lon="5.26688">
        <ele>218.8</ele>
        <time>2022-01-24T13:56:35Z</time>
      </trkpt>
      <trkpt lat="46.4111" lon="5.26664">
        <ele>218</ele>
        <time>2022-01-24T13:56:37Z</time>
      </trkpt>
      <trkpt lat="46.41107" lon="5.2665">
        <ele>217.2</ele>
        <time>2022-01-24T13:56:38Z</time>
      </trkpt>
      <trkpt lat="46.41098" lon="5.2662">
        <ele>216.2</ele>
        <time>2022-01-24T13:56:40Z</time>
      </trkpt>
      <trkpt lat="46.41087" lon="5.2658">
        <ele>214.6</ele>
        <time>2022-01-24T13:56:43Z</time>
      </trkpt>
      <trkpt lat="46.41079" lon="5.26552">
        <ele>213.4</ele>
        <time>2022-01-24T13:56:45Z</time>
      </trkpt>
      <trkpt lat="46.41068" lon="5.26511">
        <ele>211.8</ele>
        <time>2022-01-24T13:56:48Z</time>
      </trkpt>
      <trkpt lat="46.4106" lon="5.26484">
        <ele>210.6</ele>
        <time>2022-01-24T13:56:50Z</time>
      </trkpt>
      <trkpt lat="46.41048" lon="5.26441">
        <ele>209.2</ele>
        <time>2022-01-24T13:56:54Z</time>
      </trkpt>
      <trkpt lat="46.41042" lon="5.26417">
        <ele>209</ele>
        <time>2022-01-24T13:56:56Z</time>
      </trkpt>
      <trkpt lat="46.41029" lon="5.26369">
        <ele>208.2</ele>
        <time>2022-01-24T13:57:00Z</time>
      </trkpt>
      <trkpt lat="46.41016" lon="5.26323">
        <ele>207</ele>
        <time>2022-01-24T13:57:04Z</time>
      </trkpt>
      <trkpt lat="46.4101" lon="5.26303">
        <ele>206.6</ele>
        <time>2022-01-24T13:57:06Z</time>
      </trkpt>
      <trkpt lat="46.41004" lon="5.2628">
        <ele>206</ele>
        <time>2022-01-24T13:57:08Z</time>
      </trkpt>
      <trkpt lat="46.40995" lon="5.26244">
        <ele>205.4</ele>
        <time>2022-01-24T13:57:11Z</time>
      </trkpt>
      <trkpt lat="46.40992" lon="5.26232">
        <ele>205</ele>
        <time>2022-01-24T13:57:12Z</time>
      </trkpt>
      <trkpt lat="46.40985" lon="5.26204">
        <ele>204.2</ele>
        <time>2022-01-24T13:57:14Z</time>
      </trkpt>
      <trkpt lat="46.40982" lon="5.26193">
        <ele>203.4</ele>
        <time>2022-01-24T13:57:15Z</time>
      </trkpt>
      <trkpt lat="46.4097" lon="5.26154">
        <ele>202.2</ele>
        <time>2022-01-24T13:57:18Z</time>
      </trkpt>
      <trkpt lat="46.40964" lon="5.26132">
        <ele>201.6</ele>
        <time>2022-01-24T13:57:20Z</time>
      </trkpt>
      <trkpt lat="46.40954" lon="5.26095">
        <ele>201</ele>
        <time>2022-01-24T13:57:23Z</time>
      </trkpt>
      <trkpt lat="46.40945" lon="5.26062">
        <ele>200</ele>
        <time>2022-01-24T13:57:26Z</time>
      </trkpt>
      <trkpt lat="46.40936" lon="5.26028">
        <ele>199.8</ele>
        <time>2022-01-24T13:57:29Z</time>
      </trkpt>
      <trkpt lat="46.40919" lon="5.25966">
        <ele>199.4</ele>
        <time>2022-01-24T13:57:35Z</time>
      </trkpt>
      <trkpt lat="46.40908" lon="5.25919">
        <ele>199.8</ele>
        <time>2022-01-24T13:57:40Z</time>
      </trkpt>
      <trkpt lat="46.4089" lon="5.25857">
        <ele>200.6</ele>
        <time>2022-01-24T13:57:47Z</time>
      </trkpt>
      <trkpt lat="46.40878" lon="5.25813">
        <ele>201</ele>
        <time>2022-01-24T13:57:52Z</time>
      </trkpt>
      <trkpt lat="46.40866" lon="5.25769">
        <ele>201.2</ele>
        <time>2022-01-24T13:57:57Z</time>
      </trkpt>
      <trkpt lat="46.40843" lon="5.25687">
        <ele>200.6</ele>
        <time>2022-01-24T13:58:05Z</time>
      </trkpt>
      <trkpt lat="46.40824" lon="5.25622">
        <ele>199.6</ele>
        <time>2022-01-24T13:58:11Z</time>
      </trkpt>
      <trkpt lat="46.40821" lon="5.25609">
        <ele>199.6</ele>
        <time>2022-01-24T13:58:12Z</time>
      </trkpt>
      <trkpt lat="46.40814" lon="5.25584">
        <ele>198.4</ele>
        <time>2022-01-24T13:58:14Z</time>
      </trkpt>
      <trkpt lat="46.40804" lon="5.25546">
        <ele>197.4</ele>
        <time>2022-01-24T13:58:17Z</time>
      </trkpt>
      <trkpt lat="46.40794" lon="5.25508">
        <ele>196.2</ele>
        <time>2022-01-24T13:58:20Z</time>
      </trkpt>
      <trkpt lat="46.40783" lon="5.2547">
        <ele>195</ele>
        <time>2022-01-24T13:58:23Z</time>
      </trkpt>
      <trkpt lat="46.40771" lon="5.25427">
        <ele>194.6</ele>
        <time>2022-01-24T13:58:27Z</time>
      </trkpt>
      <trkpt lat="46.40753" lon="5.25355">
        <ele>195</ele>
        <time>2022-01-24T13:58:34Z</time>
      </trkpt>
      <trkpt lat="46.40732" lon="5.25271">
        <ele>194.4</ele>
        <time>2022-01-24T13:58:42Z</time>
      </trkpt>
      <trkpt lat="46.4073" lon="5.25261">
        <ele>194.4</ele>
        <time>2022-01-24T13:58:43Z</time>
      </trkpt>
      <trkpt lat="46.40725" lon="5.25243">
        <ele>194.2</ele>
        <time>2022-01-24T13:58:45Z</time>
      </trkpt>
      <trkpt lat="46.40711" lon="5.25186">
        <ele>194</ele>
        <time>2022-01-24T13:58:51Z</time>
      </trkpt>
      <trkpt lat="46.40708" lon="5.25177">
        <ele>194</ele>
        <time>2022-01-24T13:58:53Z</time>
      </trkpt>
      <trkpt lat="46.40706" lon="5.25176">
        <ele>194</ele>
        <time>2022-01-24T13:58:54Z</time>
      </trkpt>
      <trkpt lat="46.40704" lon="5.25182">
        <ele>194</ele>
        <time>2022-01-24T13:58:56Z</time>
      </trkpt>
      <trkpt lat="46.40705" lon="5.25186">
        <ele>194</ele>
        <time>2022-01-24T13:58:57Z</time>
      </trkpt>
      <trkpt lat="46.4071" lon="5.25207">
        <ele>194</ele>
        <time>2022-01-24T13:59:01Z</time>
      </trkpt>
      <trkpt lat="46.40714" lon="5.25224">
        <ele>194</ele>
        <time>2022-01-24T13:59:05Z</time>
      </trkpt>
      <trkpt lat="46.40715" lon="5.25227">
        <ele>194</ele>
        <time>2022-01-24T13:59:06Z</time>
      </trkpt>
      <trkpt lat="46.40716" lon="5.25229">
        <ele>193.8</ele>
        <time>2022-01-24T13:59:07Z</time>
      </trkpt>
      <trkpt lat="46.40719" lon="5.25229">
        <ele>193.8</ele>
        <time>2022-01-24T13:59:09Z</time>
      </trkpt>
      <trkpt lat="46.40715" lon="5.25217">
        <ele>193.8</ele>
        <time>2022-01-24T13:59:12Z</time>
      </trkpt>
      <trkpt lat="46.40705" lon="5.25193">
        <ele>193.6</ele>
        <time>2022-01-24T13:59:19Z</time>
      </trkpt>
      <trkpt lat="46.40705" lon="5.25193">
        <ele>193.6</ele>
        <time>2022-01-24T13:59:20Z</time>
      </trkpt>
      <trkpt lat="46.40708" lon="5.25188">
        <ele>193.8</ele>
        <time>2022-01-24T14:08:49Z</time>
      </trkpt>
      <trkpt lat="46.40707" lon="5.25178">
        <ele>193.8</ele>
        <time>2022-01-24T14:08:51Z</time>
      </trkpt>
      <trkpt lat="46.40701" lon="5.25144">
        <ele>194</ele>
        <time>2022-01-24T14:08:56Z</time>
      </trkpt>
      <trkpt lat="46.40698" lon="5.25131">
        <ele>194.2</ele>
        <time>2022-01-24T14:08:58Z</time>
      </trkpt>
      <trkpt lat="46.40688" lon="5.25095">
        <ele>195.6</ele>
        <time>2022-01-24T14:09:04Z</time>
      </trkpt>
      <trkpt lat="46.40686" lon="5.25089">
        <ele>196</ele>
        <time>2022-01-24T14:09:05Z</time>
      </trkpt>
      <trkpt lat="46.40682" lon="5.25072">
        <ele>196.6</ele>
        <time>2022-01-24T14:09:08Z</time>
      </trkpt>
      <trkpt lat="46.40676" lon="5.25049">
        <ele>198</ele>
        <time>2022-01-24T14:09:12Z</time>
      </trkpt>
      <trkpt lat="46.40674" lon="5.25037">
        <ele>198.6</ele>
        <time>2022-01-24T14:09:14Z</time>
      </trkpt>
      <trkpt lat="46.40671" lon="5.25027">
        <ele>199.2</ele>
        <time>2022-01-24T14:09:16Z</time>
      </trkpt>
      <trkpt lat="46.40668" lon="5.25012">
        <ele>200.4</ele>
        <time>2022-01-24T14:09:19Z</time>
      </trkpt>
      <trkpt lat="46.40663" lon="5.24992">
        <ele>201.4</ele>
        <time>2022-01-24T14:09:23Z</time>
      </trkpt>
      <trkpt lat="46.40658" lon="5.24968">
        <ele>202.8</ele>
        <time>2022-01-24T14:09:28Z</time>
      </trkpt>
      <trkpt lat="46.40652" lon="5.24945">
        <ele>204</ele>
        <time>2022-01-24T14:09:33Z</time>
      </trkpt>
      <trkpt lat="46.40651" lon="5.24941">
        <ele>204.2</ele>
        <time>2022-01-24T14:09:34Z</time>
      </trkpt>
      <trkpt lat="46.40647" lon="5.24927">
        <ele>205.2</ele>
        <time>2022-01-24T14:09:37Z</time>
      </trkpt>
      <trkpt lat="46.40643" lon="5.24909">
        <ele>206.4</ele>
        <time>2022-01-24T14:09:41Z</time>
      </trkpt>
      <trkpt lat="46.40641" lon="5.24897">
        <ele>207</ele>
        <time>2022-01-24T14:09:44Z</time>
      </trkpt>
      <trkpt lat="46.40638" lon="5.24885">
        <ele>207.6</ele>
        <time>2022-01-24T14:09:47Z</time>
      </trkpt>
      <trkpt lat="46.40635" lon="5.24873">
        <ele>208.6</ele>
        <time>2022-01-24T14:09:50Z</time>
      </trkpt>
      <trkpt lat="46.40632" lon="5.2486">
        <ele>209.2</ele>
        <time>2022-01-24T14:09:53Z</time>
      </trkpt>
      <trkpt lat="46.4063" lon="5.24848">
        <ele>209.8</ele>
        <time>2022-01-24T14:09:56Z</time>
      </trkpt>
      <trkpt lat="46.40624" lon="5.24824">
        <ele>210.8</ele>
        <time>2022-01-24T14:10:02Z</time>
      </trkpt>
      <trkpt lat="46.40623" lon="5.2482">
        <ele>211</ele>
        <time>2022-01-24T14:10:03Z</time>
      </trkpt>
      <trkpt lat="46.40618" lon="5.24797">
        <ele>212.2</ele>
        <time>2022-01-24T14:10:09Z</time>
      </trkpt>
      <trkpt lat="46.40616" lon="5.24788">
        <ele>212.6</ele>
        <time>2022-01-24T14:10:11Z</time>
      </trkpt>
      <trkpt lat="46.40613" lon="5.24776">
        <ele>213.4</ele>
        <time>2022-01-24T14:10:14Z</time>
      </trkpt>
      <trkpt lat="46.40609" lon="5.24755">
        <ele>214.4</ele>
        <time>2022-01-24T14:10:19Z</time>
      </trkpt>
      <trkpt lat="46.40608" lon="5.24751">
        <ele>214.6</ele>
        <time>2022-01-24T14:10:20Z</time>
      </trkpt>
      <trkpt lat="46.40602" lon="5.24727">
        <ele>215.4</ele>
        <time>2022-01-24T14:10:25Z</time>
      </trkpt>
      <trkpt lat="46.40597" lon="5.24704">
        <ele>216.4</ele>
        <time>2022-01-24T14:10:30Z</time>
      </trkpt>
      <trkpt lat="46.40592" lon="5.2468">
        <ele>217.6</ele>
        <time>2022-01-24T14:10:35Z</time>
      </trkpt>
      <trkpt lat="46.40586" lon="5.24657">
        <ele>218.6</ele>
        <time>2022-01-24T14:10:40Z</time>
      </trkpt>
      <trkpt lat="46.40585" lon="5.24652">
        <ele>218.8</ele>
        <time>2022-01-24T14:10:41Z</time>
      </trkpt>
      <trkpt lat="46.40581" lon="5.24633">
        <ele>219.8</ele>
        <time>2022-01-24T14:10:45Z</time>
      </trkpt>
      <trkpt lat="46.40571" lon="5.24593">
        <ele>220.8</ele>
        <time>2022-01-24T14:10:52Z</time>
      </trkpt>
      <trkpt lat="46.40567" lon="5.24578">
        <ele>220.8</ele>
        <time>2022-01-24T14:10:54Z</time>
      </trkpt>
      <trkpt lat="46.40559" lon="5.24541">
        <ele>220.6</ele>
        <time>2022-01-24T14:10:58Z</time>
      </trkpt>
      <trkpt lat="46.40552" lon="5.24511">
        <ele>219.8</ele>
        <time>2022-01-24T14:11:01Z</time>
      </trkpt>
      <trkpt lat="46.40541" lon="5.24465">
        <ele>219</ele>
        <time>2022-01-24T14:11:05Z</time>
      </trkpt>
      <trkpt lat="46.40539" lon="5.24453">
        <ele>218.6</ele>
        <time>2022-01-24T14:11:06Z</time>
      </trkpt>
      <trkpt lat="46.40533" lon="5.24427">
        <ele>217.4</ele>
        <time>2022-01-24T14:11:08Z</time>
      </trkpt>
      <trkpt lat="46.40527" lon="5.24403">
        <ele>216.4</ele>
        <time>2022-01-24T14:11:10Z</time>
      </trkpt>
      <trkpt lat="46.40523" lon="5.24387">
        <ele>216</ele>
        <time>2022-01-24T14:11:11Z</time>
      </trkpt>
      <trkpt lat="46.40517" lon="5.24361">
        <ele>215.2</ele>
        <time>2022-01-24T14:11:13Z</time>
      </trkpt>
      <trkpt lat="46.40514" lon="5.24347">
        <ele>214.2</ele>
        <time>2022-01-24T14:11:14Z</time>
      </trkpt>
      <trkpt lat="46.40506" lon="5.24315">
        <ele>213</ele>
        <time>2022-01-24T14:11:16Z</time>
      </trkpt>
      <trkpt lat="46.40495" lon="5.24271">
        <ele>211.8</ele>
        <time>2022-01-24T14:11:19Z</time>
      </trkpt>
      <trkpt lat="46.40489" lon="5.24242">
        <ele>210.6</ele>
        <time>2022-01-24T14:11:21Z</time>
      </trkpt>
      <trkpt lat="46.40483" lon="5.24215">
        <ele>209.2</ele>
        <time>2022-01-24T14:11:23Z</time>
      </trkpt>
      <trkpt lat="46.40475" lon="5.24176">
        <ele>207.8</ele>
        <time>2022-01-24T14:11:26Z</time>
      </trkpt>
      <trkpt lat="46.40468" lon="5.24121">
        <ele>207</ele>
        <time>2022-01-24T14:11:31Z</time>
      </trkpt>
      <trkpt lat="46.40469" lon="5.24106">
        <ele>207</ele>
        <time>2022-01-24T14:11:34Z</time>
      </trkpt>
      <trkpt lat="46.40466" lon="5.24095">
        <ele>207.2</ele>
        <time>2022-01-24T14:11:36Z</time>
      </trkpt>
      <trkpt lat="46.40459" lon="5.24083">
        <ele>207</ele>
        <time>2022-01-24T14:11:38Z</time>
      </trkpt>
      <trkpt lat="46.40446" lon="5.2405">
        <ele>207.4</ele>
        <time>2022-01-24T14:11:42Z</time>
      </trkpt>
      <trkpt lat="46.40422" lon="5.24014">
        <ele>207.6</ele>
        <time>2022-01-24T14:11:47Z</time>
      </trkpt>
      <trkpt lat="46.40394" lon="5.23972">
        <ele>208.6</ele>
        <time>2022-01-24T14:11:53Z</time>
      </trkpt>
      <trkpt lat="46.4039" lon="5.23965">
        <ele>208.6</ele>
        <time>2022-01-24T14:11:54Z</time>
      </trkpt>
      <trkpt lat="46.40386" lon="5.23957">
        <ele>208.8</ele>
        <time>2022-01-24T14:11:55Z</time>
      </trkpt>
      <trkpt lat="46.40352" lon="5.23888">
        <ele>209.6</ele>
        <time>2022-01-24T14:12:04Z</time>
      </trkpt>
      <trkpt lat="46.40328" lon="5.23833">
        <ele>209.8</ele>
        <time>2022-01-24T14:12:11Z</time>
      </trkpt>
      <trkpt lat="46.40308" lon="5.23784">
        <ele>209.4</ele>
        <time>2022-01-24T14:12:16Z</time>
      </trkpt>
      <trkpt lat="46.40301" lon="5.23748">
        <ele>208.6</ele>
        <time>2022-01-24T14:12:19Z</time>
      </trkpt>
      <trkpt lat="46.403" lon="5.23735">
        <ele>207.8</ele>
        <time>2022-01-24T14:12:20Z</time>
      </trkpt>
      <trkpt lat="46.40299" lon="5.23722">
        <ele>207.6</ele>
        <time>2022-01-24T14:12:21Z</time>
      </trkpt>
      <trkpt lat="46.40299" lon="5.23693">
        <ele>206.2</ele>
        <time>2022-01-24T14:12:23Z</time>
      </trkpt>
      <trkpt lat="46.403" lon="5.23679">
        <ele>205.8</ele>
        <time>2022-01-24T14:12:24Z</time>
      </trkpt>
      <trkpt lat="46.40303" lon="5.2365">
        <ele>204.8</ele>
        <time>2022-01-24T14:12:26Z</time>
      </trkpt>
      <trkpt lat="46.40305" lon="5.23621">
        <ele>203.4</ele>
        <time>2022-01-24T14:12:28Z</time>
      </trkpt>
      <trkpt lat="46.40307" lon="5.23592">
        <ele>202</ele>
        <time>2022-01-24T14:12:30Z</time>
      </trkpt>
      <trkpt lat="46.40309" lon="5.23563">
        <ele>200.6</ele>
        <time>2022-01-24T14:12:32Z</time>
      </trkpt>
      <trkpt lat="46.40313" lon="5.23519">
        <ele>199.2</ele>
        <time>2022-01-24T14:12:35Z</time>
      </trkpt>
      <trkpt lat="46.40316" lon="5.23477">
        <ele>197.6</ele>
        <time>2022-01-24T14:12:38Z</time>
      </trkpt>
      <trkpt lat="46.40317" lon="5.23463">
        <ele>197.4</ele>
        <time>2022-01-24T14:12:39Z</time>
      </trkpt>
      <trkpt lat="46.40319" lon="5.23436">
        <ele>196.6</ele>
        <time>2022-01-24T14:12:41Z</time>
      </trkpt>
      <trkpt lat="46.40322" lon="5.23399">
        <ele>196.4</ele>
        <time>2022-01-24T14:12:44Z</time>
      </trkpt>
      <trkpt lat="46.40328" lon="5.2332">
        <ele>196.4</ele>
        <time>2022-01-24T14:12:51Z</time>
      </trkpt>
      <trkpt lat="46.40333" lon="5.23264">
        <ele>196.8</ele>
        <time>2022-01-24T14:12:57Z</time>
      </trkpt>
      <trkpt lat="46.40335" lon="5.2323">
        <ele>197.6</ele>
        <time>2022-01-24T14:13:01Z</time>
      </trkpt>
      <trkpt lat="46.40336" lon="5.23204">
        <ele>197.8</ele>
        <time>2022-01-24T14:13:04Z</time>
      </trkpt>
      <trkpt lat="46.4034" lon="5.23157">
        <ele>198.6</ele>
        <time>2022-01-24T14:13:09Z</time>
      </trkpt>
      <trkpt lat="46.4034" lon="5.23147">
        <ele>198.8</ele>
        <time>2022-01-24T14:13:10Z</time>
      </trkpt>
      <trkpt lat="46.40347" lon="5.23065">
        <ele>199</ele>
        <time>2022-01-24T14:13:18Z</time>
      </trkpt>
      <trkpt lat="46.40354" lon="5.22987">
        <ele>198.2</ele>
        <time>2022-01-24T14:13:25Z</time>
      </trkpt>
      <trkpt lat="46.40355" lon="5.22975">
        <ele>197.8</ele>
        <time>2022-01-24T14:13:26Z</time>
      </trkpt>
      <trkpt lat="46.40356" lon="5.22952">
        <ele>197.4</ele>
        <time>2022-01-24T14:13:28Z</time>
      </trkpt>
      <trkpt lat="46.40361" lon="5.22888">
        <ele>196.4</ele>
        <time>2022-01-24T14:13:34Z</time>
      </trkpt>
      <trkpt lat="46.40366" lon="5.22838">
        <ele>196.4</ele>
        <time>2022-01-24T14:13:39Z</time>
      </trkpt>
      <trkpt lat="46.40371" lon="5.22778">
        <ele>197</ele>
        <time>2022-01-24T14:13:46Z</time>
      </trkpt>
      <trkpt lat="46.40377" lon="5.22706">
        <ele>196.6</ele>
        <time>2022-01-24T14:13:53Z</time>
      </trkpt>
      <trkpt lat="46.40384" lon="5.22619">
        <ele>195.6</ele>
        <time>2022-01-24T14:14:01Z</time>
      </trkpt>
      <trkpt lat="46.40385" lon="5.22609">
        <ele>195.6</ele>
        <time>2022-01-24T14:14:02Z</time>
      </trkpt>
      <trkpt lat="46.40391" lon="5.22524">
        <ele>195.6</ele>
        <time>2022-01-24T14:14:11Z</time>
      </trkpt>
      <trkpt lat="46.40397" lon="5.22458">
        <ele>196.6</ele>
        <time>2022-01-24T14:14:19Z</time>
      </trkpt>
      <trkpt lat="46.40399" lon="5.22435">
        <ele>197.4</ele>
        <time>2022-01-24T14:14:22Z</time>
      </trkpt>
      <trkpt lat="46.40404" lon="5.22376">
        <ele>198.6</ele>
        <time>2022-01-24T14:14:29Z</time>
      </trkpt>
      <trkpt lat="46.40406" lon="5.22343">
        <ele>199.6</ele>
        <time>2022-01-24T14:14:33Z</time>
      </trkpt>
      <trkpt lat="46.4041" lon="5.22304">
        <ele>200.2</ele>
        <time>2022-01-24T14:14:38Z</time>
      </trkpt>
      <trkpt lat="46.40411" lon="5.22288">
        <ele>200.6</ele>
        <time>2022-01-24T14:14:40Z</time>
      </trkpt>
      <trkpt lat="46.40414" lon="5.22232">
        <ele>201.4</ele>
        <time>2022-01-24T14:14:47Z</time>
      </trkpt>
      <trkpt lat="46.40417" lon="5.22195">
        <ele>201.8</ele>
        <time>2022-01-24T14:14:52Z</time>
      </trkpt>
      <trkpt lat="46.40421" lon="5.22156">
        <ele>202.4</ele>
        <time>2022-01-24T14:14:57Z</time>
      </trkpt>
      <trkpt lat="46.40424" lon="5.22104">
        <ele>202.8</ele>
        <time>2022-01-24T14:15:03Z</time>
      </trkpt>
      <trkpt lat="46.40426" lon="5.22084">
        <ele>202.8</ele>
        <time>2022-01-24T14:15:05Z</time>
      </trkpt>
      <trkpt lat="46.4043" lon="5.22013">
        <ele>201.8</ele>
        <time>2022-01-24T14:15:12Z</time>
      </trkpt>
      <trkpt lat="46.40437" lon="5.21926">
        <ele>200.8</ele>
        <time>2022-01-24T14:15:20Z</time>
      </trkpt>
      <trkpt lat="46.40445" lon="5.21837">
        <ele>199.8</ele>
        <time>2022-01-24T14:15:28Z</time>
      </trkpt>
      <trkpt lat="46.40451" lon="5.21751">
        <ele>199.4</ele>
        <time>2022-01-24T14:15:36Z</time>
      </trkpt>
      <trkpt lat="46.40454" lon="5.21698">
        <ele>198.6</ele>
        <time>2022-01-24T14:15:41Z</time>
      </trkpt>
      <trkpt lat="46.40458" lon="5.21637">
        <ele>198.6</ele>
        <time>2022-01-24T14:15:47Z</time>
      </trkpt>
      <trkpt lat="46.40463" lon="5.21558">
        <ele>199</ele>
        <time>2022-01-24T14:15:55Z</time>
      </trkpt>
      <trkpt lat="46.40465" lon="5.21538">
        <ele>199</ele>
        <time>2022-01-24T14:15:57Z</time>
      </trkpt>
      <trkpt lat="46.4047" lon="5.21464">
        <ele>199</ele>
        <time>2022-01-24T14:16:05Z</time>
      </trkpt>
      <trkpt lat="46.40476" lon="5.21386">
        <ele>199.6</ele>
        <time>2022-01-24T14:16:14Z</time>
      </trkpt>
      <trkpt lat="46.40478" lon="5.21369">
        <ele>199.8</ele>
        <time>2022-01-24T14:16:16Z</time>
      </trkpt>
      <trkpt lat="46.40481" lon="5.21318">
        <ele>200.2</ele>
        <time>2022-01-24T14:16:22Z</time>
      </trkpt>
      <trkpt lat="46.40484" lon="5.21276">
        <ele>200.8</ele>
        <time>2022-01-24T14:16:27Z</time>
      </trkpt>
      <trkpt lat="46.40488" lon="5.21231">
        <ele>201</ele>
        <time>2022-01-24T14:16:32Z</time>
      </trkpt>
      <trkpt lat="46.40493" lon="5.21153">
        <ele>200.6</ele>
        <time>2022-01-24T14:16:40Z</time>
      </trkpt>
      <trkpt lat="46.40493" lon="5.21143">
        <ele>200.4</ele>
        <time>2022-01-24T14:16:41Z</time>
      </trkpt>
      <trkpt lat="46.40495" lon="5.21106">
        <ele>200</ele>
        <time>2022-01-24T14:16:45Z</time>
      </trkpt>
      <trkpt lat="46.40498" lon="5.21098">
        <ele>200</ele>
        <time>2022-01-24T14:16:46Z</time>
      </trkpt>
      <trkpt lat="46.40503" lon="5.21092">
        <ele>200</ele>
        <time>2022-01-24T14:16:47Z</time>
      </trkpt>
      <trkpt lat="46.40508" lon="5.2109">
        <ele>200</ele>
        <time>2022-01-24T14:16:48Z</time>
      </trkpt>
      <trkpt lat="46.40514" lon="5.21092">
        <ele>199.8</ele>
        <time>2022-01-24T14:16:49Z</time>
      </trkpt>
      <trkpt lat="46.4052" lon="5.21096">
        <ele>199.8</ele>
        <time>2022-01-24T14:16:50Z</time>
      </trkpt>
      <trkpt lat="46.40556" lon="5.21125">
        <ele>199.4</ele>
        <time>2022-01-24T14:16:56Z</time>
      </trkpt>
      <trkpt lat="46.40568" lon="5.21132">
        <ele>199.4</ele>
        <time>2022-01-24T14:16:58Z</time>
      </trkpt>
      <trkpt lat="46.40581" lon="5.21135">
        <ele>199.4</ele>
        <time>2022-01-24T14:17:00Z</time>
      </trkpt>
      <trkpt lat="46.40595" lon="5.21132">
        <ele>199.4</ele>
        <time>2022-01-24T14:17:02Z</time>
      </trkpt>
      <trkpt lat="46.40607" lon="5.21127">
        <ele>199.4</ele>
        <time>2022-01-24T14:17:04Z</time>
      </trkpt>
      <trkpt lat="46.40633" lon="5.21116">
        <ele>199.4</ele>
        <time>2022-01-24T14:17:08Z</time>
      </trkpt>
      <trkpt lat="46.40682" lon="5.21095">
        <ele>199.4</ele>
        <time>2022-01-24T14:17:16Z</time>
      </trkpt>
      <trkpt lat="46.40735" lon="5.21072">
        <ele>199.8</ele>
        <time>2022-01-24T14:17:25Z</time>
      </trkpt>
      <trkpt lat="46.4079" lon="5.21046">
        <ele>200.6</ele>
        <time>2022-01-24T14:17:35Z</time>
      </trkpt>
      <trkpt lat="46.408" lon="5.21041">
        <ele>200.8</ele>
        <time>2022-01-24T14:17:37Z</time>
      </trkpt>
      <trkpt lat="46.40842" lon="5.21022">
        <ele>201.6</ele>
        <time>2022-01-24T14:17:45Z</time>
      </trkpt>
      <trkpt lat="46.40847" lon="5.21019">
        <ele>201.8</ele>
        <time>2022-01-24T14:17:46Z</time>
      </trkpt>
      <trkpt lat="46.40899" lon="5.20997">
        <ele>202.8</ele>
        <time>2022-01-24T14:17:56Z</time>
      </trkpt>
      <trkpt lat="46.40914" lon="5.2099">
        <ele>203.2</ele>
        <time>2022-01-24T14:17:59Z</time>
      </trkpt>
      <trkpt lat="46.40935" lon="5.20982">
        <ele>203.8</ele>
        <time>2022-01-24T14:18:03Z</time>
      </trkpt>
      <trkpt lat="46.4097" lon="5.20967">
        <ele>204.6</ele>
        <time>2022-01-24T14:18:10Z</time>
      </trkpt>
      <trkpt lat="46.40981" lon="5.20962">
        <ele>205</ele>
        <time>2022-01-24T14:18:12Z</time>
      </trkpt>
      <trkpt lat="46.41019" lon="5.20947">
        <ele>205.6</ele>
        <time>2022-01-24T14:18:19Z</time>
      </trkpt>
      <trkpt lat="46.41073" lon="5.20927">
        <ele>205.8</ele>
        <time>2022-01-24T14:18:29Z</time>
      </trkpt>
      <trkpt lat="46.41079" lon="5.20926">
        <ele>206</ele>
        <time>2022-01-24T14:18:30Z</time>
      </trkpt>
      <trkpt lat="46.41084" lon="5.20924">
        <ele>206</ele>
        <time>2022-01-24T14:18:31Z</time>
      </trkpt>
      <trkpt lat="46.411" lon="5.20919">
        <ele>206.4</ele>
        <time>2022-01-24T14:18:34Z</time>
      </trkpt>
      <trkpt lat="46.41132" lon="5.20909">
        <ele>206.8</ele>
        <time>2022-01-24T14:18:40Z</time>
      </trkpt>
      <trkpt lat="46.4117" lon="5.20896">
        <ele>207.2</ele>
        <time>2022-01-24T14:18:47Z</time>
      </trkpt>
      <trkpt lat="46.41187" lon="5.20891">
        <ele>207.2</ele>
        <time>2022-01-24T14:18:50Z</time>
      </trkpt>
      <trkpt lat="46.41246" lon="5.20874">
        <ele>207.4</ele>
        <time>2022-01-24T14:19:00Z</time>
      </trkpt>
      <trkpt lat="46.41303" lon="5.20858">
        <ele>207.4</ele>
        <time>2022-01-24T14:19:09Z</time>
      </trkpt>
      <trkpt lat="46.4131" lon="5.20856">
        <ele>207.2</ele>
        <time>2022-01-24T14:19:10Z</time>
      </trkpt>
      <trkpt lat="46.41367" lon="5.20838">
        <ele>207</ele>
        <time>2022-01-24T14:19:19Z</time>
      </trkpt>
      <trkpt lat="46.4138" lon="5.20835">
        <ele>207</ele>
        <time>2022-01-24T14:19:21Z</time>
      </trkpt>
      <trkpt lat="46.41392" lon="5.20839">
        <ele>207.2</ele>
        <time>2022-01-24T14:19:23Z</time>
      </trkpt>
      <trkpt lat="46.41401" lon="5.2085">
        <ele>207.4</ele>
        <time>2022-01-24T14:19:25Z</time>
      </trkpt>
      <trkpt lat="46.41405" lon="5.20857">
        <ele>207.4</ele>
        <time>2022-01-24T14:19:26Z</time>
      </trkpt>
      <trkpt lat="46.41422" lon="5.20906">
        <ele>207.4</ele>
        <time>2022-01-24T14:19:33Z</time>
      </trkpt>
      <trkpt lat="46.41425" lon="5.20918">
        <ele>207.6</ele>
        <time>2022-01-24T14:19:35Z</time>
      </trkpt>
      <trkpt lat="46.41428" lon="5.20937">
        <ele>208.4</ele>
        <time>2022-01-24T14:19:38Z</time>
      </trkpt>
      <trkpt lat="46.41429" lon="5.20944">
        <ele>208.4</ele>
        <time>2022-01-24T14:19:39Z</time>
      </trkpt>
      <trkpt lat="46.41433" lon="5.20985">
        <ele>209.6</ele>
        <time>2022-01-24T14:19:45Z</time>
      </trkpt>
      <trkpt lat="46.41434" lon="5.20992">
        <ele>210</ele>
        <time>2022-01-24T14:19:46Z</time>
      </trkpt>
      <trkpt lat="46.41436" lon="5.21012">
        <ele>210.6</ele>
        <time>2022-01-24T14:19:49Z</time>
      </trkpt>
      <trkpt lat="46.41438" lon="5.21019">
        <ele>211.2</ele>
        <time>2022-01-24T14:19:50Z</time>
      </trkpt>
      <trkpt lat="46.41441" lon="5.2103">
        <ele>212</ele>
        <time>2022-01-24T14:19:52Z</time>
      </trkpt>
      <trkpt lat="46.41443" lon="5.21036">
        <ele>212.2</ele>
        <time>2022-01-24T14:19:53Z</time>
      </trkpt>
      <trkpt lat="46.41457" lon="5.21055">
        <ele>213.2</ele>
        <time>2022-01-24T14:19:57Z</time>
      </trkpt>
      <trkpt lat="46.41465" lon="5.21065">
        <ele>214</ele>
        <time>2022-01-24T14:19:59Z</time>
      </trkpt>
      <trkpt lat="46.41483" lon="5.21086">
        <ele>214.6</ele>
        <time>2022-01-24T14:20:03Z</time>
      </trkpt>
      <trkpt lat="46.41494" lon="5.21099">
        <ele>214.8</ele>
        <time>2022-01-24T14:20:05Z</time>
      </trkpt>
      <trkpt lat="46.41526" lon="5.21141">
        <ele>214.4</ele>
        <time>2022-01-24T14:20:11Z</time>
      </trkpt>
      <trkpt lat="46.41541" lon="5.21167">
        <ele>213.2</ele>
        <time>2022-01-24T14:20:14Z</time>
      </trkpt>
      <trkpt lat="46.4155" lon="5.21185">
        <ele>212.8</ele>
        <time>2022-01-24T14:20:16Z</time>
      </trkpt>
      <trkpt lat="46.41568" lon="5.21217">
        <ele>212.2</ele>
        <time>2022-01-24T14:20:20Z</time>
      </trkpt>
      <trkpt lat="46.41572" lon="5.21223">
        <ele>212.2</ele>
        <time>2022-01-24T14:20:21Z</time>
      </trkpt>
      <trkpt lat="46.41591" lon="5.21245">
        <ele>212.6</ele>
        <time>2022-01-24T14:20:25Z</time>
      </trkpt>
      <trkpt lat="46.41601" lon="5.21254">
        <ele>212.6</ele>
        <time>2022-01-24T14:20:27Z</time>
      </trkpt>
      <trkpt lat="46.41644" lon="5.21295">
        <ele>213.2</ele>
        <time>2022-01-24T14:20:36Z</time>
      </trkpt>
      <trkpt lat="46.41658" lon="5.21305">
        <ele>213.4</ele>
        <time>2022-01-24T14:20:39Z</time>
      </trkpt>
      <trkpt lat="46.41667" lon="5.21313">
        <ele>213.6</ele>
        <time>2022-01-24T14:20:41Z</time>
      </trkpt>
      <trkpt lat="46.4171" lon="5.2135">
        <ele>214.6</ele>
        <time>2022-01-24T14:20:51Z</time>
      </trkpt>
      <trkpt lat="46.41747" lon="5.21382">
        <ele>215.6</ele>
        <time>2022-01-24T14:20:59Z</time>
      </trkpt>
      <trkpt lat="46.41781" lon="5.21411">
        <ele>216</ele>
        <time>2022-01-24T14:21:06Z</time>
      </trkpt>
      <trkpt lat="46.41827" lon="5.21442">
        <ele>216.6</ele>
        <time>2022-01-24T14:21:15Z</time>
      </trkpt>
      <trkpt lat="46.41832" lon="5.21444">
        <ele>216.6</ele>
        <time>2022-01-24T14:21:16Z</time>
      </trkpt>
      <trkpt lat="46.41876" lon="5.21468">
        <ele>216.8</ele>
        <time>2022-01-24T14:21:24Z</time>
      </trkpt>
      <trkpt lat="46.4192" lon="5.21488">
        <ele>216.8</ele>
        <time>2022-01-24T14:21:32Z</time>
      </trkpt>
      <trkpt lat="46.41967" lon="5.21516">
        <ele>216.6</ele>
        <time>2022-01-24T14:21:40Z</time>
      </trkpt>
      <trkpt lat="46.42022" lon="5.21554">
        <ele>215.6</ele>
        <time>2022-01-24T14:21:49Z</time>
      </trkpt>
      <trkpt lat="46.42028" lon="5.21558">
        <ele>215.6</ele>
        <time>2022-01-24T14:21:50Z</time>
      </trkpt>
      <trkpt lat="46.42082" lon="5.21595">
        <ele>215</ele>
        <time>2022-01-24T14:21:59Z</time>
      </trkpt>
      <trkpt lat="46.42087" lon="5.21599">
        <ele>215</ele>
        <time>2022-01-24T14:22:00Z</time>
      </trkpt>
      <trkpt lat="46.42121" lon="5.21622">
        <ele>214.6</ele>
        <time>2022-01-24T14:22:06Z</time>
      </trkpt>
      <trkpt lat="46.42127" lon="5.21626">
        <ele>214.4</ele>
        <time>2022-01-24T14:22:07Z</time>
      </trkpt>
      <trkpt lat="46.42159" lon="5.2165">
        <ele>214</ele>
        <time>2022-01-24T14:22:13Z</time>
      </trkpt>
      <trkpt lat="46.42205" lon="5.21691">
        <ele>214.6</ele>
        <time>2022-01-24T14:22:22Z</time>
      </trkpt>
      <trkpt lat="46.4224" lon="5.2171">
        <ele>215.4</ele>
        <time>2022-01-24T14:22:28Z</time>
      </trkpt>
      <trkpt lat="46.42246" lon="5.21713">
        <ele>215.4</ele>
        <time>2022-01-24T14:22:29Z</time>
      </trkpt>
      <trkpt lat="46.42303" lon="5.21736">
        <ele>216</ele>
        <time>2022-01-24T14:22:39Z</time>
      </trkpt>
      <trkpt lat="46.42336" lon="5.21749">
        <ele>216.4</ele>
        <time>2022-01-24T14:22:45Z</time>
      </trkpt>
      <trkpt lat="46.42348" lon="5.21752">
        <ele>216.4</ele>
        <time>2022-01-24T14:22:47Z</time>
      </trkpt>
      <trkpt lat="46.42394" lon="5.21755">
        <ele>217.2</ele>
        <time>2022-01-24T14:22:55Z</time>
      </trkpt>
      <trkpt lat="46.42424" lon="5.21756">
        <ele>217.4</ele>
        <time>2022-01-24T14:23:00Z</time>
      </trkpt>
      <trkpt lat="46.42461" lon="5.21759">
        <ele>217.8</ele>
        <time>2022-01-24T14:23:06Z</time>
      </trkpt>
      <trkpt lat="46.42507" lon="5.21774">
        <ele>218</ele>
        <time>2022-01-24T14:23:14Z</time>
      </trkpt>
      <trkpt lat="46.42545" lon="5.21788">
        <ele>218.6</ele>
        <time>2022-01-24T14:23:21Z</time>
      </trkpt>
      <trkpt lat="46.42561" lon="5.21793">
        <ele>218.8</ele>
        <time>2022-01-24T14:23:24Z</time>
      </trkpt>
      <trkpt lat="46.42598" lon="5.21805">
        <ele>219.4</ele>
        <time>2022-01-24T14:23:31Z</time>
      </trkpt>
      <trkpt lat="46.42619" lon="5.21811">
        <ele>219.6</ele>
        <time>2022-01-24T14:23:35Z</time>
      </trkpt>
      <trkpt lat="46.42629" lon="5.21814">
        <ele>219.6</ele>
        <time>2022-01-24T14:23:37Z</time>
      </trkpt>
      <trkpt lat="46.42673" lon="5.21822">
        <ele>220</ele>
        <time>2022-01-24T14:23:45Z</time>
      </trkpt>
      <trkpt lat="46.42721" lon="5.21825">
        <ele>220.4</ele>
        <time>2022-01-24T14:23:53Z</time>
      </trkpt>
      <trkpt lat="46.42752" lon="5.21828">
        <ele>220.6</ele>
        <time>2022-01-24T14:23:58Z</time>
      </trkpt>
      <trkpt lat="46.42785" lon="5.2183">
        <ele>220.4</ele>
        <time>2022-01-24T14:24:03Z</time>
      </trkpt>
      <trkpt lat="46.42792" lon="5.21829">
        <ele>220.4</ele>
        <time>2022-01-24T14:24:04Z</time>
      </trkpt>
      <trkpt lat="46.42827" lon="5.21821">
        <ele>220.4</ele>
        <time>2022-01-24T14:24:09Z</time>
      </trkpt>
      <trkpt lat="46.42886" lon="5.21812">
        <ele>220.2</ele>
        <time>2022-01-24T14:24:18Z</time>
      </trkpt>
      <trkpt lat="46.42936" lon="5.2182">
        <ele>219.8</ele>
        <time>2022-01-24T14:24:26Z</time>
      </trkpt>
      <trkpt lat="46.42982" lon="5.21833">
        <ele>220.2</ele>
        <time>2022-01-24T14:24:34Z</time>
      </trkpt>
      <trkpt lat="46.43017" lon="5.2184">
        <ele>220.4</ele>
        <time>2022-01-24T14:24:40Z</time>
      </trkpt>
      <trkpt lat="46.43023" lon="5.21839">
        <ele>220.4</ele>
        <time>2022-01-24T14:24:41Z</time>
      </trkpt>
      <trkpt lat="46.43053" lon="5.2183">
        <ele>220.4</ele>
        <time>2022-01-24T14:24:46Z</time>
      </trkpt>
      <trkpt lat="46.43101" lon="5.21816">
        <ele>220.2</ele>
        <time>2022-01-24T14:24:54Z</time>
      </trkpt>
      <trkpt lat="46.43108" lon="5.21816">
        <ele>220.2</ele>
        <time>2022-01-24T14:24:55Z</time>
      </trkpt>
      <trkpt lat="46.43145" lon="5.21823">
        <ele>220.2</ele>
        <time>2022-01-24T14:25:01Z</time>
      </trkpt>
      <trkpt lat="46.43185" lon="5.21843">
        <ele>220.4</ele>
        <time>2022-01-24T14:25:08Z</time>
      </trkpt>
      <trkpt lat="46.43212" lon="5.21876">
        <ele>220.8</ele>
        <time>2022-01-24T14:25:14Z</time>
      </trkpt>
      <trkpt lat="46.43238" lon="5.21897">
        <ele>220.8</ele>
        <time>2022-01-24T14:25:19Z</time>
      </trkpt>
      <trkpt lat="46.4326" lon="5.2191">
        <ele>220.8</ele>
        <time>2022-01-24T14:25:23Z</time>
      </trkpt>
      <trkpt lat="46.43269" lon="5.2192">
        <ele>221.2</ele>
        <time>2022-01-24T14:25:25Z</time>
      </trkpt>
      <trkpt lat="46.43273" lon="5.21926">
        <ele>221</ele>
        <time>2022-01-24T14:25:26Z</time>
      </trkpt>
      <trkpt lat="46.43293" lon="5.2196">
        <ele>221.2</ele>
        <time>2022-01-24T14:25:31Z</time>
      </trkpt>
      <trkpt lat="46.43323" lon="5.2202">
        <ele>220.4</ele>
        <time>2022-01-24T14:25:39Z</time>
      </trkpt>
      <trkpt lat="46.43347" lon="5.22065">
        <ele>220</ele>
        <time>2022-01-24T14:25:44Z</time>
      </trkpt>
      <trkpt lat="46.43363" lon="5.22086">
        <ele>219.2</ele>
        <time>2022-01-24T14:25:47Z</time>
      </trkpt>
      <trkpt lat="46.43382" lon="5.22107">
        <ele>218.6</ele>
        <time>2022-01-24T14:25:50Z</time>
      </trkpt>
      <trkpt lat="46.43388" lon="5.22113">
        <ele>218.2</ele>
        <time>2022-01-24T14:25:51Z</time>
      </trkpt>
      <trkpt lat="46.4343" lon="5.22156">
        <ele>217.2</ele>
        <time>2022-01-24T14:25:58Z</time>
      </trkpt>
      <trkpt lat="46.43437" lon="5.22161">
        <ele>217.2</ele>
        <time>2022-01-24T14:25:59Z</time>
      </trkpt>
      <trkpt lat="46.43463" lon="5.22177">
        <ele>217</ele>
        <time>2022-01-24T14:26:03Z</time>
      </trkpt>
      <trkpt lat="46.43499" lon="5.22186">
        <ele>217.2</ele>
        <time>2022-01-24T14:26:09Z</time>
      </trkpt>
      <trkpt lat="46.43524" lon="5.22188">
        <ele>217.4</ele>
        <time>2022-01-24T14:26:13Z</time>
      </trkpt>
      <trkpt lat="46.43547" lon="5.22192">
        <ele>217.8</ele>
        <time>2022-01-24T14:26:17Z</time>
      </trkpt>
      <trkpt lat="46.43575" lon="5.22205">
        <ele>218</ele>
        <time>2022-01-24T14:26:22Z</time>
      </trkpt>
      <trkpt lat="46.43591" lon="5.22215">
        <ele>217.8</ele>
        <time>2022-01-24T14:26:25Z</time>
      </trkpt>
      <trkpt lat="46.43626" lon="5.22244">
        <ele>218.2</ele>
        <time>2022-01-24T14:26:32Z</time>
      </trkpt>
      <trkpt lat="46.43663" lon="5.22281">
        <ele>218.4</ele>
        <time>2022-01-24T14:26:40Z</time>
      </trkpt>
      <trkpt lat="46.43668" lon="5.22285">
        <ele>218.4</ele>
        <time>2022-01-24T14:26:41Z</time>
      </trkpt>
      <trkpt lat="46.43689" lon="5.22307">
        <ele>219.4</ele>
        <time>2022-01-24T14:26:46Z</time>
      </trkpt>
      <trkpt lat="46.43692" lon="5.22311">
        <ele>219.6</ele>
        <time>2022-01-24T14:26:47Z</time>
      </trkpt>
      <trkpt lat="46.43732" lon="5.22349">
        <ele>220.2</ele>
        <time>2022-01-24T14:26:55Z</time>
      </trkpt>
      <trkpt lat="46.43747" lon="5.22363">
        <ele>220.4</ele>
        <time>2022-01-24T14:26:58Z</time>
      </trkpt>
      <trkpt lat="46.43787" lon="5.22403">
        <ele>220.6</ele>
        <time>2022-01-24T14:27:06Z</time>
      </trkpt>
      <trkpt lat="46.43824" lon="5.22436">
        <ele>220.2</ele>
        <time>2022-01-24T14:27:13Z</time>
      </trkpt>
      <trkpt lat="46.43876" lon="5.22476">
        <ele>219.4</ele>
        <time>2022-01-24T14:27:22Z</time>
      </trkpt>
      <trkpt lat="46.43882" lon="5.22479">
        <ele>219.4</ele>
        <time>2022-01-24T14:27:23Z</time>
      </trkpt>
      <trkpt lat="46.43895" lon="5.22484">
        <ele>219.2</ele>
        <time>2022-01-24T14:27:25Z</time>
      </trkpt>
      <trkpt lat="46.43921" lon="5.22489">
        <ele>219</ele>
        <time>2022-01-24T14:27:29Z</time>
      </trkpt>
      <trkpt lat="46.43927" lon="5.2249">
        <ele>219</ele>
        <time>2022-01-24T14:27:30Z</time>
      </trkpt>
      <trkpt lat="46.4395" lon="5.2249">
        <ele>218.8</ele>
        <time>2022-01-24T14:27:34Z</time>
      </trkpt>
      <trkpt lat="46.43956" lon="5.22489">
        <ele>218.8</ele>
        <time>2022-01-24T14:27:35Z</time>
      </trkpt>
      <trkpt lat="46.43995" lon="5.22488">
        <ele>218.8</ele>
        <time>2022-01-24T14:27:41Z</time>
      </trkpt>
      <trkpt lat="46.44043" lon="5.2249">
        <ele>218.4</ele>
        <time>2022-01-24T14:27:48Z</time>
      </trkpt>
      <trkpt lat="46.4405" lon="5.22492">
        <ele>218.2</ele>
        <time>2022-01-24T14:27:49Z</time>
      </trkpt>
      <trkpt lat="46.44097" lon="5.22496">
        <ele>218</ele>
        <time>2022-01-24T14:27:56Z</time>
      </trkpt>
      <trkpt lat="46.4411" lon="5.22491">
        <ele>218</ele>
        <time>2022-01-24T14:27:58Z</time>
      </trkpt>
      <trkpt lat="46.44122" lon="5.22479">
        <ele>217.8</ele>
        <time>2022-01-24T14:28:00Z</time>
      </trkpt>
      <trkpt lat="46.44131" lon="5.22464">
        <ele>217.6</ele>
        <time>2022-01-24T14:28:02Z</time>
      </trkpt>
      <trkpt lat="46.44137" lon="5.22445">
        <ele>217.6</ele>
        <time>2022-01-24T14:28:04Z</time>
      </trkpt>
      <trkpt lat="46.4415" lon="5.22401">
        <ele>217.4</ele>
        <time>2022-01-24T14:28:09Z</time>
      </trkpt>
      <trkpt lat="46.44154" lon="5.22394">
        <ele>217.4</ele>
        <time>2022-01-24T14:28:10Z</time>
      </trkpt>
      <trkpt lat="46.44159" lon="5.22387">
        <ele>217.4</ele>
        <time>2022-01-24T14:28:11Z</time>
      </trkpt>
      <trkpt lat="46.44171" lon="5.22379">
        <ele>217.4</ele>
        <time>2022-01-24T14:28:13Z</time>
      </trkpt>
      <trkpt lat="46.44184" lon="5.22376">
        <ele>217.2</ele>
        <time>2022-01-24T14:28:15Z</time>
      </trkpt>
      <trkpt lat="46.44197" lon="5.22379">
        <ele>217.2</ele>
        <time>2022-01-24T14:28:17Z</time>
      </trkpt>
      <trkpt lat="46.44251" lon="5.22394">
        <ele>217.2</ele>
        <time>2022-01-24T14:28:26Z</time>
      </trkpt>
      <trkpt lat="46.44305" lon="5.22404">
        <ele>217.6</ele>
        <time>2022-01-24T14:28:35Z</time>
      </trkpt>
      <trkpt lat="46.44352" lon="5.22417">
        <ele>218.2</ele>
        <time>2022-01-24T14:28:43Z</time>
      </trkpt>
      <trkpt lat="46.44358" lon="5.22419">
        <ele>218.2</ele>
        <time>2022-01-24T14:28:44Z</time>
      </trkpt>
      <trkpt lat="46.44378" lon="5.22427">
        <ele>218</ele>
        <time>2022-01-24T14:28:47Z</time>
      </trkpt>
      <trkpt lat="46.44412" lon="5.22458">
        <ele>217.4</ele>
        <time>2022-01-24T14:28:53Z</time>
      </trkpt>
      <trkpt lat="46.44442" lon="5.22475">
        <ele>217.2</ele>
        <time>2022-01-24T14:28:58Z</time>
      </trkpt>
      <trkpt lat="46.44499" lon="5.22502">
        <ele>216.8</ele>
        <time>2022-01-24T14:29:07Z</time>
      </trkpt>
      <trkpt lat="46.44517" lon="5.2251">
        <ele>216.8</ele>
        <time>2022-01-24T14:29:10Z</time>
      </trkpt>
      <trkpt lat="46.4457" lon="5.22539">
        <ele>216.6</ele>
        <time>2022-01-24T14:29:19Z</time>
      </trkpt>
      <trkpt lat="46.44576" lon="5.22542">
        <ele>216.6</ele>
        <time>2022-01-24T14:29:20Z</time>
      </trkpt>
      <trkpt lat="46.44605" lon="5.22562">
        <ele>216.2</ele>
        <time>2022-01-24T14:29:25Z</time>
      </trkpt>
      <trkpt lat="46.44621" lon="5.22572">
        <ele>216.2</ele>
        <time>2022-01-24T14:29:28Z</time>
      </trkpt>
      <trkpt lat="46.44637" lon="5.22578">
        <ele>216.2</ele>
        <time>2022-01-24T14:29:31Z</time>
      </trkpt>
      <trkpt lat="46.44648" lon="5.22581">
        <ele>216.2</ele>
        <time>2022-01-24T14:29:33Z</time>
      </trkpt>
      <trkpt lat="46.44662" lon="5.22589">
        <ele>216.4</ele>
        <time>2022-01-24T14:29:36Z</time>
      </trkpt>
      <trkpt lat="46.44669" lon="5.22599">
        <ele>216.4</ele>
        <time>2022-01-24T14:29:38Z</time>
      </trkpt>
      <trkpt lat="46.44672" lon="5.22612">
        <ele>216.4</ele>
        <time>2022-01-24T14:29:40Z</time>
      </trkpt>
      <trkpt lat="46.44673" lon="5.2262">
        <ele>216.4</ele>
        <time>2022-01-24T14:29:41Z</time>
      </trkpt>
      <trkpt lat="46.44675" lon="5.22668">
        <ele>216</ele>
        <time>2022-01-24T14:29:46Z</time>
      </trkpt>
      <trkpt lat="46.44677" lon="5.22724">
        <ele>216</ele>
        <time>2022-01-24T14:29:52Z</time>
      </trkpt>
      <trkpt lat="46.4468" lon="5.22804">
        <ele>216.6</ele>
        <time>2022-01-24T14:30:01Z</time>
      </trkpt>
      <trkpt lat="46.4468" lon="5.22813">
        <ele>216.6</ele>
        <time>2022-01-24T14:30:02Z</time>
      </trkpt>
      <trkpt lat="46.44681" lon="5.22821">
        <ele>216.6</ele>
        <time>2022-01-24T14:30:03Z</time>
      </trkpt>
      <trkpt lat="46.44685" lon="5.22837">
        <ele>216.8</ele>
        <time>2022-01-24T14:30:05Z</time>
      </trkpt>
      <trkpt lat="46.44689" lon="5.22844">
        <ele>216.8</ele>
        <time>2022-01-24T14:30:06Z</time>
      </trkpt>
      <trkpt lat="46.44694" lon="5.22849">
        <ele>216.8</ele>
        <time>2022-01-24T14:30:07Z</time>
      </trkpt>
      <trkpt lat="46.44712" lon="5.22861">
        <ele>216.4</ele>
        <time>2022-01-24T14:30:10Z</time>
      </trkpt>
      <trkpt lat="46.44756" lon="5.22895">
        <ele>216</ele>
        <time>2022-01-24T14:30:17Z</time>
      </trkpt>
      <trkpt lat="46.44791" lon="5.22924">
        <ele>215.4</ele>
        <time>2022-01-24T14:30:23Z</time>
      </trkpt>
      <trkpt lat="46.44803" lon="5.22932">
        <ele>215.4</ele>
        <time>2022-01-24T14:30:25Z</time>
      </trkpt>
      <trkpt lat="46.44837" lon="5.22958">
        <ele>215.2</ele>
        <time>2022-01-24T14:30:31Z</time>
      </trkpt>
      <trkpt lat="46.44846" lon="5.22971">
        <ele>215.4</ele>
        <time>2022-01-24T14:30:33Z</time>
      </trkpt>
      <trkpt lat="46.44853" lon="5.22986">
        <ele>215.2</ele>
        <time>2022-01-24T14:30:35Z</time>
      </trkpt>
      <trkpt lat="46.44858" lon="5.23002">
        <ele>215.2</ele>
        <time>2022-01-24T14:30:37Z</time>
      </trkpt>
      <trkpt lat="46.44881" lon="5.23063">
        <ele>215.8</ele>
        <time>2022-01-24T14:30:45Z</time>
      </trkpt>
      <trkpt lat="46.44893" lon="5.23083">
        <ele>216</ele>
        <time>2022-01-24T14:30:48Z</time>
      </trkpt>
      <trkpt lat="46.44906" lon="5.23099">
        <ele>216.2</ele>
        <time>2022-01-24T14:30:51Z</time>
      </trkpt>
      <trkpt lat="46.44922" lon="5.23114">
        <ele>216.2</ele>
        <time>2022-01-24T14:30:55Z</time>
      </trkpt>
      <trkpt lat="46.44928" lon="5.23121">
        <ele>216.2</ele>
        <time>2022-01-24T14:30:57Z</time>
      </trkpt>
      <trkpt lat="46.44931" lon="5.23121">
        <ele>216.2</ele>
        <time>2022-01-24T14:30:58Z</time>
      </trkpt>
      <trkpt lat="46.44937" lon="5.23117">
        <ele>216.4</ele>
        <time>2022-01-24T14:31:00Z</time>
      </trkpt>
      <trkpt lat="46.44943" lon="5.23106">
        <ele>216.2</ele>
        <time>2022-01-24T14:31:02Z</time>
      </trkpt>
      <trkpt lat="46.44949" lon="5.23092">
        <ele>216.4</ele>
        <time>2022-01-24T14:31:04Z</time>
      </trkpt>
      <trkpt lat="46.4496" lon="5.23044">
        <ele>216.4</ele>
        <time>2022-01-24T14:31:09Z</time>
      </trkpt>
      <trkpt lat="46.44976" lon="5.22969">
        <ele>215.4</ele>
        <time>2022-01-24T14:31:16Z</time>
      </trkpt>
      <trkpt lat="46.44978" lon="5.22959">
        <ele>215.4</ele>
        <time>2022-01-24T14:31:17Z</time>
      </trkpt>
      <trkpt lat="46.44987" lon="5.22918">
        <ele>215.2</ele>
        <time>2022-01-24T14:31:21Z</time>
      </trkpt>
      <trkpt lat="46.44995" lon="5.229">
        <ele>215</ele>
        <time>2022-01-24T14:31:23Z</time>
      </trkpt>
      <trkpt lat="46.44999" lon="5.22892">
        <ele>215</ele>
        <time>2022-01-24T14:31:24Z</time>
      </trkpt>
      <trkpt lat="46.45009" lon="5.22879">
        <ele>215</ele>
        <time>2022-01-24T14:31:26Z</time>
      </trkpt>
      <trkpt lat="46.45015" lon="5.22873">
        <ele>215</ele>
        <time>2022-01-24T14:31:27Z</time>
      </trkpt>
      <trkpt lat="46.45056" lon="5.22847">
        <ele>215.4</ele>
        <time>2022-01-24T14:31:34Z</time>
      </trkpt>
      <trkpt lat="46.45067" lon="5.22839">
        <ele>215.6</ele>
        <time>2022-01-24T14:31:36Z</time>
      </trkpt>
      <trkpt lat="46.45076" lon="5.22827">
        <ele>215.8</ele>
        <time>2022-01-24T14:31:38Z</time>
      </trkpt>
      <trkpt lat="46.45081" lon="5.2281">
        <ele>215.8</ele>
        <time>2022-01-24T14:31:40Z</time>
      </trkpt>
      <trkpt lat="46.45082" lon="5.22802">
        <ele>216</ele>
        <time>2022-01-24T14:31:41Z</time>
      </trkpt>
      <trkpt lat="46.45096" lon="5.22722">
        <ele>216.2</ele>
        <time>2022-01-24T14:31:50Z</time>
      </trkpt>
      <trkpt lat="46.45117" lon="5.22665">
        <ele>216.2</ele>
        <time>2022-01-24T14:31:57Z</time>
      </trkpt>
      <trkpt lat="46.45128" lon="5.22631">
        <ele>216.2</ele>
        <time>2022-01-24T14:32:01Z</time>
      </trkpt>
      <trkpt lat="46.45138" lon="5.22597">
        <ele>216.2</ele>
        <time>2022-01-24T14:32:05Z</time>
      </trkpt>
      <trkpt lat="46.45159" lon="5.22517">
        <ele>216</ele>
        <time>2022-01-24T14:32:14Z</time>
      </trkpt>
      <trkpt lat="46.45164" lon="5.22499">
        <ele>216</ele>
        <time>2022-01-24T14:32:16Z</time>
      </trkpt>
      <trkpt lat="46.45185" lon="5.22428">
        <ele>215.8</ele>
        <time>2022-01-24T14:32:24Z</time>
      </trkpt>
      <trkpt lat="46.45212" lon="5.22356">
        <ele>215.8</ele>
        <time>2022-01-24T14:32:33Z</time>
      </trkpt>
      <trkpt lat="46.45231" lon="5.22317">
        <ele>216</ele>
        <time>2022-01-24T14:32:38Z</time>
      </trkpt>
      <trkpt lat="46.45241" lon="5.22307">
        <ele>215.8</ele>
        <time>2022-01-24T14:32:40Z</time>
      </trkpt>
      <trkpt lat="46.45253" lon="5.22299">
        <ele>215.8</ele>
        <time>2022-01-24T14:32:42Z</time>
      </trkpt>
      <trkpt lat="46.45296" lon="5.22271">
        <ele>215.4</ele>
        <time>2022-01-24T14:32:49Z</time>
      </trkpt>
      <trkpt lat="46.45339" lon="5.22247">
        <ele>215.2</ele>
        <time>2022-01-24T14:32:56Z</time>
      </trkpt>
      <trkpt lat="46.45344" lon="5.22244">
        <ele>215.2</ele>
        <time>2022-01-24T14:32:57Z</time>
      </trkpt>
      <trkpt lat="46.45398" lon="5.22211">
        <ele>215.2</ele>
        <time>2022-01-24T14:33:06Z</time>
      </trkpt>
      <trkpt lat="46.45414" lon="5.22196">
        <ele>215</ele>
        <time>2022-01-24T14:33:09Z</time>
      </trkpt>
      <trkpt lat="46.45425" lon="5.22182">
        <ele>215</ele>
        <time>2022-01-24T14:33:11Z</time>
      </trkpt>
      <trkpt lat="46.45449" lon="5.22132">
        <ele>214.8</ele>
        <time>2022-01-24T14:33:17Z</time>
      </trkpt>
      <trkpt lat="46.45465" lon="5.22083">
        <ele>214</ele>
        <time>2022-01-24T14:33:22Z</time>
      </trkpt>
      <trkpt lat="46.45491" lon="5.22006">
        <ele>213.4</ele>
        <time>2022-01-24T14:33:30Z</time>
      </trkpt>
      <trkpt lat="46.45495" lon="5.21997">
        <ele>213.4</ele>
        <time>2022-01-24T14:33:31Z</time>
      </trkpt>
      <trkpt lat="46.45521" lon="5.21928">
        <ele>213.4</ele>
        <time>2022-01-24T14:33:39Z</time>
      </trkpt>
      <trkpt lat="46.45524" lon="5.2192">
        <ele>213.4</ele>
        <time>2022-01-24T14:33:40Z</time>
      </trkpt>
      <trkpt lat="46.45545" lon="5.21874">
        <ele>213.6</ele>
        <time>2022-01-24T14:33:46Z</time>
      </trkpt>
      <trkpt lat="46.45575" lon="5.21806">
        <ele>214.2</ele>
        <time>2022-01-24T14:33:54Z</time>
      </trkpt>
      <trkpt lat="46.45581" lon="5.21789">
        <ele>214.4</ele>
        <time>2022-01-24T14:33:56Z</time>
      </trkpt>
      <trkpt lat="46.4561" lon="5.21717">
        <ele>214</ele>
        <time>2022-01-24T14:34:04Z</time>
      </trkpt>
      <trkpt lat="46.45615" lon="5.21708">
        <ele>213.8</ele>
        <time>2022-01-24T14:34:05Z</time>
      </trkpt>
      <trkpt lat="46.45647" lon="5.21647">
        <ele>213.4</ele>
        <time>2022-01-24T14:34:12Z</time>
      </trkpt>
      <trkpt lat="46.45673" lon="5.216">
        <ele>213.4</ele>
        <time>2022-01-24T14:34:18Z</time>
      </trkpt>
      <trkpt lat="46.45707" lon="5.21549">
        <ele>214</ele>
        <time>2022-01-24T14:34:26Z</time>
      </trkpt>
      <trkpt lat="46.45738" lon="5.21522">
        <ele>214.4</ele>
        <time>2022-01-24T14:34:32Z</time>
      </trkpt>
      <trkpt lat="46.4579" lon="5.21498">
        <ele>215</ele>
        <time>2022-01-24T14:34:41Z</time>
      </trkpt>
      <trkpt lat="46.45831" lon="5.21493">
        <ele>215</ele>
        <time>2022-01-24T14:34:47Z</time>
      </trkpt>
      <trkpt lat="46.45886" lon="5.21504">
        <ele>214.2</ele>
        <time>2022-01-24T14:34:55Z</time>
      </trkpt>
      <trkpt lat="46.45895" lon="5.21507">
        <ele>214</ele>
        <time>2022-01-24T14:34:56Z</time>
      </trkpt>
      <trkpt lat="46.45944" lon="5.21523">
        <ele>213</ele>
        <time>2022-01-24T14:35:03Z</time>
      </trkpt>
      <trkpt lat="46.45951" lon="5.21526">
        <ele>212.8</ele>
        <time>2022-01-24T14:35:04Z</time>
      </trkpt>
      <trkpt lat="46.46" lon="5.21551">
        <ele>212.4</ele>
        <time>2022-01-24T14:35:11Z</time>
      </trkpt>
      <trkpt lat="46.46027" lon="5.21572">
        <ele>211.6</ele>
        <time>2022-01-24T14:35:15Z</time>
      </trkpt>
      <trkpt lat="46.46039" lon="5.21585">
        <ele>211</ele>
        <time>2022-01-24T14:35:17Z</time>
      </trkpt>
      <trkpt lat="46.46056" lon="5.21604">
        <ele>210.4</ele>
        <time>2022-01-24T14:35:20Z</time>
      </trkpt>
      <trkpt lat="46.46086" lon="5.21641">
        <ele>210</ele>
        <time>2022-01-24T14:35:26Z</time>
      </trkpt>
      <trkpt lat="46.4612" lon="5.21683">
        <ele>210</ele>
        <time>2022-01-24T14:35:33Z</time>
      </trkpt>
      <trkpt lat="46.46131" lon="5.21697">
        <ele>210</ele>
        <time>2022-01-24T14:35:36Z</time>
      </trkpt>
      <trkpt lat="46.46135" lon="5.21701">
        <ele>210</ele>
        <time>2022-01-24T14:35:37Z</time>
      </trkpt>
      <trkpt lat="46.46142" lon="5.21711">
        <ele>210</ele>
        <time>2022-01-24T14:35:41Z</time>
      </trkpt>
      <trkpt lat="46.46143" lon="5.21711">
        <ele>209.8</ele>
        <time>2022-01-24T14:35:44Z</time>
      </trkpt>
      <trkpt lat="46.46145" lon="5.21718">
        <ele>209.2</ele>
        <time>2022-01-24T14:37:04Z</time>
      </trkpt>
      <trkpt lat="46.46155" lon="5.21736">
        <ele>209</ele>
        <time>2022-01-24T14:37:08Z</time>
      </trkpt>
      <trkpt lat="46.46177" lon="5.21771">
        <ele>208.2</ele>
        <time>2022-01-24T14:37:13Z</time>
      </trkpt>
      <trkpt lat="46.46207" lon="5.21818">
        <ele>207.2</ele>
        <time>2022-01-24T14:37:19Z</time>
      </trkpt>
      <trkpt lat="46.46212" lon="5.21826">
        <ele>206.8</ele>
        <time>2022-01-24T14:37:20Z</time>
      </trkpt>
      <trkpt lat="46.46239" lon="5.21865">
        <ele>205.8</ele>
        <time>2022-01-24T14:37:25Z</time>
      </trkpt>
      <trkpt lat="46.46249" lon="5.21881">
        <ele>205.4</ele>
        <time>2022-01-24T14:37:27Z</time>
      </trkpt>
      <trkpt lat="46.46273" lon="5.21916">
        <ele>204.8</ele>
        <time>2022-01-24T14:37:32Z</time>
      </trkpt>
      <trkpt lat="46.46278" lon="5.21921">
        <ele>204.6</ele>
        <time>2022-01-24T14:37:33Z</time>
      </trkpt>
      <trkpt lat="46.46289" lon="5.2193">
        <ele>204.6</ele>
        <time>2022-01-24T14:37:35Z</time>
      </trkpt>
      <trkpt lat="46.46304" lon="5.21941">
        <ele>204.6</ele>
        <time>2022-01-24T14:37:38Z</time>
      </trkpt>
      <trkpt lat="46.46328" lon="5.21955">
        <ele>204.6</ele>
        <time>2022-01-24T14:37:43Z</time>
      </trkpt>
      <trkpt lat="46.46353" lon="5.21969">
        <ele>205.8</ele>
        <time>2022-01-24T14:37:49Z</time>
      </trkpt>
      <trkpt lat="46.46379" lon="5.21982">
        <ele>207</ele>
        <time>2022-01-24T14:37:55Z</time>
      </trkpt>
      <trkpt lat="46.46393" lon="5.21988">
        <ele>207</ele>
        <time>2022-01-24T14:37:58Z</time>
      </trkpt>
      <trkpt lat="46.46429" lon="5.21996">
        <ele>208</ele>
        <time>2022-01-24T14:38:06Z</time>
      </trkpt>
      <trkpt lat="46.46434" lon="5.21996">
        <ele>208.2</ele>
        <time>2022-01-24T14:38:07Z</time>
      </trkpt>
      <trkpt lat="46.4647" lon="5.22004">
        <ele>209</ele>
        <time>2022-01-24T14:38:15Z</time>
      </trkpt>
      <trkpt lat="46.46474" lon="5.22005">
        <ele>209.2</ele>
        <time>2022-01-24T14:38:16Z</time>
      </trkpt>
      <trkpt lat="46.46518" lon="5.2202">
        <ele>209.8</ele>
        <time>2022-01-24T14:38:25Z</time>
      </trkpt>
      <trkpt lat="46.46562" lon="5.22033">
        <ele>209.4</ele>
        <time>2022-01-24T14:38:33Z</time>
      </trkpt>
      <trkpt lat="46.46594" lon="5.2203">
        <ele>209.2</ele>
        <time>2022-01-24T14:38:39Z</time>
      </trkpt>
      <trkpt lat="46.4664" lon="5.2202">
        <ele>208.4</ele>
        <time>2022-01-24T14:38:47Z</time>
      </trkpt>
      <trkpt lat="46.46679" lon="5.22018">
        <ele>208</ele>
        <time>2022-01-24T14:38:53Z</time>
      </trkpt>
      <trkpt lat="46.46686" lon="5.22017">
        <ele>207.8</ele>
        <time>2022-01-24T14:38:54Z</time>
      </trkpt>
      <trkpt lat="46.4673" lon="5.22016">
        <ele>206.4</ele>
        <time>2022-01-24T14:39:00Z</time>
      </trkpt>
      <trkpt lat="46.46737" lon="5.22015">
        <ele>206.2</ele>
        <time>2022-01-24T14:39:01Z</time>
      </trkpt>
      <trkpt lat="46.46766" lon="5.22009">
        <ele>205.4</ele>
        <time>2022-01-24T14:39:05Z</time>
      </trkpt>
      <trkpt lat="46.4678" lon="5.22003">
        <ele>205</ele>
        <time>2022-01-24T14:39:07Z</time>
      </trkpt>
      <trkpt lat="46.46795" lon="5.21999">
        <ele>204.8</ele>
        <time>2022-01-24T14:39:09Z</time>
      </trkpt>
      <trkpt lat="46.4681" lon="5.21999">
        <ele>204.2</ele>
        <time>2022-01-24T14:39:11Z</time>
      </trkpt>
      <trkpt lat="46.46825" lon="5.22009">
        <ele>203.8</ele>
        <time>2022-01-24T14:39:13Z</time>
      </trkpt>
      <trkpt lat="46.46833" lon="5.22016">
        <ele>203.2</ele>
        <time>2022-01-24T14:39:14Z</time>
      </trkpt>
      <trkpt lat="46.46839" lon="5.22025">
        <ele>203</ele>
        <time>2022-01-24T14:39:15Z</time>
      </trkpt>
      <trkpt lat="46.46855" lon="5.22057">
        <ele>201.4</ele>
        <time>2022-01-24T14:39:18Z</time>
      </trkpt>
      <trkpt lat="46.46871" lon="5.2209">
        <ele>200.4</ele>
        <time>2022-01-24T14:39:21Z</time>
      </trkpt>
      <trkpt lat="46.46876" lon="5.22101">
        <ele>199.6</ele>
        <time>2022-01-24T14:39:22Z</time>
      </trkpt>
      <trkpt lat="46.46882" lon="5.2211">
        <ele>198.4</ele>
        <time>2022-01-24T14:39:23Z</time>
      </trkpt>
      <trkpt lat="46.46889" lon="5.22118">
        <ele>198.2</ele>
        <time>2022-01-24T14:39:24Z</time>
      </trkpt>
      <trkpt lat="46.46898" lon="5.22125">
        <ele>197.6</ele>
        <time>2022-01-24T14:39:25Z</time>
      </trkpt>
      <trkpt lat="46.46907" lon="5.22129">
        <ele>197.2</ele>
        <time>2022-01-24T14:39:26Z</time>
      </trkpt>
      <trkpt lat="46.46916" lon="5.22132">
        <ele>196.6</ele>
        <time>2022-01-24T14:39:27Z</time>
      </trkpt>
      <trkpt lat="46.46926" lon="5.22132">
        <ele>196.4</ele>
        <time>2022-01-24T14:39:28Z</time>
      </trkpt>
      <trkpt lat="46.46945" lon="5.22132">
        <ele>195</ele>
        <time>2022-01-24T14:39:30Z</time>
      </trkpt>
      <trkpt lat="46.46962" lon="5.22133">
        <ele>194</ele>
        <time>2022-01-24T14:39:32Z</time>
      </trkpt>
      <trkpt lat="46.46969" lon="5.22133">
        <ele>194</ele>
        <time>2022-01-24T14:39:33Z</time>
      </trkpt>
      <trkpt lat="46.46998" lon="5.22131">
        <ele>193.8</ele>
        <time>2022-01-24T14:39:37Z</time>
      </trkpt>
      <trkpt lat="46.47026" lon="5.2213">
        <ele>194.8</ele>
        <time>2022-01-24T14:39:42Z</time>
      </trkpt>
      <trkpt lat="46.47032" lon="5.2213">
        <ele>195</ele>
        <time>2022-01-24T14:39:43Z</time>
      </trkpt>
      <trkpt lat="46.47054" lon="5.22134">
        <ele>196</ele>
        <time>2022-01-24T14:39:47Z</time>
      </trkpt>
      <trkpt lat="46.47065" lon="5.22137">
        <ele>196.8</ele>
        <time>2022-01-24T14:39:49Z</time>
      </trkpt>
      <trkpt lat="46.4707" lon="5.22139">
        <ele>197.2</ele>
        <time>2022-01-24T14:39:50Z</time>
      </trkpt>
      <trkpt lat="46.4709" lon="5.22145">
        <ele>198.2</ele>
        <time>2022-01-24T14:39:54Z</time>
      </trkpt>
      <trkpt lat="46.47105" lon="5.22151">
        <ele>198.6</ele>
        <time>2022-01-24T14:39:57Z</time>
      </trkpt>
      <trkpt lat="46.47124" lon="5.22158">
        <ele>199.2</ele>
        <time>2022-01-24T14:40:01Z</time>
      </trkpt>
      <trkpt lat="46.47143" lon="5.22164">
        <ele>199.8</ele>
        <time>2022-01-24T14:40:05Z</time>
      </trkpt>
      <trkpt lat="46.47158" lon="5.2217">
        <ele>200</ele>
        <time>2022-01-24T14:40:08Z</time>
      </trkpt>
      <trkpt lat="46.4719" lon="5.22182">
        <ele>200.8</ele>
        <time>2022-01-24T14:40:15Z</time>
      </trkpt>
      <trkpt lat="46.47204" lon="5.22187">
        <ele>201.2</ele>
        <time>2022-01-24T14:40:18Z</time>
      </trkpt>
      <trkpt lat="46.47232" lon="5.22197">
        <ele>202</ele>
        <time>2022-01-24T14:40:24Z</time>
      </trkpt>
      <trkpt lat="46.47236" lon="5.22199">
        <ele>202</ele>
        <time>2022-01-24T14:40:25Z</time>
      </trkpt>
      <trkpt lat="46.47245" lon="5.22202">
        <ele>202.2</ele>
        <time>2022-01-24T14:40:27Z</time>
      </trkpt>
      <trkpt lat="46.47271" lon="5.22211">
        <ele>203</ele>
        <time>2022-01-24T14:40:33Z</time>
      </trkpt>
      <trkpt lat="46.4728" lon="5.22215">
        <ele>203.4</ele>
        <time>2022-01-24T14:40:35Z</time>
      </trkpt>
      <trkpt lat="46.47316" lon="5.22228">
        <ele>204.2</ele>
        <time>2022-01-24T14:40:43Z</time>
      </trkpt>
      <trkpt lat="46.4733" lon="5.22233">
        <ele>204.4</ele>
        <time>2022-01-24T14:40:46Z</time>
      </trkpt>
      <trkpt lat="46.4736" lon="5.22245">
        <ele>205.6</ele>
        <time>2022-01-24T14:40:53Z</time>
      </trkpt>
      <trkpt lat="46.47396" lon="5.22264">
        <ele>206.6</ele>
        <time>2022-01-24T14:41:01Z</time>
      </trkpt>
      <trkpt lat="46.47406" lon="5.2227">
        <ele>206.6</ele>
        <time>2022-01-24T14:41:03Z</time>
      </trkpt>
      <trkpt lat="46.47443" lon="5.2229">
        <ele>207</ele>
        <time>2022-01-24T14:41:10Z</time>
      </trkpt>
      <trkpt lat="46.47481" lon="5.22312">
        <ele>207</ele>
        <time>2022-01-24T14:41:17Z</time>
      </trkpt>
      <trkpt lat="46.47487" lon="5.22316">
        <ele>207</ele>
        <time>2022-01-24T14:41:18Z</time>
      </trkpt>
      <trkpt lat="46.4751" lon="5.22329">
        <ele>207</ele>
        <time>2022-01-24T14:41:22Z</time>
      </trkpt>
      <trkpt lat="46.47561" lon="5.22356">
        <ele>207</ele>
        <time>2022-01-24T14:41:31Z</time>
      </trkpt>
      <trkpt lat="46.47566" lon="5.22359">
        <ele>207</ele>
        <time>2022-01-24T14:41:32Z</time>
      </trkpt>
      <trkpt lat="46.47611" lon="5.22377">
        <ele>207.6</ele>
        <time>2022-01-24T14:41:40Z</time>
      </trkpt>
      <trkpt lat="46.47658" lon="5.22394">
        <ele>208.2</ele>
        <time>2022-01-24T14:41:49Z</time>
      </trkpt>
      <trkpt lat="46.47695" lon="5.22399">
        <ele>208.6</ele>
        <time>2022-01-24T14:41:56Z</time>
      </trkpt>
      <trkpt lat="46.477" lon="5.22399">
        <ele>208.6</ele>
        <time>2022-01-24T14:41:57Z</time>
      </trkpt>
      <trkpt lat="46.47749" lon="5.22403">
        <ele>209.6</ele>
        <time>2022-01-24T14:42:06Z</time>
      </trkpt>
      <trkpt lat="46.47773" lon="5.22403">
        <ele>209.2</ele>
        <time>2022-01-24T14:42:11Z</time>
      </trkpt>
      <trkpt lat="46.47776" lon="5.22402">
        <ele>209.2</ele>
        <time>2022-01-24T14:42:12Z</time>
      </trkpt>
      <trkpt lat="46.47779" lon="5.22393">
        <ele>209</ele>
        <time>2022-01-24T14:42:14Z</time>
      </trkpt>
      <trkpt lat="46.47779" lon="5.2238">
        <ele>208.8</ele>
        <time>2022-01-24T14:42:16Z</time>
      </trkpt>
      <trkpt lat="46.47774" lon="5.22363">
        <ele>208.4</ele>
        <time>2022-01-24T14:42:18Z</time>
      </trkpt>
      <trkpt lat="46.47773" lon="5.22355">
        <ele>208.2</ele>
        <time>2022-01-24T14:42:19Z</time>
      </trkpt>
      <trkpt lat="46.47771" lon="5.22337">
        <ele>208.2</ele>
        <time>2022-01-24T14:42:21Z</time>
      </trkpt>
      <trkpt lat="46.47773" lon="5.22329">
        <ele>208.2</ele>
        <time>2022-01-24T14:42:22Z</time>
      </trkpt>
      <trkpt lat="46.47777" lon="5.22322">
        <ele>207.8</ele>
        <time>2022-01-24T14:42:23Z</time>
      </trkpt>
      <trkpt lat="46.47783" lon="5.22318">
        <ele>207.8</ele>
        <time>2022-01-24T14:42:24Z</time>
      </trkpt>
      <trkpt lat="46.47789" lon="5.22316">
        <ele>207.8</ele>
        <time>2022-01-24T14:42:25Z</time>
      </trkpt>
      <trkpt lat="46.47807" lon="5.22314">
        <ele>207.8</ele>
        <time>2022-01-24T14:42:28Z</time>
      </trkpt>
      <trkpt lat="46.47852" lon="5.22309">
        <ele>208.2</ele>
        <time>2022-01-24T14:42:35Z</time>
      </trkpt>
      <trkpt lat="46.47903" lon="5.22301">
        <ele>208.2</ele>
        <time>2022-01-24T14:42:42Z</time>
      </trkpt>
      <trkpt lat="46.47948" lon="5.22294">
        <ele>207.6</ele>
        <time>2022-01-24T14:42:48Z</time>
      </trkpt>
      <trkpt lat="46.47985" lon="5.22289">
        <ele>206.6</ele>
        <time>2022-01-24T14:42:53Z</time>
      </trkpt>
      <trkpt lat="46.47992" lon="5.22289">
        <ele>206.6</ele>
        <time>2022-01-24T14:42:54Z</time>
      </trkpt>
      <trkpt lat="46.48043" lon="5.22285">
        <ele>205.8</ele>
        <time>2022-01-24T14:43:01Z</time>
      </trkpt>
      <trkpt lat="46.48056" lon="5.22278">
        <ele>205.6</ele>
        <time>2022-01-24T14:43:03Z</time>
      </trkpt>
      <trkpt lat="46.48069" lon="5.22268">
        <ele>205.6</ele>
        <time>2022-01-24T14:43:05Z</time>
      </trkpt>
      <trkpt lat="46.48086" lon="5.2225">
        <ele>205.2</ele>
        <time>2022-01-24T14:43:08Z</time>
      </trkpt>
      <trkpt lat="46.48105" lon="5.22235">
        <ele>205.2</ele>
        <time>2022-01-24T14:43:11Z</time>
      </trkpt>
      <trkpt lat="46.48112" lon="5.22233">
        <ele>205.2</ele>
        <time>2022-01-24T14:43:12Z</time>
      </trkpt>
      <trkpt lat="46.48162" lon="5.22222">
        <ele>204.6</ele>
        <time>2022-01-24T14:43:19Z</time>
      </trkpt>
      <trkpt lat="46.48217" lon="5.22209">
        <ele>204.4</ele>
        <time>2022-01-24T14:43:27Z</time>
      </trkpt>
      <trkpt lat="46.48231" lon="5.2221">
        <ele>204.4</ele>
        <time>2022-01-24T14:43:29Z</time>
      </trkpt>
      <trkpt lat="46.48245" lon="5.22214">
        <ele>204.4</ele>
        <time>2022-01-24T14:43:31Z</time>
      </trkpt>
      <trkpt lat="46.48296" lon="5.22225">
        <ele>204.8</ele>
        <time>2022-01-24T14:43:39Z</time>
      </trkpt>
      <trkpt lat="46.48351" lon="5.22228">
        <ele>205.6</ele>
        <time>2022-01-24T14:43:48Z</time>
      </trkpt>
      <trkpt lat="46.48385" lon="5.22244">
        <ele>206.2</ele>
        <time>2022-01-24T14:43:54Z</time>
      </trkpt>
      <trkpt lat="46.48416" lon="5.22269">
        <ele>206.6</ele>
        <time>2022-01-24T14:44:00Z</time>
      </trkpt>
      <trkpt lat="46.48421" lon="5.22274">
        <ele>206.6</ele>
        <time>2022-01-24T14:44:01Z</time>
      </trkpt>
      <trkpt lat="46.48447" lon="5.22308">
        <ele>207.6</ele>
        <time>2022-01-24T14:44:07Z</time>
      </trkpt>
      <trkpt lat="46.48451" lon="5.22313">
        <ele>207.6</ele>
        <time>2022-01-24T14:44:08Z</time>
      </trkpt>
      <trkpt lat="46.48493" lon="5.22361">
        <ele>208.8</ele>
        <time>2022-01-24T14:44:17Z</time>
      </trkpt>
      <trkpt lat="46.48499" lon="5.22365">
        <ele>208.8</ele>
        <time>2022-01-24T14:44:18Z</time>
      </trkpt>
      <trkpt lat="46.48545" lon="5.22395">
        <ele>208.6</ele>
        <time>2022-01-24T14:44:26Z</time>
      </trkpt>
      <trkpt lat="46.48593" lon="5.22435">
        <ele>208.6</ele>
        <time>2022-01-24T14:44:35Z</time>
      </trkpt>
      <trkpt lat="46.48642" lon="5.22482">
        <ele>208</ele>
        <time>2022-01-24T14:44:43Z</time>
      </trkpt>
      <trkpt lat="46.48648" lon="5.22488">
        <ele>207.8</ele>
        <time>2022-01-24T14:44:45Z</time>
      </trkpt>
      <trkpt lat="46.4867" lon="5.22514">
        <ele>207.4</ele>
        <time>2022-01-24T14:44:49Z</time>
      </trkpt>
      <trkpt lat="46.48687" lon="5.22533">
        <ele>207</ele>
        <time>2022-01-24T14:44:52Z</time>
      </trkpt>
      <trkpt lat="46.48719" lon="5.22555">
        <ele>206.6</ele>
        <time>2022-01-24T14:44:56Z</time>
      </trkpt>
      <trkpt lat="46.48719" lon="5.22555">
        <ele>206.4</ele>
        <time>2022-01-24T14:44:57Z</time>
      </trkpt>
      <trkpt lat="46.48732" lon="5.22562">
        <ele>206.2</ele>
        <time>2022-01-24T14:44:58Z</time>
      </trkpt>
      <trkpt lat="46.48789" lon="5.22595">
        <ele>205.2</ele>
        <time>2022-01-24T14:45:07Z</time>
      </trkpt>
      <trkpt lat="46.48819" lon="5.22613">
        <ele>205.2</ele>
        <time>2022-01-24T14:45:12Z</time>
      </trkpt>
      <trkpt lat="46.48837" lon="5.22623">
        <ele>205.2</ele>
        <time>2022-01-24T14:45:15Z</time>
      </trkpt>
      <trkpt lat="46.48885" lon="5.22649">
        <ele>205.6</ele>
        <time>2022-01-24T14:45:23Z</time>
      </trkpt>
      <trkpt lat="46.48933" lon="5.22671">
        <ele>206.2</ele>
        <time>2022-01-24T14:45:32Z</time>
      </trkpt>
      <trkpt lat="46.48985" lon="5.22699">
        <ele>206.2</ele>
        <time>2022-01-24T14:45:40Z</time>
      </trkpt>
      <trkpt lat="46.48991" lon="5.22703">
        <ele>206.6</ele>
        <time>2022-01-24T14:45:41Z</time>
      </trkpt>
      <trkpt lat="46.49033" lon="5.22727">
        <ele>207.2</ele>
        <time>2022-01-24T14:45:49Z</time>
      </trkpt>
      <trkpt lat="46.49044" lon="5.22733">
        <ele>207.6</ele>
        <time>2022-01-24T14:45:51Z</time>
      </trkpt>
      <trkpt lat="46.49049" lon="5.22736">
        <ele>207.4</ele>
        <time>2022-01-24T14:45:52Z</time>
      </trkpt>
      <trkpt lat="46.49066" lon="5.22746">
        <ele>207.6</ele>
        <time>2022-01-24T14:45:55Z</time>
      </trkpt>
      <trkpt lat="46.49108" lon="5.22767">
        <ele>207.4</ele>
        <time>2022-01-24T14:46:02Z</time>
      </trkpt>
      <trkpt lat="46.49121" lon="5.22773">
        <ele>207.4</ele>
        <time>2022-01-24T14:46:04Z</time>
      </trkpt>
      <trkpt lat="46.49167" lon="5.22796">
        <ele>207.6</ele>
        <time>2022-01-24T14:46:12Z</time>
      </trkpt>
      <trkpt lat="46.49184" lon="5.22799">
        <ele>208</ele>
        <time>2022-01-24T14:46:15Z</time>
      </trkpt>
      <trkpt lat="46.49196" lon="5.22798">
        <ele>208.2</ele>
        <time>2022-01-24T14:46:17Z</time>
      </trkpt>
      <trkpt lat="46.49238" lon="5.22795">
        <ele>208.4</ele>
        <time>2022-01-24T14:46:23Z</time>
      </trkpt>
      <trkpt lat="46.49278" lon="5.22792">
        <ele>207.6</ele>
        <time>2022-01-24T14:46:28Z</time>
      </trkpt>
      <trkpt lat="46.49316" lon="5.22789">
        <ele>206</ele>
        <time>2022-01-24T14:46:32Z</time>
      </trkpt>
      <trkpt lat="46.49335" lon="5.22787">
        <ele>204.8</ele>
        <time>2022-01-24T14:46:34Z</time>
      </trkpt>
      <trkpt lat="46.49353" lon="5.22786">
        <ele>203.8</ele>
        <time>2022-01-24T14:46:36Z</time>
      </trkpt>
      <trkpt lat="46.49363" lon="5.22785">
        <ele>202.8</ele>
        <time>2022-01-24T14:46:37Z</time>
      </trkpt>
      <trkpt lat="46.49389" lon="5.22783">
        <ele>201.6</ele>
        <time>2022-01-24T14:46:40Z</time>
      </trkpt>
      <trkpt lat="46.49407" lon="5.22782">
        <ele>200.6</ele>
        <time>2022-01-24T14:46:42Z</time>
      </trkpt>
      <trkpt lat="46.49442" lon="5.22779">
        <ele>199</ele>
        <time>2022-01-24T14:46:46Z</time>
      </trkpt>
      <trkpt lat="46.49478" lon="5.22776">
        <ele>197.4</ele>
        <time>2022-01-24T14:46:50Z</time>
      </trkpt>
      <trkpt lat="46.49506" lon="5.22774">
        <ele>196</ele>
        <time>2022-01-24T14:46:53Z</time>
      </trkpt>
      <trkpt lat="46.49535" lon="5.22772">
        <ele>195</ele>
        <time>2022-01-24T14:46:56Z</time>
      </trkpt>
      <trkpt lat="46.49554" lon="5.22771">
        <ele>193.8</ele>
        <time>2022-01-24T14:46:58Z</time>
      </trkpt>
      <trkpt lat="46.49571" lon="5.22769">
        <ele>192.8</ele>
        <time>2022-01-24T14:47:00Z</time>
      </trkpt>
      <trkpt lat="46.49596" lon="5.22767">
        <ele>192</ele>
        <time>2022-01-24T14:47:03Z</time>
      </trkpt>
      <trkpt lat="46.49638" lon="5.22763">
        <ele>192</ele>
        <time>2022-01-24T14:47:09Z</time>
      </trkpt>
      <trkpt lat="46.49676" lon="5.22759">
        <ele>193.2</ele>
        <time>2022-01-24T14:47:16Z</time>
      </trkpt>
      <trkpt lat="46.49687" lon="5.22758">
        <ele>194</ele>
        <time>2022-01-24T14:47:18Z</time>
      </trkpt>
      <trkpt lat="46.49702" lon="5.22755">
        <ele>195</ele>
        <time>2022-01-24T14:47:21Z</time>
      </trkpt>
      <trkpt lat="46.49702" lon="5.22755">
        <ele>195.4</ele>
        <time>2022-01-24T14:47:22Z</time>
      </trkpt>
      <trkpt lat="46.49713" lon="5.22754">
        <ele>196</ele>
        <time>2022-01-24T14:47:24Z</time>
      </trkpt>
      <trkpt lat="46.49736" lon="5.22752">
        <ele>197</ele>
        <time>2022-01-24T14:47:27Z</time>
      </trkpt>
      <trkpt lat="46.49741" lon="5.22752">
        <ele>197.2</ele>
        <time>2022-01-24T14:47:28Z</time>
      </trkpt>
      <trkpt lat="46.49762" lon="5.2275">
        <ele>198.2</ele>
        <time>2022-01-24T14:47:32Z</time>
      </trkpt>
      <trkpt lat="46.49778" lon="5.22748">
        <ele>198.6</ele>
        <time>2022-01-24T14:47:35Z</time>
      </trkpt>
      <trkpt lat="46.49803" lon="5.22745">
        <ele>199.4</ele>
        <time>2022-01-24T14:47:40Z</time>
      </trkpt>
      <trkpt lat="46.49832" lon="5.22742">
        <ele>200</ele>
        <time>2022-01-24T14:47:46Z</time>
      </trkpt>
      <trkpt lat="46.49864" lon="5.22738">
        <ele>200.4</ele>
        <time>2022-01-24T14:47:53Z</time>
      </trkpt>
      <trkpt lat="46.49874" lon="5.22736">
        <ele>200.4</ele>
        <time>2022-01-24T14:47:54Z</time>
      </trkpt>
      <trkpt lat="46.49928" lon="5.22729">
        <ele>201.4</ele>
        <time>2022-01-24T14:48:04Z</time>
      </trkpt>
      <trkpt lat="46.49973" lon="5.22724">
        <ele>202.6</ele>
        <time>2022-01-24T14:48:14Z</time>
      </trkpt>
      <trkpt lat="46.49983" lon="5.22723">
        <ele>202.6</ele>
        <time>2022-01-24T14:48:15Z</time>
      </trkpt>
      <trkpt lat="46.50008" lon="5.22717">
        <ele>203.4</ele>
        <time>2022-01-24T14:48:20Z</time>
      </trkpt>
      <trkpt lat="46.50013" lon="5.22717">
        <ele>203.6</ele>
        <time>2022-01-24T14:48:21Z</time>
      </trkpt>
      <trkpt lat="46.50023" lon="5.22715">
        <ele>204</ele>
        <time>2022-01-24T14:48:23Z</time>
      </trkpt>
      <trkpt lat="46.50049" lon="5.22708">
        <ele>204.6</ele>
        <time>2022-01-24T14:48:29Z</time>
      </trkpt>
      <trkpt lat="46.50053" lon="5.22706">
        <ele>204.8</ele>
        <time>2022-01-24T14:48:30Z</time>
      </trkpt>
      <trkpt lat="46.50071" lon="5.22703">
        <ele>206</ele>
        <time>2022-01-24T14:48:34Z</time>
      </trkpt>
      <trkpt lat="46.5009" lon="5.22703">
        <ele>206.6</ele>
        <time>2022-01-24T14:48:38Z</time>
      </trkpt>
      <trkpt lat="46.50114" lon="5.22712">
        <ele>207</ele>
        <time>2022-01-24T14:48:43Z</time>
      </trkpt>
      <trkpt lat="46.50118" lon="5.22714">
        <ele>207.2</ele>
        <time>2022-01-24T14:48:44Z</time>
      </trkpt>
      <trkpt lat="46.50175" lon="5.22747">
        <ele>208</ele>
        <time>2022-01-24T14:48:56Z</time>
      </trkpt>
      <trkpt lat="46.50197" lon="5.22755">
        <ele>208</ele>
        <time>2022-01-24T14:49:00Z</time>
      </trkpt>
      <trkpt lat="46.50209" lon="5.22757">
        <ele>208.2</ele>
        <time>2022-01-24T14:49:02Z</time>
      </trkpt>
      <trkpt lat="46.5022" lon="5.22756">
        <ele>208.2</ele>
        <time>2022-01-24T14:49:04Z</time>
      </trkpt>
      <trkpt lat="46.5025" lon="5.22751">
        <ele>208.2</ele>
        <time>2022-01-24T14:49:09Z</time>
      </trkpt>
      <trkpt lat="46.50305" lon="5.22744">
        <ele>208.2</ele>
        <time>2022-01-24T14:49:18Z</time>
      </trkpt>
      <trkpt lat="46.50354" lon="5.22746">
        <ele>207.8</ele>
        <time>2022-01-24T14:49:25Z</time>
      </trkpt>
      <trkpt lat="46.50413" lon="5.22756">
        <ele>207.2</ele>
        <time>2022-01-24T14:49:33Z</time>
      </trkpt>
      <trkpt lat="46.50441" lon="5.22761">
        <ele>206.8</ele>
        <time>2022-01-24T14:49:37Z</time>
      </trkpt>
      <trkpt lat="46.50477" lon="5.22767">
        <ele>206.4</ele>
        <time>2022-01-24T14:49:42Z</time>
      </trkpt>
      <trkpt lat="46.50531" lon="5.22779">
        <ele>205.8</ele>
        <time>2022-01-24T14:49:50Z</time>
      </trkpt>
      <trkpt lat="46.50568" lon="5.22799">
        <ele>205.8</ele>
        <time>2022-01-24T14:49:56Z</time>
      </trkpt>
      <trkpt lat="46.50608" lon="5.22836">
        <ele>206.2</ele>
        <time>2022-01-24T14:50:04Z</time>
      </trkpt>
      <trkpt lat="46.50652" lon="5.22886">
        <ele>206.4</ele>
        <time>2022-01-24T14:50:13Z</time>
      </trkpt>
      <trkpt lat="46.50692" lon="5.22943">
        <ele>206.2</ele>
        <time>2022-01-24T14:50:22Z</time>
      </trkpt>
      <trkpt lat="46.50731" lon="5.23001">
        <ele>206.4</ele>
        <time>2022-01-24T14:50:31Z</time>
      </trkpt>
      <trkpt lat="46.5074" lon="5.23014">
        <ele>206.4</ele>
        <time>2022-01-24T14:50:33Z</time>
      </trkpt>
      <trkpt lat="46.5078" lon="5.23071">
        <ele>206.2</ele>
        <time>2022-01-24T14:50:42Z</time>
      </trkpt>
      <trkpt lat="46.50786" lon="5.23079">
        <ele>206.2</ele>
        <time>2022-01-24T14:50:43Z</time>
      </trkpt>
      <trkpt lat="46.5082" lon="5.23117">
        <ele>206.2</ele>
        <time>2022-01-24T14:50:50Z</time>
      </trkpt>
      <trkpt lat="46.50867" lon="5.23146">
        <ele>206.2</ele>
        <time>2022-01-24T14:50:58Z</time>
      </trkpt>
      <trkpt lat="46.50918" lon="5.23166">
        <ele>206.4</ele>
        <time>2022-01-24T14:51:06Z</time>
      </trkpt>
      <trkpt lat="46.50969" lon="5.23191">
        <ele>206.4</ele>
        <time>2022-01-24T14:51:14Z</time>
      </trkpt>
      <trkpt lat="46.50975" lon="5.23195">
        <ele>206.4</ele>
        <time>2022-01-24T14:51:15Z</time>
      </trkpt>
      <trkpt lat="46.51024" lon="5.23234">
        <ele>206.6</ele>
        <time>2022-01-24T14:51:23Z</time>
      </trkpt>
      <trkpt lat="46.51074" lon="5.23275">
        <ele>205.8</ele>
        <time>2022-01-24T14:51:31Z</time>
      </trkpt>
      <trkpt lat="46.51081" lon="5.23281">
        <ele>205.8</ele>
        <time>2022-01-24T14:51:32Z</time>
      </trkpt>
      <trkpt lat="46.51122" lon="5.23329">
        <ele>205.2</ele>
        <time>2022-01-24T14:51:39Z</time>
      </trkpt>
      <trkpt lat="46.51151" lon="5.23364">
        <ele>204.8</ele>
        <time>2022-01-24T14:51:44Z</time>
      </trkpt>
      <trkpt lat="46.51173" lon="5.23392">
        <ele>204.6</ele>
        <time>2022-01-24T14:51:48Z</time>
      </trkpt>
      <trkpt lat="46.51216" lon="5.23446">
        <ele>204.2</ele>
        <time>2022-01-24T14:51:56Z</time>
      </trkpt>
      <trkpt lat="46.51226" lon="5.23459">
        <ele>204</ele>
        <time>2022-01-24T14:51:58Z</time>
      </trkpt>
      <trkpt lat="46.51255" lon="5.23497">
        <ele>203.8</ele>
        <time>2022-01-24T14:52:04Z</time>
      </trkpt>
      <trkpt lat="46.5127" lon="5.23516">
        <ele>203.8</ele>
        <time>2022-01-24T14:52:07Z</time>
      </trkpt>
      <trkpt lat="46.51284" lon="5.23535">
        <ele>204</ele>
        <time>2022-01-24T14:52:10Z</time>
      </trkpt>
      <trkpt lat="46.51329" lon="5.23588">
        <ele>204.4</ele>
        <time>2022-01-24T14:52:18Z</time>
      </trkpt>
      <trkpt lat="46.51373" lon="5.23638">
        <ele>205</ele>
        <time>2022-01-24T14:52:27Z</time>
      </trkpt>
      <trkpt lat="46.51384" lon="5.23648">
        <ele>205</ele>
        <time>2022-01-24T14:52:29Z</time>
      </trkpt>
      <trkpt lat="46.51406" lon="5.2366">
        <ele>205</ele>
        <time>2022-01-24T14:52:33Z</time>
      </trkpt>
      <trkpt lat="46.51455" lon="5.23677">
        <ele>205</ele>
        <time>2022-01-24T14:52:41Z</time>
      </trkpt>
      <trkpt lat="46.51509" lon="5.23695">
        <ele>204.6</ele>
        <time>2022-01-24T14:52:50Z</time>
      </trkpt>
      <trkpt lat="46.51515" lon="5.23698">
        <ele>204.6</ele>
        <time>2022-01-24T14:52:51Z</time>
      </trkpt>
      <trkpt lat="46.51539" lon="5.23706">
        <ele>204.4</ele>
        <time>2022-01-24T14:52:56Z</time>
      </trkpt>
      <trkpt lat="46.51595" lon="5.23725">
        <ele>204</ele>
        <time>2022-01-24T14:53:04Z</time>
      </trkpt>
      <trkpt lat="46.51608" lon="5.23729">
        <ele>204</ele>
        <time>2022-01-24T14:53:06Z</time>
      </trkpt>
      <trkpt lat="46.51653" lon="5.2374">
        <ele>203.8</ele>
        <time>2022-01-24T14:53:13Z</time>
      </trkpt>
      <trkpt lat="46.5166" lon="5.2374">
        <ele>203.4</ele>
        <time>2022-01-24T14:53:14Z</time>
      </trkpt>
      <trkpt lat="46.51665" lon="5.23739">
        <ele>203.4</ele>
        <time>2022-01-24T14:53:16Z</time>
      </trkpt>
      <trkpt lat="46.51714" lon="5.23732">
        <ele>203</ele>
        <time>2022-01-24T14:53:22Z</time>
      </trkpt>
      <trkpt lat="46.51769" lon="5.23724">
        <ele>202.8</ele>
        <time>2022-01-24T14:53:30Z</time>
      </trkpt>
      <trkpt lat="46.51815" lon="5.23716">
        <ele>202.4</ele>
        <time>2022-01-24T14:53:37Z</time>
      </trkpt>
      <trkpt lat="46.51872" lon="5.23705">
        <ele>202</ele>
        <time>2022-01-24T14:53:45Z</time>
      </trkpt>
      <trkpt lat="46.51886" lon="5.23703">
        <ele>202</ele>
        <time>2022-01-24T14:53:47Z</time>
      </trkpt>
      <trkpt lat="46.51941" lon="5.237">
        <ele>201.8</ele>
        <time>2022-01-24T14:53:55Z</time>
      </trkpt>
      <trkpt lat="46.51985" lon="5.23694">
        <ele>201.4</ele>
        <time>2022-01-24T14:54:02Z</time>
      </trkpt>
      <trkpt lat="46.52034" lon="5.23678">
        <ele>201.6</ele>
        <time>2022-01-24T14:54:10Z</time>
      </trkpt>
      <trkpt lat="46.52089" lon="5.23669">
        <ele>202</ele>
        <time>2022-01-24T14:54:19Z</time>
      </trkpt>
      <trkpt lat="46.52109" lon="5.23668">
        <ele>202</ele>
        <time>2022-01-24T14:54:22Z</time>
      </trkpt>
      <trkpt lat="46.52127" lon="5.23671">
        <ele>202</ele>
        <time>2022-01-24T14:54:25Z</time>
      </trkpt>
      <trkpt lat="46.52139" lon="5.23678">
        <ele>202</ele>
        <time>2022-01-24T14:54:27Z</time>
      </trkpt>
      <trkpt lat="46.52163" lon="5.23707">
        <ele>201.8</ele>
        <time>2022-01-24T14:54:32Z</time>
      </trkpt>
      <trkpt lat="46.522" lon="5.23767">
        <ele>201.8</ele>
        <time>2022-01-24T14:54:41Z</time>
      </trkpt>
      <trkpt lat="46.52205" lon="5.23775">
        <ele>201.8</ele>
        <time>2022-01-24T14:54:42Z</time>
      </trkpt>
      <trkpt lat="46.52242" lon="5.23834">
        <ele>201.8</ele>
        <time>2022-01-24T14:54:51Z</time>
      </trkpt>
      <trkpt lat="46.5228" lon="5.23894">
        <ele>202.2</ele>
        <time>2022-01-24T14:55:00Z</time>
      </trkpt>
      <trkpt lat="46.52288" lon="5.23909">
        <ele>202.2</ele>
        <time>2022-01-24T14:55:02Z</time>
      </trkpt>
      <trkpt lat="46.52319" lon="5.23978">
        <ele>202</ele>
        <time>2022-01-24T14:55:11Z</time>
      </trkpt>
      <trkpt lat="46.52322" lon="5.23986">
        <ele>202</ele>
        <time>2022-01-24T14:55:12Z</time>
      </trkpt>
      <trkpt lat="46.5235" lon="5.24055">
        <ele>202.2</ele>
        <time>2022-01-24T14:55:21Z</time>
      </trkpt>
      <trkpt lat="46.52353" lon="5.24063">
        <ele>202.2</ele>
        <time>2022-01-24T14:55:22Z</time>
      </trkpt>
      <trkpt lat="46.52361" lon="5.24084">
        <ele>202</ele>
        <time>2022-01-24T14:55:25Z</time>
      </trkpt>
      <trkpt lat="46.52364" lon="5.24094">
        <ele>202</ele>
        <time>2022-01-24T14:55:27Z</time>
      </trkpt>
      <trkpt lat="46.52369" lon="5.24101">
        <ele>201.8</ele>
        <time>2022-01-24T14:55:29Z</time>
      </trkpt>
      <trkpt lat="46.52374" lon="5.24104">
        <ele>201.8</ele>
        <time>2022-01-24T14:55:30Z</time>
      </trkpt>
      <trkpt lat="46.52402" lon="5.24112">
        <ele>201.6</ele>
        <time>2022-01-24T14:55:35Z</time>
      </trkpt>
      <trkpt lat="46.52449" lon="5.24123">
        <ele>202</ele>
        <time>2022-01-24T14:55:43Z</time>
      </trkpt>
      <trkpt lat="46.52466" lon="5.24129">
        <ele>202.2</ele>
        <time>2022-01-24T14:55:46Z</time>
      </trkpt>
      <trkpt lat="46.52471" lon="5.24135">
        <ele>202.2</ele>
        <time>2022-01-24T14:55:47Z</time>
      </trkpt>
      <trkpt lat="46.52474" lon="5.24143">
        <ele>202.2</ele>
        <time>2022-01-24T14:55:48Z</time>
      </trkpt>
      <trkpt lat="46.52476" lon="5.24161">
        <ele>202.2</ele>
        <time>2022-01-24T14:55:50Z</time>
      </trkpt>
      <trkpt lat="46.52482" lon="5.24219">
        <ele>202.4</ele>
        <time>2022-01-24T14:55:56Z</time>
      </trkpt>
      <trkpt lat="46.52493" lon="5.24298">
        <ele>201.6</ele>
        <time>2022-01-24T14:56:04Z</time>
      </trkpt>
      <trkpt lat="46.52494" lon="5.24309">
        <ele>201.4</ele>
        <time>2022-01-24T14:56:05Z</time>
      </trkpt>
      <trkpt lat="46.52503" lon="5.24379">
        <ele>200.6</ele>
        <time>2022-01-24T14:56:12Z</time>
      </trkpt>
      <trkpt lat="46.5251" lon="5.24427">
        <ele>200.4</ele>
        <time>2022-01-24T14:56:17Z</time>
      </trkpt>
      <trkpt lat="46.52514" lon="5.24453">
        <ele>200.4</ele>
        <time>2022-01-24T14:56:20Z</time>
      </trkpt>
      <trkpt lat="46.52529" lon="5.2451">
        <ele>201</ele>
        <time>2022-01-24T14:56:27Z</time>
      </trkpt>
      <trkpt lat="46.52544" lon="5.24554">
        <ele>201.4</ele>
        <time>2022-01-24T14:56:33Z</time>
      </trkpt>
      <trkpt lat="46.52552" lon="5.24575">
        <ele>201.8</ele>
        <time>2022-01-24T14:56:36Z</time>
      </trkpt>
      <trkpt lat="46.52571" lon="5.24633">
        <ele>202.4</ele>
        <time>2022-01-24T14:56:44Z</time>
      </trkpt>
      <trkpt lat="46.52574" lon="5.2464">
        <ele>202.4</ele>
        <time>2022-01-24T14:56:45Z</time>
      </trkpt>
      <trkpt lat="46.52581" lon="5.2469">
        <ele>202.6</ele>
        <time>2022-01-24T14:56:51Z</time>
      </trkpt>
      <trkpt lat="46.52584" lon="5.24763">
        <ele>202.8</ele>
        <time>2022-01-24T14:56:59Z</time>
      </trkpt>
      <trkpt lat="46.52584" lon="5.24772">
        <ele>202.8</ele>
        <time>2022-01-24T14:57:00Z</time>
      </trkpt>
      <trkpt lat="46.52587" lon="5.24819">
        <ele>202.8</ele>
        <time>2022-01-24T14:57:05Z</time>
      </trkpt>
      <trkpt lat="46.52589" lon="5.24898">
        <ele>202.8</ele>
        <time>2022-01-24T14:57:14Z</time>
      </trkpt>
      <trkpt lat="46.52591" lon="5.24916">
        <ele>202.8</ele>
        <time>2022-01-24T14:57:16Z</time>
      </trkpt>
      <trkpt lat="46.52601" lon="5.24984">
        <ele>202.6</ele>
        <time>2022-01-24T14:57:24Z</time>
      </trkpt>
      <trkpt lat="46.5261" lon="5.25059">
        <ele>203.4</ele>
        <time>2022-01-24T14:57:33Z</time>
      </trkpt>
      <trkpt lat="46.52612" lon="5.25124">
        <ele>203.6</ele>
        <time>2022-01-24T14:57:41Z</time>
      </trkpt>
      <trkpt lat="46.52614" lon="5.25206">
        <ele>203.8</ele>
        <time>2022-01-24T14:57:51Z</time>
      </trkpt>
      <trkpt lat="46.52614" lon="5.25215">
        <ele>203.8</ele>
        <time>2022-01-24T14:57:52Z</time>
      </trkpt>
      <trkpt lat="46.5262" lon="5.25286">
        <ele>204</ele>
        <time>2022-01-24T14:58:01Z</time>
      </trkpt>
      <trkpt lat="46.52636" lon="5.2534">
        <ele>204.2</ele>
        <time>2022-01-24T14:58:08Z</time>
      </trkpt>
      <trkpt lat="46.52664" lon="5.25389">
        <ele>204.4</ele>
        <time>2022-01-24T14:58:15Z</time>
      </trkpt>
      <trkpt lat="46.52694" lon="5.25433">
        <ele>204.2</ele>
        <time>2022-01-24T14:58:22Z</time>
      </trkpt>
      <trkpt lat="46.52707" lon="5.25453">
        <ele>204</ele>
        <time>2022-01-24T14:58:25Z</time>
      </trkpt>
      <trkpt lat="46.52715" lon="5.25468">
        <ele>203.8</ele>
        <time>2022-01-24T14:58:27Z</time>
      </trkpt>
      <trkpt lat="46.52719" lon="5.25486">
        <ele>203.6</ele>
        <time>2022-01-24T14:58:29Z</time>
      </trkpt>
      <trkpt lat="46.52718" lon="5.25534">
        <ele>203.2</ele>
        <time>2022-01-24T14:58:34Z</time>
      </trkpt>
      <trkpt lat="46.52713" lon="5.25621">
        <ele>202.4</ele>
        <time>2022-01-24T14:58:43Z</time>
      </trkpt>
      <trkpt lat="46.52713" lon="5.25651">
        <ele>202.2</ele>
        <time>2022-01-24T14:58:46Z</time>
      </trkpt>
      <trkpt lat="46.52712" lon="5.25661">
        <ele>202</ele>
        <time>2022-01-24T14:58:47Z</time>
      </trkpt>
      <trkpt lat="46.52706" lon="5.25725">
        <ele>201.4</ele>
        <time>2022-01-24T14:58:54Z</time>
      </trkpt>
      <trkpt lat="46.52704" lon="5.25734">
        <ele>201.4</ele>
        <time>2022-01-24T14:58:55Z</time>
      </trkpt>
      <trkpt lat="46.52692" lon="5.25777">
        <ele>201.2</ele>
        <time>2022-01-24T14:59:00Z</time>
      </trkpt>
      <trkpt lat="46.5269" lon="5.25786">
        <ele>201</ele>
        <time>2022-01-24T14:59:01Z</time>
      </trkpt>
      <trkpt lat="46.52688" lon="5.25805">
        <ele>201</ele>
        <time>2022-01-24T14:59:03Z</time>
      </trkpt>
      <trkpt lat="46.52688" lon="5.25815">
        <ele>201</ele>
        <time>2022-01-24T14:59:04Z</time>
      </trkpt>
      <trkpt lat="46.52686" lon="5.25869">
        <ele>200.4</ele>
        <time>2022-01-24T14:59:09Z</time>
      </trkpt>
      <trkpt lat="46.52685" lon="5.2588">
        <ele>200.2</ele>
        <time>2022-01-24T14:59:10Z</time>
      </trkpt>
      <trkpt lat="46.52683" lon="5.25891">
        <ele>200.2</ele>
        <time>2022-01-24T14:59:11Z</time>
      </trkpt>
      <trkpt lat="46.5268" lon="5.25903">
        <ele>199.8</ele>
        <time>2022-01-24T14:59:12Z</time>
      </trkpt>
      <trkpt lat="46.52676" lon="5.25913">
        <ele>199.4</ele>
        <time>2022-01-24T14:59:13Z</time>
      </trkpt>
      <trkpt lat="46.52672" lon="5.25923">
        <ele>198.8</ele>
        <time>2022-01-24T14:59:14Z</time>
      </trkpt>
      <trkpt lat="46.52665" lon="5.25932">
        <ele>198.6</ele>
        <time>2022-01-24T14:59:15Z</time>
      </trkpt>
      <trkpt lat="46.5265" lon="5.25944">
        <ele>197.6</ele>
        <time>2022-01-24T14:59:17Z</time>
      </trkpt>
      <trkpt lat="46.5264" lon="5.25946">
        <ele>197.2</ele>
        <time>2022-01-24T14:59:18Z</time>
      </trkpt>
      <trkpt lat="46.52622" lon="5.2595">
        <ele>196.2</ele>
        <time>2022-01-24T14:59:20Z</time>
      </trkpt>
      <trkpt lat="46.52614" lon="5.25955">
        <ele>195.4</ele>
        <time>2022-01-24T14:59:21Z</time>
      </trkpt>
      <trkpt lat="46.52606" lon="5.25964">
        <ele>194.6</ele>
        <time>2022-01-24T14:59:22Z</time>
      </trkpt>
      <trkpt lat="46.526" lon="5.25977">
        <ele>193.4</ele>
        <time>2022-01-24T14:59:23Z</time>
      </trkpt>
      <trkpt lat="46.52595" lon="5.2599">
        <ele>192.4</ele>
        <time>2022-01-24T14:59:24Z</time>
      </trkpt>
      <trkpt lat="46.52592" lon="5.26004">
        <ele>192.2</ele>
        <time>2022-01-24T14:59:25Z</time>
      </trkpt>
      <trkpt lat="46.52587" lon="5.26034">
        <ele>191</ele>
        <time>2022-01-24T14:59:27Z</time>
      </trkpt>
      <trkpt lat="46.52581" lon="5.26064">
        <ele>190</ele>
        <time>2022-01-24T14:59:29Z</time>
      </trkpt>
      <trkpt lat="46.52577" lon="5.26078">
        <ele>189</ele>
        <time>2022-01-24T14:59:30Z</time>
      </trkpt>
      <trkpt lat="46.52566" lon="5.26102">
        <ele>187.6</ele>
        <time>2022-01-24T14:59:32Z</time>
      </trkpt>
      <trkpt lat="46.52548" lon="5.26114">
        <ele>186.2</ele>
        <time>2022-01-24T14:59:34Z</time>
      </trkpt>
      <trkpt lat="46.52529" lon="5.26117">
        <ele>184.8</ele>
        <time>2022-01-24T14:59:36Z</time>
      </trkpt>
      <trkpt lat="46.5252" lon="5.26119">
        <ele>183.8</ele>
        <time>2022-01-24T14:59:37Z</time>
      </trkpt>
      <trkpt lat="46.52506" lon="5.26134">
        <ele>182.4</ele>
        <time>2022-01-24T14:59:39Z</time>
      </trkpt>
      <trkpt lat="46.52496" lon="5.26155">
        <ele>181.4</ele>
        <time>2022-01-24T14:59:41Z</time>
      </trkpt>
      <trkpt lat="46.52487" lon="5.26176">
        <ele>180.8</ele>
        <time>2022-01-24T14:59:43Z</time>
      </trkpt>
      <trkpt lat="46.52474" lon="5.26208">
        <ele>180.4</ele>
        <time>2022-01-24T14:59:46Z</time>
      </trkpt>
      <trkpt lat="46.52459" lon="5.26251">
        <ele>180.2</ele>
        <time>2022-01-24T14:59:50Z</time>
      </trkpt>
      <trkpt lat="46.52433" lon="5.2632">
        <ele>180.2</ele>
        <time>2022-01-24T14:59:57Z</time>
      </trkpt>
      <trkpt lat="46.52426" lon="5.26339">
        <ele>180.2</ele>
        <time>2022-01-24T14:59:59Z</time>
      </trkpt>
      <trkpt lat="46.52399" lon="5.2641">
        <ele>180.2</ele>
        <time>2022-01-24T15:00:07Z</time>
      </trkpt>
      <trkpt lat="46.52384" lon="5.2644">
        <ele>180.2</ele>
        <time>2022-01-24T15:00:11Z</time>
      </trkpt>
      <trkpt lat="46.52379" lon="5.26447">
        <ele>180.2</ele>
        <time>2022-01-24T15:00:12Z</time>
      </trkpt>
      <trkpt lat="46.52374" lon="5.26452">
        <ele>180.4</ele>
        <time>2022-01-24T15:00:13Z</time>
      </trkpt>
      <trkpt lat="46.52363" lon="5.2646">
        <ele>180.4</ele>
        <time>2022-01-24T15:00:15Z</time>
      </trkpt>
      <trkpt lat="46.52357" lon="5.26463">
        <ele>180.4</ele>
        <time>2022-01-24T15:00:16Z</time>
      </trkpt>
      <trkpt lat="46.52325" lon="5.26477">
        <ele>181.2</ele>
        <time>2022-01-24T15:00:22Z</time>
      </trkpt>
      <trkpt lat="46.5232" lon="5.26479">
        <ele>181.4</ele>
        <time>2022-01-24T15:00:23Z</time>
      </trkpt>
      <trkpt lat="46.52296" lon="5.26491">
        <ele>182.4</ele>
        <time>2022-01-24T15:00:28Z</time>
      </trkpt>
      <trkpt lat="46.52287" lon="5.26495">
        <ele>182.8</ele>
        <time>2022-01-24T15:00:30Z</time>
      </trkpt>
      <trkpt lat="46.52265" lon="5.26505">
        <ele>183.6</ele>
        <time>2022-01-24T15:00:35Z</time>
      </trkpt>
      <trkpt lat="46.52261" lon="5.26507">
        <ele>183.6</ele>
        <time>2022-01-24T15:00:36Z</time>
      </trkpt>
      <trkpt lat="46.52234" lon="5.26519">
        <ele>184.6</ele>
        <time>2022-01-24T15:00:42Z</time>
      </trkpt>
      <trkpt lat="46.52212" lon="5.26529">
        <ele>185.6</ele>
        <time>2022-01-24T15:00:47Z</time>
      </trkpt>
      <trkpt lat="46.52203" lon="5.26534">
        <ele>185.8</ele>
        <time>2022-01-24T15:00:49Z</time>
      </trkpt>
      <trkpt lat="46.52182" lon="5.26553">
        <ele>186.8</ele>
        <time>2022-01-24T15:00:54Z</time>
      </trkpt>
      <trkpt lat="46.52179" lon="5.26558">
        <ele>186.8</ele>
        <time>2022-01-24T15:00:55Z</time>
      </trkpt>
      <trkpt lat="46.52154" lon="5.26597">
        <ele>187.8</ele>
        <time>2022-01-24T15:01:02Z</time>
      </trkpt>
      <trkpt lat="46.52125" lon="5.26645">
        <ele>188.4</ele>
        <time>2022-01-24T15:01:10Z</time>
      </trkpt>
      <trkpt lat="46.52117" lon="5.26655">
        <ele>188.6</ele>
        <time>2022-01-24T15:01:12Z</time>
      </trkpt>
      <trkpt lat="46.52101" lon="5.26671">
        <ele>188.8</ele>
        <time>2022-01-24T15:01:16Z</time>
      </trkpt>
      <trkpt lat="46.52076" lon="5.2669">
        <ele>190</ele>
        <time>2022-01-24T15:01:22Z</time>
      </trkpt>
      <trkpt lat="46.52072" lon="5.26694">
        <ele>190.2</ele>
        <time>2022-01-24T15:01:23Z</time>
      </trkpt>
      <trkpt lat="46.52053" lon="5.26707">
        <ele>191.2</ele>
        <time>2022-01-24T15:01:28Z</time>
      </trkpt>
      <trkpt lat="46.5205" lon="5.26709">
        <ele>191.4</ele>
        <time>2022-01-24T15:01:29Z</time>
      </trkpt>
      <trkpt lat="46.52039" lon="5.2672">
        <ele>192</ele>
        <time>2022-01-24T15:01:32Z</time>
      </trkpt>
      <trkpt lat="46.52036" lon="5.26722">
        <ele>192.4</ele>
        <time>2022-01-24T15:01:33Z</time>
      </trkpt>
      <trkpt lat="46.52028" lon="5.26727">
        <ele>192.6</ele>
        <time>2022-01-24T15:01:35Z</time>
      </trkpt>
      <trkpt lat="46.52025" lon="5.2673">
        <ele>193</ele>
        <time>2022-01-24T15:01:36Z</time>
      </trkpt>
      <trkpt lat="46.52011" lon="5.26744">
        <ele>194</ele>
        <time>2022-01-24T15:01:41Z</time>
      </trkpt>
      <trkpt lat="46.52008" lon="5.26747">
        <ele>194.6</ele>
        <time>2022-01-24T15:01:42Z</time>
      </trkpt>
      <trkpt lat="46.51993" lon="5.26759">
        <ele>195.6</ele>
        <time>2022-01-24T15:01:46Z</time>
      </trkpt>
      <trkpt lat="46.5199" lon="5.26761">
        <ele>196</ele>
        <time>2022-01-24T15:01:47Z</time>
      </trkpt>
      <trkpt lat="46.51978" lon="5.26774">
        <ele>196.8</ele>
        <time>2022-01-24T15:01:51Z</time>
      </trkpt>
      <trkpt lat="46.51968" lon="5.2679">
        <ele>197.6</ele>
        <time>2022-01-24T15:01:54Z</time>
      </trkpt>
      <trkpt lat="46.51965" lon="5.26795">
        <ele>197.8</ele>
        <time>2022-01-24T15:01:55Z</time>
      </trkpt>
      <trkpt lat="46.51956" lon="5.26812">
        <ele>198.8</ele>
        <time>2022-01-24T15:01:58Z</time>
      </trkpt>
      <trkpt lat="46.51952" lon="5.2683">
        <ele>199.6</ele>
        <time>2022-01-24T15:02:01Z</time>
      </trkpt>
      <trkpt lat="46.51952" lon="5.26835">
        <ele>199.8</ele>
        <time>2022-01-24T15:02:02Z</time>
      </trkpt>
      <trkpt lat="46.51954" lon="5.26868">
        <ele>201</ele>
        <time>2022-01-24T15:02:07Z</time>
      </trkpt>
      <trkpt lat="46.51959" lon="5.26889">
        <ele>202.2</ele>
        <time>2022-01-24T15:02:11Z</time>
      </trkpt>
      <trkpt lat="46.51963" lon="5.269">
        <ele>202.8</ele>
        <time>2022-01-24T15:02:13Z</time>
      </trkpt>
      <trkpt lat="46.51968" lon="5.26917">
        <ele>203.4</ele>
        <time>2022-01-24T15:02:16Z</time>
      </trkpt>
      <trkpt lat="46.51978" lon="5.26951">
        <ele>204.4</ele>
        <time>2022-01-24T15:02:22Z</time>
      </trkpt>
      <trkpt lat="46.51982" lon="5.26971">
        <ele>204.4</ele>
        <time>2022-01-24T15:02:25Z</time>
      </trkpt>
      <trkpt lat="46.51989" lon="5.27019">
        <ele>204.2</ele>
        <time>2022-01-24T15:02:31Z</time>
      </trkpt>
      <trkpt lat="46.51995" lon="5.27098">
        <ele>203.2</ele>
        <time>2022-01-24T15:02:39Z</time>
      </trkpt>
      <trkpt lat="46.51997" lon="5.27109">
        <ele>202.8</ele>
        <time>2022-01-24T15:02:40Z</time>
      </trkpt>
      <trkpt lat="46.52005" lon="5.27164">
        <ele>201.8</ele>
        <time>2022-01-24T15:02:45Z</time>
      </trkpt>
      <trkpt lat="46.52007" lon="5.27175">
        <ele>201.6</ele>
        <time>2022-01-24T15:02:46Z</time>
      </trkpt>
      <trkpt lat="46.52018" lon="5.27219">
        <ele>200.6</ele>
        <time>2022-01-24T15:02:50Z</time>
      </trkpt>
      <trkpt lat="46.52026" lon="5.27242">
        <ele>199.6</ele>
        <time>2022-01-24T15:02:52Z</time>
      </trkpt>
      <trkpt lat="46.52031" lon="5.27253">
        <ele>199.4</ele>
        <time>2022-01-24T15:02:53Z</time>
      </trkpt>
      <trkpt lat="46.5205" lon="5.2728">
        <ele>198.2</ele>
        <time>2022-01-24T15:02:56Z</time>
      </trkpt>
      <trkpt lat="46.52066" lon="5.27293">
        <ele>197.2</ele>
        <time>2022-01-24T15:02:58Z</time>
      </trkpt>
      <trkpt lat="46.52074" lon="5.27298">
        <ele>196.8</ele>
        <time>2022-01-24T15:02:59Z</time>
      </trkpt>
      <trkpt lat="46.52083" lon="5.27302">
        <ele>196.6</ele>
        <time>2022-01-24T15:03:00Z</time>
      </trkpt>
      <trkpt lat="46.521" lon="5.27313">
        <ele>195.8</ele>
        <time>2022-01-24T15:03:02Z</time>
      </trkpt>
      <trkpt lat="46.52107" lon="5.27321">
        <ele>195.4</ele>
        <time>2022-01-24T15:03:03Z</time>
      </trkpt>
      <trkpt lat="46.52113" lon="5.27331">
        <ele>195.2</ele>
        <time>2022-01-24T15:03:04Z</time>
      </trkpt>
      <trkpt lat="46.52121" lon="5.27355">
        <ele>194.4</ele>
        <time>2022-01-24T15:03:06Z</time>
      </trkpt>
      <trkpt lat="46.52122" lon="5.27368">
        <ele>194</ele>
        <time>2022-01-24T15:03:07Z</time>
      </trkpt>
      <trkpt lat="46.52121" lon="5.27381">
        <ele>193.4</ele>
        <time>2022-01-24T15:03:08Z</time>
      </trkpt>
      <trkpt lat="46.52116" lon="5.27407">
        <ele>192.4</ele>
        <time>2022-01-24T15:03:10Z</time>
      </trkpt>
      <trkpt lat="46.52107" lon="5.2743">
        <ele>191.4</ele>
        <time>2022-01-24T15:03:12Z</time>
      </trkpt>
      <trkpt lat="46.52095" lon="5.27452">
        <ele>190.4</ele>
        <time>2022-01-24T15:03:14Z</time>
      </trkpt>
      <trkpt lat="46.52066" lon="5.27493">
        <ele>188.6</ele>
        <time>2022-01-24T15:03:18Z</time>
      </trkpt>
      <trkpt lat="46.52051" lon="5.27512">
        <ele>188</ele>
        <time>2022-01-24T15:03:20Z</time>
      </trkpt>
      <trkpt lat="46.52043" lon="5.27522">
        <ele>187.2</ele>
        <time>2022-01-24T15:03:21Z</time>
      </trkpt>
      <trkpt lat="46.52021" lon="5.27551">
        <ele>186</ele>
        <time>2022-01-24T15:03:24Z</time>
      </trkpt>
      <trkpt lat="46.51999" lon="5.2758">
        <ele>184.8</ele>
        <time>2022-01-24T15:03:27Z</time>
      </trkpt>
      <trkpt lat="46.51978" lon="5.27607">
        <ele>184</ele>
        <time>2022-01-24T15:03:30Z</time>
      </trkpt>
      <trkpt lat="46.51965" lon="5.27624">
        <ele>183.8</ele>
        <time>2022-01-24T15:03:32Z</time>
      </trkpt>
      <trkpt lat="46.51936" lon="5.27662">
        <ele>183.6</ele>
        <time>2022-01-24T15:03:37Z</time>
      </trkpt>
      <trkpt lat="46.51899" lon="5.27703">
        <ele>184.2</ele>
        <time>2022-01-24T15:03:44Z</time>
      </trkpt>
      <trkpt lat="46.51885" lon="5.27717">
        <ele>184.8</ele>
        <time>2022-01-24T15:03:47Z</time>
      </trkpt>
      <trkpt lat="46.51868" lon="5.27736">
        <ele>185.6</ele>
        <time>2022-01-24T15:03:51Z</time>
      </trkpt>
      <trkpt lat="46.51855" lon="5.27749">
        <ele>186</ele>
        <time>2022-01-24T15:03:54Z</time>
      </trkpt>
      <trkpt lat="46.51835" lon="5.27772">
        <ele>187.2</ele>
        <time>2022-01-24T15:03:59Z</time>
      </trkpt>
      <trkpt lat="46.51818" lon="5.27789">
        <ele>188.4</ele>
        <time>2022-01-24T15:04:03Z</time>
      </trkpt>
      <trkpt lat="46.51798" lon="5.2781">
        <ele>189.6</ele>
        <time>2022-01-24T15:04:08Z</time>
      </trkpt>
      <trkpt lat="46.51794" lon="5.27813">
        <ele>189.8</ele>
        <time>2022-01-24T15:04:09Z</time>
      </trkpt>
      <trkpt lat="46.51783" lon="5.27823">
        <ele>190.8</ele>
        <time>2022-01-24T15:04:12Z</time>
      </trkpt>
      <trkpt lat="46.51767" lon="5.27838">
        <ele>191.8</ele>
        <time>2022-01-24T15:04:16Z</time>
      </trkpt>
      <trkpt lat="46.5176" lon="5.27845">
        <ele>192.2</ele>
        <time>2022-01-24T15:04:18Z</time>
      </trkpt>
      <trkpt lat="46.51746" lon="5.27859">
        <ele>192.8</ele>
        <time>2022-01-24T15:04:22Z</time>
      </trkpt>
      <trkpt lat="46.51728" lon="5.27877">
        <ele>193.8</ele>
        <time>2022-01-24T15:04:27Z</time>
      </trkpt>
      <trkpt lat="46.51714" lon="5.27893">
        <ele>195</ele>
        <time>2022-01-24T15:04:31Z</time>
      </trkpt>
      <trkpt lat="46.51706" lon="5.27901">
        <ele>195.4</ele>
        <time>2022-01-24T15:04:33Z</time>
      </trkpt>
      <trkpt lat="46.51691" lon="5.27916">
        <ele>196</ele>
        <time>2022-01-24T15:04:37Z</time>
      </trkpt>
      <trkpt lat="46.51663" lon="5.27945">
        <ele>197</ele>
        <time>2022-01-24T15:04:44Z</time>
      </trkpt>
      <trkpt lat="46.51658" lon="5.27949">
        <ele>197</ele>
        <time>2022-01-24T15:04:45Z</time>
      </trkpt>
      <trkpt lat="46.51623" lon="5.27985">
        <ele>197.8</ele>
        <time>2022-01-24T15:04:53Z</time>
      </trkpt>
      <trkpt lat="46.51599" lon="5.2802">
        <ele>198</ele>
        <time>2022-01-24T15:04:59Z</time>
      </trkpt>
      <trkpt lat="46.51581" lon="5.28064">
        <ele>197.8</ele>
        <time>2022-01-24T15:05:04Z</time>
      </trkpt>
      <trkpt lat="46.5156" lon="5.28138">
        <ele>196.4</ele>
        <time>2022-01-24T15:05:11Z</time>
      </trkpt>
      <trkpt lat="46.51556" lon="5.28148">
        <ele>196.4</ele>
        <time>2022-01-24T15:05:12Z</time>
      </trkpt>
      <trkpt lat="46.51553" lon="5.28159">
        <ele>196</ele>
        <time>2022-01-24T15:05:13Z</time>
      </trkpt>
      <trkpt lat="46.51541" lon="5.28193">
        <ele>194.8</ele>
        <time>2022-01-24T15:05:16Z</time>
      </trkpt>
      <trkpt lat="46.51529" lon="5.28226">
        <ele>193.6</ele>
        <time>2022-01-24T15:05:19Z</time>
      </trkpt>
      <trkpt lat="46.51503" lon="5.2828">
        <ele>192</ele>
        <time>2022-01-24T15:05:24Z</time>
      </trkpt>
      <trkpt lat="46.51497" lon="5.28291">
        <ele>191.8</ele>
        <time>2022-01-24T15:05:25Z</time>
      </trkpt>
      <trkpt lat="46.51486" lon="5.28312">
        <ele>190.8</ele>
        <time>2022-01-24T15:05:27Z</time>
      </trkpt>
      <trkpt lat="46.5147" lon="5.28344">
        <ele>189.6</ele>
        <time>2022-01-24T15:05:30Z</time>
      </trkpt>
      <trkpt lat="46.51459" lon="5.28366">
        <ele>189</ele>
        <time>2022-01-24T15:05:32Z</time>
      </trkpt>
      <trkpt lat="46.51453" lon="5.28377">
        <ele>188.4</ele>
        <time>2022-01-24T15:05:33Z</time>
      </trkpt>
      <trkpt lat="46.51431" lon="5.28422">
        <ele>186.6</ele>
        <time>2022-01-24T15:05:37Z</time>
      </trkpt>
      <trkpt lat="46.51421" lon="5.28445">
        <ele>185.8</ele>
        <time>2022-01-24T15:05:39Z</time>
      </trkpt>
      <trkpt lat="46.51418" lon="5.28458">
        <ele>185.6</ele>
        <time>2022-01-24T15:05:40Z</time>
      </trkpt>
      <trkpt lat="46.51416" lon="5.28472">
        <ele>185.4</ele>
        <time>2022-01-24T15:05:41Z</time>
      </trkpt>
      <trkpt lat="46.51418" lon="5.28499">
        <ele>184.6</ele>
        <time>2022-01-24T15:05:43Z</time>
      </trkpt>
      <trkpt lat="46.51421" lon="5.28512">
        <ele>184</ele>
        <time>2022-01-24T15:05:44Z</time>
      </trkpt>
      <trkpt lat="46.51433" lon="5.28547">
        <ele>183.2</ele>
        <time>2022-01-24T15:05:47Z</time>
      </trkpt>
      <trkpt lat="46.51437" lon="5.28558">
        <ele>183</ele>
        <time>2022-01-24T15:05:48Z</time>
      </trkpt>
      <trkpt lat="46.51459" lon="5.28626">
        <ele>182.2</ele>
        <time>2022-01-24T15:05:54Z</time>
      </trkpt>
      <trkpt lat="46.5147" lon="5.28657">
        <ele>182</ele>
        <time>2022-01-24T15:05:57Z</time>
      </trkpt>
      <trkpt lat="46.51484" lon="5.28697">
        <ele>181.8</ele>
        <time>2022-01-24T15:06:01Z</time>
      </trkpt>
      <trkpt lat="46.515" lon="5.28754">
        <ele>181.6</ele>
        <time>2022-01-24T15:06:07Z</time>
      </trkpt>
      <trkpt lat="46.51507" lon="5.28812">
        <ele>182.2</ele>
        <time>2022-01-24T15:06:13Z</time>
      </trkpt>
      <trkpt lat="46.51506" lon="5.28823">
        <ele>182.2</ele>
        <time>2022-01-24T15:06:14Z</time>
      </trkpt>
      <trkpt lat="46.51502" lon="5.28855">
        <ele>182.2</ele>
        <time>2022-01-24T15:06:17Z</time>
      </trkpt>
      <trkpt lat="46.51487" lon="5.2893">
        <ele>181.6</ele>
        <time>2022-01-24T15:06:24Z</time>
      </trkpt>
      <trkpt lat="46.51484" lon="5.28952">
        <ele>181.6</ele>
        <time>2022-01-24T15:06:26Z</time>
      </trkpt>
      <trkpt lat="46.5147" lon="5.29031">
        <ele>181.8</ele>
        <time>2022-01-24T15:06:34Z</time>
      </trkpt>
      <trkpt lat="46.51465" lon="5.29058">
        <ele>182.2</ele>
        <time>2022-01-24T15:06:37Z</time>
      </trkpt>
      <trkpt lat="46.51452" lon="5.29136">
        <ele>182.8</ele>
        <time>2022-01-24T15:06:46Z</time>
      </trkpt>
      <trkpt lat="46.51447" lon="5.29162">
        <ele>183</ele>
        <time>2022-01-24T15:06:49Z</time>
      </trkpt>
      <trkpt lat="46.51436" lon="5.29205">
        <ele>183.2</ele>
        <time>2022-01-24T15:06:54Z</time>
      </trkpt>
      <trkpt lat="46.51431" lon="5.2922">
        <ele>183.4</ele>
        <time>2022-01-24T15:06:56Z</time>
      </trkpt>
      <trkpt lat="46.51423" lon="5.29233">
        <ele>183.4</ele>
        <time>2022-01-24T15:06:58Z</time>
      </trkpt>
      <trkpt lat="46.51419" lon="5.29239">
        <ele>183.6</ele>
        <time>2022-01-24T15:06:59Z</time>
      </trkpt>
      <trkpt lat="46.51389" lon="5.29286">
        <ele>184</ele>
        <time>2022-01-24T15:07:06Z</time>
      </trkpt>
      <trkpt lat="46.51373" lon="5.29316">
        <ele>183.8</ele>
        <time>2022-01-24T15:07:10Z</time>
      </trkpt>
      <trkpt lat="46.51358" lon="5.29336">
        <ele>183.8</ele>
        <time>2022-01-24T15:07:13Z</time>
      </trkpt>
      <trkpt lat="46.5134" lon="5.29351">
        <ele>183.6</ele>
        <time>2022-01-24T15:07:16Z</time>
      </trkpt>
      <trkpt lat="46.51327" lon="5.29359">
        <ele>183.4</ele>
        <time>2022-01-24T15:07:18Z</time>
      </trkpt>
      <trkpt lat="46.51276" lon="5.29389">
        <ele>183.4</ele>
        <time>2022-01-24T15:07:26Z</time>
      </trkpt>
      <trkpt lat="46.51263" lon="5.29394">
        <ele>183.2</ele>
        <time>2022-01-24T15:07:28Z</time>
      </trkpt>
      <trkpt lat="46.51218" lon="5.29404">
        <ele>183.2</ele>
        <time>2022-01-24T15:07:35Z</time>
      </trkpt>
      <trkpt lat="46.51161" lon="5.2942">
        <ele>183.8</ele>
        <time>2022-01-24T15:07:44Z</time>
      </trkpt>
      <trkpt lat="46.51155" lon="5.29421">
        <ele>183.8</ele>
        <time>2022-01-24T15:07:45Z</time>
      </trkpt>
      <trkpt lat="46.51149" lon="5.29423">
        <ele>183.8</ele>
        <time>2022-01-24T15:07:46Z</time>
      </trkpt>
      <trkpt lat="46.51093" lon="5.29438">
        <ele>184.4</ele>
        <time>2022-01-24T15:07:55Z</time>
      </trkpt>
      <trkpt lat="46.51086" lon="5.2944">
        <ele>184.4</ele>
        <time>2022-01-24T15:07:56Z</time>
      </trkpt>
      <trkpt lat="46.51045" lon="5.2946">
        <ele>184.8</ele>
        <time>2022-01-24T15:08:03Z</time>
      </trkpt>
      <trkpt lat="46.51039" lon="5.29464">
        <ele>184.8</ele>
        <time>2022-01-24T15:08:04Z</time>
      </trkpt>
      <trkpt lat="46.5102" lon="5.29478">
        <ele>185.2</ele>
        <time>2022-01-24T15:08:08Z</time>
      </trkpt>
      <trkpt lat="46.51002" lon="5.29493">
        <ele>186</ele>
        <time>2022-01-24T15:08:12Z</time>
      </trkpt>
      <trkpt lat="46.50989" lon="5.29502">
        <ele>186.4</ele>
        <time>2022-01-24T15:08:15Z</time>
      </trkpt>
      <trkpt lat="46.50978" lon="5.29512">
        <ele>187.2</ele>
        <time>2022-01-24T15:08:18Z</time>
      </trkpt>
      <trkpt lat="46.50962" lon="5.29525">
        <ele>187.8</ele>
        <time>2022-01-24T15:08:22Z</time>
      </trkpt>
      <trkpt lat="46.50955" lon="5.29531">
        <ele>188.2</ele>
        <time>2022-01-24T15:08:24Z</time>
      </trkpt>
      <trkpt lat="46.50941" lon="5.29542">
        <ele>189.4</ele>
        <time>2022-01-24T15:08:28Z</time>
      </trkpt>
      <trkpt lat="46.50935" lon="5.29548">
        <ele>190</ele>
        <time>2022-01-24T15:08:30Z</time>
      </trkpt>
      <trkpt lat="46.50928" lon="5.29553">
        <ele>190.8</ele>
        <time>2022-01-24T15:08:32Z</time>
      </trkpt>
      <trkpt lat="46.50915" lon="5.2956">
        <ele>191.8</ele>
        <time>2022-01-24T15:08:36Z</time>
      </trkpt>
      <trkpt lat="46.50908" lon="5.29563">
        <ele>192.6</ele>
        <time>2022-01-24T15:08:38Z</time>
      </trkpt>
      <trkpt lat="46.50904" lon="5.29564">
        <ele>192.8</ele>
        <time>2022-01-24T15:08:39Z</time>
      </trkpt>
      <trkpt lat="46.50884" lon="5.29569">
        <ele>194</ele>
        <time>2022-01-24T15:08:44Z</time>
      </trkpt>
      <trkpt lat="46.50872" lon="5.29568">
        <ele>195.2</ele>
        <time>2022-01-24T15:08:47Z</time>
      </trkpt>
      <trkpt lat="46.50856" lon="5.29567">
        <ele>196.4</ele>
        <time>2022-01-24T15:08:51Z</time>
      </trkpt>
      <trkpt lat="46.50844" lon="5.29566">
        <ele>197.4</ele>
        <time>2022-01-24T15:08:54Z</time>
      </trkpt>
      <trkpt lat="46.50836" lon="5.29565">
        <ele>198</ele>
        <time>2022-01-24T15:08:56Z</time>
      </trkpt>
      <trkpt lat="46.50824" lon="5.29564">
        <ele>198.6</ele>
        <time>2022-01-24T15:08:59Z</time>
      </trkpt>
      <trkpt lat="46.50805" lon="5.29563">
        <ele>200</ele>
        <time>2022-01-24T15:09:04Z</time>
      </trkpt>
      <trkpt lat="46.50798" lon="5.29562">
        <ele>200.2</ele>
        <time>2022-01-24T15:09:06Z</time>
      </trkpt>
      <trkpt lat="46.5078" lon="5.29562">
        <ele>201</ele>
        <time>2022-01-24T15:09:11Z</time>
      </trkpt>
      <trkpt lat="46.50762" lon="5.29559">
        <ele>202</ele>
        <time>2022-01-24T15:09:16Z</time>
      </trkpt>
      <trkpt lat="46.50758" lon="5.29558">
        <ele>202.2</ele>
        <time>2022-01-24T15:09:17Z</time>
      </trkpt>
      <trkpt lat="46.50739" lon="5.29553">
        <ele>202.8</ele>
        <time>2022-01-24T15:09:22Z</time>
      </trkpt>
      <trkpt lat="46.50716" lon="5.29543">
        <ele>204</ele>
        <time>2022-01-24T15:09:28Z</time>
      </trkpt>
      <trkpt lat="46.50694" lon="5.29532">
        <ele>205</ele>
        <time>2022-01-24T15:09:34Z</time>
      </trkpt>
      <trkpt lat="46.50678" lon="5.29525">
        <ele>205.6</ele>
        <time>2022-01-24T15:09:38Z</time>
      </trkpt>
      <trkpt lat="46.50666" lon="5.29522">
        <ele>206</ele>
        <time>2022-01-24T15:09:41Z</time>
      </trkpt>
      <trkpt lat="46.50657" lon="5.29521">
        <ele>206.4</ele>
        <time>2022-01-24T15:09:43Z</time>
      </trkpt>
      <trkpt lat="46.50648" lon="5.29522">
        <ele>206.6</ele>
        <time>2022-01-24T15:09:45Z</time>
      </trkpt>
      <trkpt lat="46.50639" lon="5.29526">
        <ele>207</ele>
        <time>2022-01-24T15:09:47Z</time>
      </trkpt>
      <trkpt lat="46.50635" lon="5.29528">
        <ele>207</ele>
        <time>2022-01-24T15:09:48Z</time>
      </trkpt>
      <trkpt lat="46.50626" lon="5.29534">
        <ele>207.4</ele>
        <time>2022-01-24T15:09:50Z</time>
      </trkpt>
      <trkpt lat="46.50617" lon="5.29541">
        <ele>207.8</ele>
        <time>2022-01-24T15:09:52Z</time>
      </trkpt>
      <trkpt lat="46.50593" lon="5.29561">
        <ele>208</ele>
        <time>2022-01-24T15:09:57Z</time>
      </trkpt>
      <trkpt lat="46.50582" lon="5.29569">
        <ele>208.2</ele>
        <time>2022-01-24T15:09:59Z</time>
      </trkpt>
      <trkpt lat="46.50545" lon="5.29598">
        <ele>208.8</ele>
        <time>2022-01-24T15:10:06Z</time>
      </trkpt>
      <trkpt lat="46.50493" lon="5.29635">
        <ele>209</ele>
        <time>2022-01-24T15:10:15Z</time>
      </trkpt>
      <trkpt lat="46.50487" lon="5.29639">
        <ele>209</ele>
        <time>2022-01-24T15:10:16Z</time>
      </trkpt>
      <trkpt lat="46.50435" lon="5.29675">
        <ele>209</ele>
        <time>2022-01-24T15:10:25Z</time>
      </trkpt>
      <trkpt lat="46.504" lon="5.29699">
        <ele>209.2</ele>
        <time>2022-01-24T15:10:31Z</time>
      </trkpt>
      <trkpt lat="46.5037" lon="5.29716">
        <ele>209.6</ele>
        <time>2022-01-24T15:10:36Z</time>
      </trkpt>
      <trkpt lat="46.50318" lon="5.29738">
        <ele>209.4</ele>
        <time>2022-01-24T15:10:44Z</time>
      </trkpt>
      <trkpt lat="46.50311" lon="5.29741">
        <ele>209.4</ele>
        <time>2022-01-24T15:10:45Z</time>
      </trkpt>
      <trkpt lat="46.50255" lon="5.29763">
        <ele>209</ele>
        <time>2022-01-24T15:10:53Z</time>
      </trkpt>
      <trkpt lat="46.50241" lon="5.29767">
        <ele>208.8</ele>
        <time>2022-01-24T15:10:55Z</time>
      </trkpt>
      <trkpt lat="46.50197" lon="5.29766">
        <ele>208.4</ele>
        <time>2022-01-24T15:11:01Z</time>
      </trkpt>
      <trkpt lat="46.50183" lon="5.29765">
        <ele>208.2</ele>
        <time>2022-01-24T15:11:03Z</time>
      </trkpt>
      <trkpt lat="46.50146" lon="5.29769">
        <ele>207.8</ele>
        <time>2022-01-24T15:11:08Z</time>
      </trkpt>
      <trkpt lat="46.50099" lon="5.29783">
        <ele>207</ele>
        <time>2022-01-24T15:11:14Z</time>
      </trkpt>
      <trkpt lat="46.50083" lon="5.29789">
        <ele>206.2</ele>
        <time>2022-01-24T15:11:16Z</time>
      </trkpt>
      <trkpt lat="46.50066" lon="5.29795">
        <ele>205.6</ele>
        <time>2022-01-24T15:11:18Z</time>
      </trkpt>
      <trkpt lat="46.50059" lon="5.298">
        <ele>205.4</ele>
        <time>2022-01-24T15:11:19Z</time>
      </trkpt>
      <trkpt lat="46.50044" lon="5.29812">
        <ele>204.4</ele>
        <time>2022-01-24T15:11:21Z</time>
      </trkpt>
      <trkpt lat="46.50022" lon="5.2984">
        <ele>203.8</ele>
        <time>2022-01-24T15:11:25Z</time>
      </trkpt>
      <trkpt lat="46.50019" lon="5.29848">
        <ele>203.8</ele>
        <time>2022-01-24T15:11:26Z</time>
      </trkpt>
      <trkpt lat="46.50016" lon="5.29865">
        <ele>203.4</ele>
        <time>2022-01-24T15:11:28Z</time>
      </trkpt>
      <trkpt lat="46.50023" lon="5.2988">
        <ele>203.2</ele>
        <time>2022-01-24T15:11:30Z</time>
      </trkpt>
      <trkpt lat="46.50049" lon="5.29913">
        <ele>202.4</ele>
        <time>2022-01-24T15:11:35Z</time>
      </trkpt>
      <trkpt lat="46.50054" lon="5.29922">
        <ele>202.4</ele>
        <time>2022-01-24T15:11:36Z</time>
      </trkpt>
      <trkpt lat="46.50069" lon="5.29955">
        <ele>202.4</ele>
        <time>2022-01-24T15:11:40Z</time>
      </trkpt>
      <trkpt lat="46.50072" lon="5.29962">
        <ele>202.6</ele>
        <time>2022-01-24T15:11:41Z</time>
      </trkpt>
      <trkpt lat="46.50081" lon="5.30008">
        <ele>203.6</ele>
        <time>2022-01-24T15:11:46Z</time>
      </trkpt>
      <trkpt lat="46.50084" lon="5.30065">
        <ele>204.2</ele>
        <time>2022-01-24T15:11:52Z</time>
      </trkpt>
      <trkpt lat="46.50084" lon="5.30074">
        <ele>204.4</ele>
        <time>2022-01-24T15:11:53Z</time>
      </trkpt>
      <trkpt lat="46.50084" lon="5.3015">
        <ele>204.2</ele>
        <time>2022-01-24T15:12:01Z</time>
      </trkpt>
      <trkpt lat="46.50084" lon="5.30199">
        <ele>204</ele>
        <time>2022-01-24T15:12:06Z</time>
      </trkpt>
      <trkpt lat="46.50083" lon="5.30215">
        <ele>203.8</ele>
        <time>2022-01-24T15:12:08Z</time>
      </trkpt>
      <trkpt lat="46.50081" lon="5.30239">
        <ele>203.6</ele>
        <time>2022-01-24T15:12:11Z</time>
      </trkpt>
      <trkpt lat="46.50081" lon="5.30249">
        <ele>203.6</ele>
        <time>2022-01-24T15:12:12Z</time>
      </trkpt>
      <trkpt lat="46.50077" lon="5.3029">
        <ele>203.2</ele>
        <time>2022-01-24T15:12:16Z</time>
      </trkpt>
      <trkpt lat="46.50074" lon="5.30312">
        <ele>203</ele>
        <time>2022-01-24T15:12:18Z</time>
      </trkpt>
      <trkpt lat="46.50059" lon="5.30354">
        <ele>202.4</ele>
        <time>2022-01-24T15:12:22Z</time>
      </trkpt>
      <trkpt lat="46.50049" lon="5.30373">
        <ele>202</ele>
        <time>2022-01-24T15:12:24Z</time>
      </trkpt>
      <trkpt lat="46.50036" lon="5.30388">
        <ele>201.4</ele>
        <time>2022-01-24T15:12:26Z</time>
      </trkpt>
      <trkpt lat="46.50009" lon="5.30412">
        <ele>200.8</ele>
        <time>2022-01-24T15:12:30Z</time>
      </trkpt>
      <trkpt lat="46.50003" lon="5.30417">
        <ele>200.6</ele>
        <time>2022-01-24T15:12:31Z</time>
      </trkpt>
      <trkpt lat="46.4997" lon="5.30446">
        <ele>200.8</ele>
        <time>2022-01-24T15:12:37Z</time>
      </trkpt>
      <trkpt lat="46.49948" lon="5.30481">
        <ele>201.8</ele>
        <time>2022-01-24T15:12:43Z</time>
      </trkpt>
      <trkpt lat="46.49945" lon="5.30488">
        <ele>202.2</ele>
        <time>2022-01-24T15:12:44Z</time>
      </trkpt>
      <trkpt lat="46.4994" lon="5.30501">
        <ele>202.6</ele>
        <time>2022-01-24T15:12:46Z</time>
      </trkpt>
      <trkpt lat="46.49935" lon="5.30522">
        <ele>203</ele>
        <time>2022-01-24T15:12:49Z</time>
      </trkpt>
      <trkpt lat="46.49934" lon="5.30529">
        <ele>203.2</ele>
        <time>2022-01-24T15:12:50Z</time>
      </trkpt>
      <trkpt lat="46.4993" lon="5.30573">
        <ele>203.8</ele>
        <time>2022-01-24T15:12:56Z</time>
      </trkpt>
      <trkpt lat="46.49931" lon="5.30593">
        <ele>204.4</ele>
        <time>2022-01-24T15:12:59Z</time>
      </trkpt>
      <trkpt lat="46.49933" lon="5.30606">
        <ele>204.8</ele>
        <time>2022-01-24T15:13:01Z</time>
      </trkpt>
      <trkpt lat="46.49934" lon="5.30612">
        <ele>205</ele>
        <time>2022-01-24T15:13:02Z</time>
      </trkpt>
      <trkpt lat="46.49935" lon="5.30618">
        <ele>205</ele>
        <time>2022-01-24T15:13:03Z</time>
      </trkpt>
      <trkpt lat="46.49938" lon="5.30639">
        <ele>205.6</ele>
        <time>2022-01-24T15:13:06Z</time>
      </trkpt>
      <trkpt lat="46.49941" lon="5.30659">
        <ele>206</ele>
        <time>2022-01-24T15:13:09Z</time>
      </trkpt>
      <trkpt lat="46.49944" lon="5.30678">
        <ele>206.6</ele>
        <time>2022-01-24T15:13:12Z</time>
      </trkpt>
      <trkpt lat="46.49951" lon="5.30716">
        <ele>207.8</ele>
        <time>2022-01-24T15:13:18Z</time>
      </trkpt>
      <trkpt lat="46.49953" lon="5.30729">
        <ele>208.2</ele>
        <time>2022-01-24T15:13:20Z</time>
      </trkpt>
      <trkpt lat="46.49957" lon="5.3075">
        <ele>208.6</ele>
        <time>2022-01-24T15:13:23Z</time>
      </trkpt>
      <trkpt lat="46.49959" lon="5.30757">
        <ele>208.8</ele>
        <time>2022-01-24T15:13:24Z</time>
      </trkpt>
      <trkpt lat="46.49961" lon="5.30764">
        <ele>208.8</ele>
        <time>2022-01-24T15:13:25Z</time>
      </trkpt>
      <trkpt lat="46.49967" lon="5.30787">
        <ele>209.2</ele>
        <time>2022-01-24T15:13:28Z</time>
      </trkpt>
      <trkpt lat="46.4998" lon="5.30838">
        <ele>209.4</ele>
        <time>2022-01-24T15:13:34Z</time>
      </trkpt>
      <trkpt lat="46.5" lon="5.30893">
        <ele>208.6</ele>
        <time>2022-01-24T15:13:40Z</time>
      </trkpt>
      <trkpt lat="46.50023" lon="5.30956">
        <ele>207.4</ele>
        <time>2022-01-24T15:13:46Z</time>
      </trkpt>
      <trkpt lat="46.50027" lon="5.30968">
        <ele>207.2</ele>
        <time>2022-01-24T15:13:47Z</time>
      </trkpt>
      <trkpt lat="46.50035" lon="5.30991">
        <ele>206</ele>
        <time>2022-01-24T15:13:49Z</time>
      </trkpt>
      <trkpt lat="46.50044" lon="5.31015">
        <ele>205</ele>
        <time>2022-01-24T15:13:51Z</time>
      </trkpt>
      <trkpt lat="46.50056" lon="5.31053">
        <ele>204</ele>
        <time>2022-01-24T15:13:54Z</time>
      </trkpt>
      <trkpt lat="46.50069" lon="5.31092">
        <ele>202.4</ele>
        <time>2022-01-24T15:13:57Z</time>
      </trkpt>
      <trkpt lat="46.50077" lon="5.31118">
        <ele>201.2</ele>
        <time>2022-01-24T15:13:59Z</time>
      </trkpt>
      <trkpt lat="46.5009" lon="5.31155">
        <ele>199.6</ele>
        <time>2022-01-24T15:14:02Z</time>
      </trkpt>
      <trkpt lat="46.50098" lon="5.31179">
        <ele>198.2</ele>
        <time>2022-01-24T15:14:04Z</time>
      </trkpt>
      <trkpt lat="46.50105" lon="5.312">
        <ele>197.6</ele>
        <time>2022-01-24T15:14:06Z</time>
      </trkpt>
      <trkpt lat="46.5013" lon="5.31272">
        <ele>197.2</ele>
        <time>2022-01-24T15:14:13Z</time>
      </trkpt>
      <trkpt lat="46.50134" lon="5.31282">
        <ele>197.2</ele>
        <time>2022-01-24T15:14:14Z</time>
      </trkpt>
      <trkpt lat="46.50158" lon="5.31353">
        <ele>198.2</ele>
        <time>2022-01-24T15:14:21Z</time>
      </trkpt>
      <trkpt lat="46.50162" lon="5.31363">
        <ele>198.4</ele>
        <time>2022-01-24T15:14:22Z</time>
      </trkpt>
      <trkpt lat="46.50188" lon="5.3144">
        <ele>198.2</ele>
        <time>2022-01-24T15:14:29Z</time>
      </trkpt>
      <trkpt lat="46.50192" lon="5.31452">
        <ele>198</ele>
        <time>2022-01-24T15:14:30Z</time>
      </trkpt>
      <trkpt lat="46.50204" lon="5.31488">
        <ele>197.2</ele>
        <time>2022-01-24T15:14:33Z</time>
      </trkpt>
      <trkpt lat="46.50222" lon="5.31536">
        <ele>196</ele>
        <time>2022-01-24T15:14:37Z</time>
      </trkpt>
      <trkpt lat="46.50235" lon="5.31557">
        <ele>194.8</ele>
        <time>2022-01-24T15:14:39Z</time>
      </trkpt>
      <trkpt lat="46.50249" lon="5.31575">
        <ele>193.8</ele>
        <time>2022-01-24T15:14:41Z</time>
      </trkpt>
      <trkpt lat="46.50256" lon="5.31583">
        <ele>193.4</ele>
        <time>2022-01-24T15:14:42Z</time>
      </trkpt>
      <trkpt lat="46.50285" lon="5.31609">
        <ele>192.2</ele>
        <time>2022-01-24T15:14:46Z</time>
      </trkpt>
      <trkpt lat="46.50327" lon="5.3164">
        <ele>191.4</ele>
        <time>2022-01-24T15:14:52Z</time>
      </trkpt>
      <trkpt lat="46.50334" lon="5.31645">
        <ele>191.2</ele>
        <time>2022-01-24T15:14:53Z</time>
      </trkpt>
      <trkpt lat="46.50371" lon="5.31678">
        <ele>191</ele>
        <time>2022-01-24T15:14:59Z</time>
      </trkpt>
      <trkpt lat="46.50392" lon="5.31716">
        <ele>191</ele>
        <time>2022-01-24T15:15:04Z</time>
      </trkpt>
      <trkpt lat="46.50414" lon="5.31772">
        <ele>191.4</ele>
        <time>2022-01-24T15:15:11Z</time>
      </trkpt>
      <trkpt lat="46.5043" lon="5.31842">
        <ele>192</ele>
        <time>2022-01-24T15:15:19Z</time>
      </trkpt>
      <trkpt lat="46.50436" lon="5.31877">
        <ele>192.2</ele>
        <time>2022-01-24T15:15:23Z</time>
      </trkpt>
      <trkpt lat="46.50437" lon="5.31895">
        <ele>192.4</ele>
        <time>2022-01-24T15:15:25Z</time>
      </trkpt>
      <trkpt lat="46.50436" lon="5.31968">
        <ele>192.2</ele>
        <time>2022-01-24T15:15:33Z</time>
      </trkpt>
      <trkpt lat="46.50434" lon="5.32033">
        <ele>192.4</ele>
        <time>2022-01-24T15:15:40Z</time>
      </trkpt>
      <trkpt lat="46.50431" lon="5.32112">
        <ele>192.6</ele>
        <time>2022-01-24T15:15:49Z</time>
      </trkpt>
      <trkpt lat="46.50431" lon="5.32128">
        <ele>193</ele>
        <time>2022-01-24T15:15:51Z</time>
      </trkpt>
      <trkpt lat="46.50431" lon="5.32144">
        <ele>193.2</ele>
        <time>2022-01-24T15:15:53Z</time>
      </trkpt>
      <trkpt lat="46.5043" lon="5.32194">
        <ele>193.8</ele>
        <time>2022-01-24T15:15:59Z</time>
      </trkpt>
      <trkpt lat="46.50429" lon="5.32225">
        <ele>194.2</ele>
        <time>2022-01-24T15:16:03Z</time>
      </trkpt>
      <trkpt lat="46.5043" lon="5.32272">
        <ele>195</ele>
        <time>2022-01-24T15:16:09Z</time>
      </trkpt>
      <trkpt lat="46.50433" lon="5.32295">
        <ele>195.2</ele>
        <time>2022-01-24T15:16:12Z</time>
      </trkpt>
      <trkpt lat="46.50441" lon="5.32335">
        <ele>195.8</ele>
        <time>2022-01-24T15:16:17Z</time>
      </trkpt>
      <trkpt lat="46.50456" lon="5.32404">
        <ele>195.8</ele>
        <time>2022-01-24T15:16:25Z</time>
      </trkpt>
      <trkpt lat="46.50467" lon="5.32484">
        <ele>195.8</ele>
        <time>2022-01-24T15:16:34Z</time>
      </trkpt>
      <trkpt lat="46.50471" lon="5.32559">
        <ele>196.2</ele>
        <time>2022-01-24T15:16:43Z</time>
      </trkpt>
      <trkpt lat="46.50473" lon="5.32583">
        <ele>196.4</ele>
        <time>2022-01-24T15:16:46Z</time>
      </trkpt>
      <trkpt lat="46.50474" lon="5.32656">
        <ele>197</ele>
        <time>2022-01-24T15:16:55Z</time>
      </trkpt>
      <trkpt lat="46.50474" lon="5.32688">
        <ele>197.4</ele>
        <time>2022-01-24T15:16:59Z</time>
      </trkpt>
      <trkpt lat="46.50473" lon="5.32736">
        <ele>198</ele>
        <time>2022-01-24T15:17:05Z</time>
      </trkpt>
      <trkpt lat="46.50472" lon="5.32759">
        <ele>198.4</ele>
        <time>2022-01-24T15:17:08Z</time>
      </trkpt>
      <trkpt lat="46.50472" lon="5.32832">
        <ele>199</ele>
        <time>2022-01-24T15:17:17Z</time>
      </trkpt>
      <trkpt lat="46.50471" lon="5.3287">
        <ele>199.6</ele>
        <time>2022-01-24T15:17:22Z</time>
      </trkpt>
      <trkpt lat="46.5047" lon="5.32898">
        <ele>200</ele>
        <time>2022-01-24T15:17:26Z</time>
      </trkpt>
      <trkpt lat="46.5047" lon="5.32919">
        <ele>200.8</ele>
        <time>2022-01-24T15:17:29Z</time>
      </trkpt>
      <trkpt lat="46.5047" lon="5.32952">
        <ele>201.4</ele>
        <time>2022-01-24T15:17:34Z</time>
      </trkpt>
      <trkpt lat="46.5047" lon="5.32965">
        <ele>201.8</ele>
        <time>2022-01-24T15:17:36Z</time>
      </trkpt>
      <trkpt lat="46.50469" lon="5.3299">
        <ele>203.2</ele>
        <time>2022-01-24T15:17:40Z</time>
      </trkpt>
      <trkpt lat="46.50468" lon="5.33003">
        <ele>203.6</ele>
        <time>2022-01-24T15:17:42Z</time>
      </trkpt>
      <trkpt lat="46.50468" lon="5.33022">
        <ele>204.2</ele>
        <time>2022-01-24T15:17:45Z</time>
      </trkpt>
      <trkpt lat="46.50468" lon="5.33046">
        <ele>205.2</ele>
        <time>2022-01-24T15:17:49Z</time>
      </trkpt>
      <trkpt lat="46.50468" lon="5.33052">
        <ele>205.4</ele>
        <time>2022-01-24T15:17:50Z</time>
      </trkpt>
      <trkpt lat="46.50469" lon="5.33079">
        <ele>206.6</ele>
        <time>2022-01-24T15:17:55Z</time>
      </trkpt>
      <trkpt lat="46.50468" lon="5.33111">
        <ele>207.8</ele>
        <time>2022-01-24T15:18:00Z</time>
      </trkpt>
      <trkpt lat="46.50466" lon="5.33129">
        <ele>208.4</ele>
        <time>2022-01-24T15:18:03Z</time>
      </trkpt>
      <trkpt lat="46.50466" lon="5.33143">
        <ele>208.8</ele>
        <time>2022-01-24T15:18:05Z</time>
      </trkpt>
      <trkpt lat="46.50466" lon="5.3315">
        <ele>209.2</ele>
        <time>2022-01-24T15:18:06Z</time>
      </trkpt>
      <trkpt lat="46.50465" lon="5.33163">
        <ele>209.4</ele>
        <time>2022-01-24T15:18:08Z</time>
      </trkpt>
      <trkpt lat="46.50465" lon="5.33176">
        <ele>209.8</ele>
        <time>2022-01-24T15:18:10Z</time>
      </trkpt>
      <trkpt lat="46.50465" lon="5.33197">
        <ele>211</ele>
        <time>2022-01-24T15:18:13Z</time>
      </trkpt>
      <trkpt lat="46.50465" lon="5.33212">
        <ele>211.4</ele>
        <time>2022-01-24T15:18:15Z</time>
      </trkpt>
      <trkpt lat="46.50466" lon="5.3323">
        <ele>212</ele>
        <time>2022-01-24T15:18:18Z</time>
      </trkpt>
      <trkpt lat="46.50468" lon="5.33238">
        <ele>212</ele>
        <time>2022-01-24T15:18:19Z</time>
      </trkpt>
      <trkpt lat="46.50466" lon="5.3326">
        <ele>212.2</ele>
        <time>2022-01-24T15:18:22Z</time>
      </trkpt>
      <trkpt lat="46.50466" lon="5.33268">
        <ele>212.2</ele>
        <time>2022-01-24T15:18:23Z</time>
      </trkpt>
      <trkpt lat="46.50464" lon="5.33294">
        <ele>212.4</ele>
        <time>2022-01-24T15:18:26Z</time>
      </trkpt>
      <trkpt lat="46.50464" lon="5.33311">
        <ele>212.4</ele>
        <time>2022-01-24T15:18:28Z</time>
      </trkpt>
      <trkpt lat="46.50462" lon="5.33338">
        <ele>212.2</ele>
        <time>2022-01-24T15:18:31Z</time>
      </trkpt>
      <trkpt lat="46.50459" lon="5.33364">
        <ele>211.8</ele>
        <time>2022-01-24T15:18:34Z</time>
      </trkpt>
      <trkpt lat="46.50445" lon="5.33415">
        <ele>211.6</ele>
        <time>2022-01-24T15:18:40Z</time>
      </trkpt>
      <trkpt lat="46.50425" lon="5.33447">
        <ele>211.6</ele>
        <time>2022-01-24T15:18:45Z</time>
      </trkpt>
      <trkpt lat="46.50421" lon="5.33452">
        <ele>211.8</ele>
        <time>2022-01-24T15:18:46Z</time>
      </trkpt>
      <trkpt lat="46.504" lon="5.33475">
        <ele>212</ele>
        <time>2022-01-24T15:18:51Z</time>
      </trkpt>
      <trkpt lat="46.50381" lon="5.33495">
        <ele>212.6</ele>
        <time>2022-01-24T15:18:55Z</time>
      </trkpt>
      <trkpt lat="46.5037" lon="5.33505">
        <ele>212.8</ele>
        <time>2022-01-24T15:18:57Z</time>
      </trkpt>
      <trkpt lat="46.50335" lon="5.33542">
        <ele>213.8</ele>
        <time>2022-01-24T15:19:04Z</time>
      </trkpt>
      <trkpt lat="46.5033" lon="5.33548">
        <ele>214</ele>
        <time>2022-01-24T15:19:05Z</time>
      </trkpt>
      <trkpt lat="46.50305" lon="5.33575">
        <ele>214.4</ele>
        <time>2022-01-24T15:19:11Z</time>
      </trkpt>
      <trkpt lat="46.50279" lon="5.33603">
        <ele>214.8</ele>
        <time>2022-01-24T15:19:16Z</time>
      </trkpt>
      <trkpt lat="46.50246" lon="5.3364">
        <ele>215.2</ele>
        <time>2022-01-24T15:19:23Z</time>
      </trkpt>
      <trkpt lat="46.50221" lon="5.33666">
        <ele>215.8</ele>
        <time>2022-01-24T15:19:29Z</time>
      </trkpt>
      <trkpt lat="46.50213" lon="5.33675">
        <ele>216</ele>
        <time>2022-01-24T15:19:31Z</time>
      </trkpt>
      <trkpt lat="46.50196" lon="5.33693">
        <ele>216.2</ele>
        <time>2022-01-24T15:19:35Z</time>
      </trkpt>
      <trkpt lat="46.50164" lon="5.33726">
        <ele>216.6</ele>
        <time>2022-01-24T15:19:41Z</time>
      </trkpt>
      <trkpt lat="46.50123" lon="5.33769">
        <ele>216.6</ele>
        <time>2022-01-24T15:19:48Z</time>
      </trkpt>
      <trkpt lat="46.50077" lon="5.33821">
        <ele>216</ele>
        <time>2022-01-24T15:19:56Z</time>
      </trkpt>
      <trkpt lat="46.50072" lon="5.33826">
        <ele>216</ele>
        <time>2022-01-24T15:19:57Z</time>
      </trkpt>
      <trkpt lat="46.50038" lon="5.33862">
        <ele>216.6</ele>
        <time>2022-01-24T15:20:04Z</time>
      </trkpt>
      <trkpt lat="46.50033" lon="5.33866">
        <ele>216.8</ele>
        <time>2022-01-24T15:20:05Z</time>
      </trkpt>
      <trkpt lat="46.50029" lon="5.33871">
        <ele>216.8</ele>
        <time>2022-01-24T15:20:06Z</time>
      </trkpt>
      <trkpt lat="46.50017" lon="5.33885">
        <ele>217.4</ele>
        <time>2022-01-24T15:20:09Z</time>
      </trkpt>
      <trkpt lat="46.50006" lon="5.33897">
        <ele>218</ele>
        <time>2022-01-24T15:20:12Z</time>
      </trkpt>
      <trkpt lat="46.4999" lon="5.33915">
        <ele>218.2</ele>
        <time>2022-01-24T15:20:16Z</time>
      </trkpt>
      <trkpt lat="46.49955" lon="5.33951">
        <ele>218.6</ele>
        <time>2022-01-24T15:20:23Z</time>
      </trkpt>
      <trkpt lat="46.49919" lon="5.33991">
        <ele>218.6</ele>
        <time>2022-01-24T15:20:29Z</time>
      </trkpt>
      <trkpt lat="46.4988" lon="5.34035">
        <ele>217.8</ele>
        <time>2022-01-24T15:20:35Z</time>
      </trkpt>
      <trkpt lat="46.49843" lon="5.3408">
        <ele>216.6</ele>
        <time>2022-01-24T15:20:41Z</time>
      </trkpt>
      <trkpt lat="46.49833" lon="5.34095">
        <ele>216.4</ele>
        <time>2022-01-24T15:20:43Z</time>
      </trkpt>
      <trkpt lat="46.49805" lon="5.3414">
        <ele>216.4</ele>
        <time>2022-01-24T15:20:49Z</time>
      </trkpt>
      <trkpt lat="46.49769" lon="5.34201">
        <ele>216.4</ele>
        <time>2022-01-24T15:20:57Z</time>
      </trkpt>
      <trkpt lat="46.49764" lon="5.34209">
        <ele>216.4</ele>
        <time>2022-01-24T15:20:58Z</time>
      </trkpt>
      <trkpt lat="46.49724" lon="5.34275">
        <ele>215.6</ele>
        <time>2022-01-24T15:21:06Z</time>
      </trkpt>
      <trkpt lat="46.49719" lon="5.34283">
        <ele>215.6</ele>
        <time>2022-01-24T15:21:07Z</time>
      </trkpt>
      <trkpt lat="46.49711" lon="5.34299">
        <ele>215.6</ele>
        <time>2022-01-24T15:21:09Z</time>
      </trkpt>
      <trkpt lat="46.49698" lon="5.34334">
        <ele>215.6</ele>
        <time>2022-01-24T15:21:13Z</time>
      </trkpt>
      <trkpt lat="46.4968" lon="5.34394">
        <ele>215.6</ele>
        <time>2022-01-24T15:21:19Z</time>
      </trkpt>
      <trkpt lat="46.49674" lon="5.34416">
        <ele>215.4</ele>
        <time>2022-01-24T15:21:21Z</time>
      </trkpt>
      <trkpt lat="46.49659" lon="5.34473">
        <ele>214.2</ele>
        <time>2022-01-24T15:21:26Z</time>
      </trkpt>
      <trkpt lat="46.49647" lon="5.34517">
        <ele>213.2</ele>
        <time>2022-01-24T15:21:30Z</time>
      </trkpt>
      <trkpt lat="46.49644" lon="5.34528">
        <ele>212.8</ele>
        <time>2022-01-24T15:21:31Z</time>
      </trkpt>
      <trkpt lat="46.49633" lon="5.34546">
        <ele>212.2</ele>
        <time>2022-01-24T15:21:33Z</time>
      </trkpt>
      <trkpt lat="46.49619" lon="5.3456">
        <ele>212</ele>
        <time>2022-01-24T15:21:35Z</time>
      </trkpt>
      <trkpt lat="46.49597" lon="5.3459">
        <ele>211</ele>
        <time>2022-01-24T15:21:39Z</time>
      </trkpt>
      <trkpt lat="46.49582" lon="5.34613">
        <ele>210.8</ele>
        <time>2022-01-24T15:21:42Z</time>
      </trkpt>
      <trkpt lat="46.49567" lon="5.34633">
        <ele>210.8</ele>
        <time>2022-01-24T15:21:45Z</time>
      </trkpt>
      <trkpt lat="46.4954" lon="5.34667">
        <ele>211.2</ele>
        <time>2022-01-24T15:21:51Z</time>
      </trkpt>
      <trkpt lat="46.49521" lon="5.34688">
        <ele>212</ele>
        <time>2022-01-24T15:21:56Z</time>
      </trkpt>
      <trkpt lat="46.49514" lon="5.34696">
        <ele>212.8</ele>
        <time>2022-01-24T15:21:58Z</time>
      </trkpt>
      <trkpt lat="46.49508" lon="5.34703">
        <ele>213.2</ele>
        <time>2022-01-24T15:22:00Z</time>
      </trkpt>
      <trkpt lat="46.49493" lon="5.3472">
        <ele>214.2</ele>
        <time>2022-01-24T15:22:04Z</time>
      </trkpt>
      <trkpt lat="46.49474" lon="5.34742">
        <ele>215.4</ele>
        <time>2022-01-24T15:22:09Z</time>
      </trkpt>
      <trkpt lat="46.49472" lon="5.34746">
        <ele>215.6</ele>
        <time>2022-01-24T15:22:10Z</time>
      </trkpt>
      <trkpt lat="46.49462" lon="5.34755">
        <ele>216.6</ele>
        <time>2022-01-24T15:22:13Z</time>
      </trkpt>
      <trkpt lat="46.49452" lon="5.34765">
        <ele>217</ele>
        <time>2022-01-24T15:22:16Z</time>
      </trkpt>
      <trkpt lat="46.49449" lon="5.34767">
        <ele>217.4</ele>
        <time>2022-01-24T15:22:17Z</time>
      </trkpt>
      <trkpt lat="46.49436" lon="5.3478">
        <ele>218.4</ele>
        <time>2022-01-24T15:22:21Z</time>
      </trkpt>
      <trkpt lat="46.49429" lon="5.34788">
        <ele>219.6</ele>
        <time>2022-01-24T15:22:23Z</time>
      </trkpt>
      <trkpt lat="46.49424" lon="5.34793">
        <ele>219.8</ele>
        <time>2022-01-24T15:22:24Z</time>
      </trkpt>
      <trkpt lat="46.49408" lon="5.34808">
        <ele>220.6</ele>
        <time>2022-01-24T15:22:28Z</time>
      </trkpt>
      <trkpt lat="46.49398" lon="5.34814">
        <ele>221.2</ele>
        <time>2022-01-24T15:22:31Z</time>
      </trkpt>
      <trkpt lat="46.49384" lon="5.34822">
        <ele>221.8</ele>
        <time>2022-01-24T15:22:34Z</time>
      </trkpt>
      <trkpt lat="46.49375" lon="5.34825">
        <ele>222.2</ele>
        <time>2022-01-24T15:22:36Z</time>
      </trkpt>
      <trkpt lat="46.4937" lon="5.34826">
        <ele>222.2</ele>
        <time>2022-01-24T15:22:37Z</time>
      </trkpt>
      <trkpt lat="46.49335" lon="5.34833">
        <ele>222.4</ele>
        <time>2022-01-24T15:22:43Z</time>
      </trkpt>
      <trkpt lat="46.49292" lon="5.34844">
        <ele>222.2</ele>
        <time>2022-01-24T15:22:50Z</time>
      </trkpt>
      <trkpt lat="46.49267" lon="5.34861">
        <ele>222.2</ele>
        <time>2022-01-24T15:22:55Z</time>
      </trkpt>
      <trkpt lat="46.49259" lon="5.34871">
        <ele>222.2</ele>
        <time>2022-01-24T15:22:57Z</time>
      </trkpt>
      <trkpt lat="46.49247" lon="5.34891">
        <ele>222.2</ele>
        <time>2022-01-24T15:23:00Z</time>
      </trkpt>
      <trkpt lat="46.49221" lon="5.34929">
        <ele>222.4</ele>
        <time>2022-01-24T15:23:06Z</time>
      </trkpt>
      <trkpt lat="46.49194" lon="5.34969">
        <ele>222.6</ele>
        <time>2022-01-24T15:23:13Z</time>
      </trkpt>
      <trkpt lat="46.49177" lon="5.34993">
        <ele>222.6</ele>
        <time>2022-01-24T15:23:17Z</time>
      </trkpt>
      <trkpt lat="46.49168" lon="5.35002">
        <ele>222.8</ele>
        <time>2022-01-24T15:23:19Z</time>
      </trkpt>
      <trkpt lat="46.49163" lon="5.35006">
        <ele>222.8</ele>
        <time>2022-01-24T15:23:20Z</time>
      </trkpt>
      <trkpt lat="46.49142" lon="5.35024">
        <ele>222.8</ele>
        <time>2022-01-24T15:23:25Z</time>
      </trkpt>
      <trkpt lat="46.4912" lon="5.35044">
        <ele>223</ele>
        <time>2022-01-24T15:23:30Z</time>
      </trkpt>
      <trkpt lat="46.49096" lon="5.35064">
        <ele>223.6</ele>
        <time>2022-01-24T15:23:34Z</time>
      </trkpt>
      <trkpt lat="46.49079" lon="5.3508">
        <ele>223.8</ele>
        <time>2022-01-24T15:23:37Z</time>
      </trkpt>
      <trkpt lat="46.49071" lon="5.35087">
        <ele>224</ele>
        <time>2022-01-24T15:23:39Z</time>
      </trkpt>
      <trkpt lat="46.49061" lon="5.35094">
        <ele>224.2</ele>
        <time>2022-01-24T15:23:41Z</time>
      </trkpt>
      <trkpt lat="46.49041" lon="5.35113">
        <ele>224.8</ele>
        <time>2022-01-24T15:23:45Z</time>
      </trkpt>
      <trkpt lat="46.49032" lon="5.35123">
        <ele>225</ele>
        <time>2022-01-24T15:23:47Z</time>
      </trkpt>
      <trkpt lat="46.49028" lon="5.35129">
        <ele>225.2</ele>
        <time>2022-01-24T15:23:48Z</time>
      </trkpt>
      <trkpt lat="46.4902" lon="5.35142">
        <ele>225.2</ele>
        <time>2022-01-24T15:23:50Z</time>
      </trkpt>
      <trkpt lat="46.49018" lon="5.35149">
        <ele>225.4</ele>
        <time>2022-01-24T15:23:51Z</time>
      </trkpt>
      <trkpt lat="46.49001" lon="5.35191">
        <ele>225.6</ele>
        <time>2022-01-24T15:23:57Z</time>
      </trkpt>
      <trkpt lat="46.4898" lon="5.35235">
        <ele>225.4</ele>
        <time>2022-01-24T15:24:02Z</time>
      </trkpt>
      <trkpt lat="46.4895" lon="5.35304">
        <ele>224</ele>
        <time>2022-01-24T15:24:10Z</time>
      </trkpt>
      <trkpt lat="46.48943" lon="5.35322">
        <ele>223.8</ele>
        <time>2022-01-24T15:24:12Z</time>
      </trkpt>
      <trkpt lat="46.48926" lon="5.35359">
        <ele>223.4</ele>
        <time>2022-01-24T15:24:16Z</time>
      </trkpt>
      <trkpt lat="46.48902" lon="5.35415">
        <ele>223.2</ele>
        <time>2022-01-24T15:24:23Z</time>
      </trkpt>
      <trkpt lat="46.48879" lon="5.35466">
        <ele>223.8</ele>
        <time>2022-01-24T15:24:30Z</time>
      </trkpt>
      <trkpt lat="46.48858" lon="5.35515">
        <ele>224</ele>
        <time>2022-01-24T15:24:37Z</time>
      </trkpt>
      <trkpt lat="46.48833" lon="5.35572">
        <ele>224.4</ele>
        <time>2022-01-24T15:24:45Z</time>
      </trkpt>
      <trkpt lat="46.48811" lon="5.35621">
        <ele>224.6</ele>
        <time>2022-01-24T15:24:51Z</time>
      </trkpt>
      <trkpt lat="46.48782" lon="5.35687">
        <ele>224.2</ele>
        <time>2022-01-24T15:24:59Z</time>
      </trkpt>
      <trkpt lat="46.48751" lon="5.35755">
        <ele>224.2</ele>
        <time>2022-01-24T15:25:07Z</time>
      </trkpt>
      <trkpt lat="46.48723" lon="5.35822">
        <ele>224</ele>
        <time>2022-01-24T15:25:15Z</time>
      </trkpt>
      <trkpt lat="46.48711" lon="5.35848">
        <ele>224.2</ele>
        <time>2022-01-24T15:25:18Z</time>
      </trkpt>
      <trkpt lat="46.48695" lon="5.35886">
        <ele>224.6</ele>
        <time>2022-01-24T15:25:23Z</time>
      </trkpt>
      <trkpt lat="46.48686" lon="5.35909">
        <ele>224.8</ele>
        <time>2022-01-24T15:25:26Z</time>
      </trkpt>
      <trkpt lat="46.48677" lon="5.35951">
        <ele>225.8</ele>
        <time>2022-01-24T15:25:31Z</time>
      </trkpt>
      <trkpt lat="46.48676" lon="5.35959">
        <ele>226</ele>
        <time>2022-01-24T15:25:32Z</time>
      </trkpt>
      <trkpt lat="46.48672" lon="5.35992">
        <ele>227.2</ele>
        <time>2022-01-24T15:25:36Z</time>
      </trkpt>
      <trkpt lat="46.48667" lon="5.36027">
        <ele>227.4</ele>
        <time>2022-01-24T15:25:40Z</time>
      </trkpt>
      <trkpt lat="46.48656" lon="5.36077">
        <ele>227.4</ele>
        <time>2022-01-24T15:25:45Z</time>
      </trkpt>
      <trkpt lat="46.4864" lon="5.36153">
        <ele>226.2</ele>
        <time>2022-01-24T15:25:52Z</time>
      </trkpt>
      <trkpt lat="46.48639" lon="5.36163">
        <ele>226</ele>
        <time>2022-01-24T15:25:53Z</time>
      </trkpt>
      <trkpt lat="46.48634" lon="5.36222">
        <ele>225.8</ele>
        <time>2022-01-24T15:25:59Z</time>
      </trkpt>
      <trkpt lat="46.48627" lon="5.36283">
        <ele>226.4</ele>
        <time>2022-01-24T15:26:06Z</time>
      </trkpt>
      <trkpt lat="46.48622" lon="5.36305">
        <ele>226.8</ele>
        <time>2022-01-24T15:26:09Z</time>
      </trkpt>
      <trkpt lat="46.48615" lon="5.36317">
        <ele>227</ele>
        <time>2022-01-24T15:26:11Z</time>
      </trkpt>
      <trkpt lat="46.48611" lon="5.36321">
        <ele>227</ele>
        <time>2022-01-24T15:26:12Z</time>
      </trkpt>
      <trkpt lat="46.48606" lon="5.36324">
        <ele>227.2</ele>
        <time>2022-01-24T15:26:13Z</time>
      </trkpt>
      <trkpt lat="46.48601" lon="5.36325">
        <ele>227.4</ele>
        <time>2022-01-24T15:26:14Z</time>
      </trkpt>
      <trkpt lat="46.48592" lon="5.36327">
        <ele>227.6</ele>
        <time>2022-01-24T15:26:16Z</time>
      </trkpt>
      <trkpt lat="46.48582" lon="5.36327">
        <ele>228.4</ele>
        <time>2022-01-24T15:26:18Z</time>
      </trkpt>
      <trkpt lat="46.48572" lon="5.36328">
        <ele>229</ele>
        <time>2022-01-24T15:26:20Z</time>
      </trkpt>
      <trkpt lat="46.48562" lon="5.36329">
        <ele>229.4</ele>
        <time>2022-01-24T15:26:22Z</time>
      </trkpt>
      <trkpt lat="46.48547" lon="5.36332">
        <ele>230.6</ele>
        <time>2022-01-24T15:26:25Z</time>
      </trkpt>
      <trkpt lat="46.48521" lon="5.36336">
        <ele>231.6</ele>
        <time>2022-01-24T15:26:30Z</time>
      </trkpt>
      <trkpt lat="46.48516" lon="5.36337">
        <ele>231.8</ele>
        <time>2022-01-24T15:26:31Z</time>
      </trkpt>
      <trkpt lat="46.48471" lon="5.36344">
        <ele>232.8</ele>
        <time>2022-01-24T15:26:39Z</time>
      </trkpt>
      <trkpt lat="46.48425" lon="5.36353">
        <ele>233.2</ele>
        <time>2022-01-24T15:26:47Z</time>
      </trkpt>
      <trkpt lat="46.48413" lon="5.36358">
        <ele>233.2</ele>
        <time>2022-01-24T15:26:49Z</time>
      </trkpt>
      <trkpt lat="46.48392" lon="5.36374">
        <ele>233.2</ele>
        <time>2022-01-24T15:26:53Z</time>
      </trkpt>
      <trkpt lat="46.48359" lon="5.3641">
        <ele>233.8</ele>
        <time>2022-01-24T15:27:00Z</time>
      </trkpt>
      <trkpt lat="46.48354" lon="5.36415">
        <ele>233.8</ele>
        <time>2022-01-24T15:27:01Z</time>
      </trkpt>
      <trkpt lat="46.48315" lon="5.36458">
        <ele>234.8</ele>
        <time>2022-01-24T15:27:10Z</time>
      </trkpt>
      <trkpt lat="46.48287" lon="5.3649">
        <ele>236.2</ele>
        <time>2022-01-24T15:27:17Z</time>
      </trkpt>
      <trkpt lat="46.48275" lon="5.36503">
        <ele>236.6</ele>
        <time>2022-01-24T15:27:20Z</time>
      </trkpt>
      <trkpt lat="46.48263" lon="5.36516">
        <ele>237.2</ele>
        <time>2022-01-24T15:27:23Z</time>
      </trkpt>
      <trkpt lat="46.48244" lon="5.36538">
        <ele>238</ele>
        <time>2022-01-24T15:27:28Z</time>
      </trkpt>
      <trkpt lat="46.48236" lon="5.36547">
        <ele>238.2</ele>
        <time>2022-01-24T15:27:30Z</time>
      </trkpt>
      <trkpt lat="46.48232" lon="5.36551">
        <ele>238.4</ele>
        <time>2022-01-24T15:27:31Z</time>
      </trkpt>
      <trkpt lat="46.48224" lon="5.36558">
        <ele>238.6</ele>
        <time>2022-01-24T15:27:33Z</time>
      </trkpt>
      <trkpt lat="46.48214" lon="5.3656">
        <ele>239</ele>
        <time>2022-01-24T15:27:35Z</time>
      </trkpt>
      <trkpt lat="46.48209" lon="5.3656">
        <ele>239</ele>
        <time>2022-01-24T15:27:36Z</time>
      </trkpt>
      <trkpt lat="46.48199" lon="5.36563">
        <ele>239.2</ele>
        <time>2022-01-24T15:27:38Z</time>
      </trkpt>
      <trkpt lat="46.48195" lon="5.36566">
        <ele>239.4</ele>
        <time>2022-01-24T15:27:39Z</time>
      </trkpt>
      <trkpt lat="46.48192" lon="5.36571">
        <ele>239.4</ele>
        <time>2022-01-24T15:27:40Z</time>
      </trkpt>
      <trkpt lat="46.48186" lon="5.36584">
        <ele>239.6</ele>
        <time>2022-01-24T15:27:42Z</time>
      </trkpt>
      <trkpt lat="46.48182" lon="5.36598">
        <ele>239.6</ele>
        <time>2022-01-24T15:27:44Z</time>
      </trkpt>
      <trkpt lat="46.48171" lon="5.36614">
        <ele>240</ele>
        <time>2022-01-24T15:27:47Z</time>
      </trkpt>
      <trkpt lat="46.48156" lon="5.36633">
        <ele>240.4</ele>
        <time>2022-01-24T15:27:51Z</time>
      </trkpt>
      <trkpt lat="46.48152" lon="5.36638">
        <ele>240.4</ele>
        <time>2022-01-24T15:27:52Z</time>
      </trkpt>
      <trkpt lat="46.48149" lon="5.36644">
        <ele>240.6</ele>
        <time>2022-01-24T15:27:53Z</time>
      </trkpt>
      <trkpt lat="46.4813" lon="5.36665">
        <ele>241</ele>
        <time>2022-01-24T15:27:58Z</time>
      </trkpt>
      <trkpt lat="46.48117" lon="5.36676">
        <ele>241</ele>
        <time>2022-01-24T15:28:01Z</time>
      </trkpt>
      <trkpt lat="46.4811" lon="5.36683">
        <ele>241.2</ele>
        <time>2022-01-24T15:28:03Z</time>
      </trkpt>
      <trkpt lat="46.48107" lon="5.36687">
        <ele>241.2</ele>
        <time>2022-01-24T15:28:04Z</time>
      </trkpt>
      <trkpt lat="46.48103" lon="5.36695">
        <ele>241.6</ele>
        <time>2022-01-24T15:28:06Z</time>
      </trkpt>
      <trkpt lat="46.48103" lon="5.36701">
        <ele>241.6</ele>
        <time>2022-01-24T15:28:07Z</time>
      </trkpt>
      <trkpt lat="46.48111" lon="5.36714">
        <ele>242.2</ele>
        <time>2022-01-24T15:28:10Z</time>
      </trkpt>
      <trkpt lat="46.48122" lon="5.36723">
        <ele>242.6</ele>
        <time>2022-01-24T15:28:13Z</time>
      </trkpt>
      <trkpt lat="46.48143" lon="5.36737">
        <ele>243.6</ele>
        <time>2022-01-24T15:28:19Z</time>
      </trkpt>
      <trkpt lat="46.48157" lon="5.36747">
        <ele>244.6</ele>
        <time>2022-01-24T15:28:23Z</time>
      </trkpt>
      <trkpt lat="46.48171" lon="5.3676">
        <ele>245.6</ele>
        <time>2022-01-24T15:28:28Z</time>
      </trkpt>
      <trkpt lat="46.48174" lon="5.36763">
        <ele>246</ele>
        <time>2022-01-24T15:28:29Z</time>
      </trkpt>
      <trkpt lat="46.48187" lon="5.36773">
        <ele>246.8</ele>
        <time>2022-01-24T15:28:33Z</time>
      </trkpt>
      <trkpt lat="46.48196" lon="5.36781">
        <ele>247.4</ele>
        <time>2022-01-24T15:28:36Z</time>
      </trkpt>
      <trkpt lat="46.48208" lon="5.3679">
        <ele>247.8</ele>
        <time>2022-01-24T15:28:40Z</time>
      </trkpt>
      <trkpt lat="46.48219" lon="5.36799">
        <ele>249</ele>
        <time>2022-01-24T15:28:44Z</time>
      </trkpt>
      <trkpt lat="46.48225" lon="5.36804">
        <ele>249.4</ele>
        <time>2022-01-24T15:28:46Z</time>
      </trkpt>
      <trkpt lat="46.48238" lon="5.36815">
        <ele>250.2</ele>
        <time>2022-01-24T15:28:51Z</time>
      </trkpt>
      <trkpt lat="46.48243" lon="5.3682">
        <ele>250.6</ele>
        <time>2022-01-24T15:28:53Z</time>
      </trkpt>
      <trkpt lat="46.48257" lon="5.36832">
        <ele>251.4</ele>
        <time>2022-01-24T15:28:58Z</time>
      </trkpt>
    </trkseg>
  </trk>
</gpx>